GFSSGP_sfc_dewp_000.txt.gz
Dewpoint
45 35 36 30 22 23 20 19 36 39 42 48 50 50 50 51 49 50 64 66 69 69 70 70 71 72 72 72 72 71 71 70 69 69 69 68 67 66 66 67 68 66 65 65 64 64 65 65 66
39 35 33 26 22 19 21 32 40 43 44 47 48 50 52 54 60 63 64 67 69 69 69 69 71 72 72 72 72 71 71 70 70 69 69 68 66 66 66 66 67 65 64 63 64 64 65 65 65
41 36 22 22 21 17 27 32 33 40 43 44 46 48 48 52 60 61 65 68 69 69 70 70 70 71 72 71 71 71 71 71 70 69 68 67 66 66 65 65 63 62 62 62 61 62 62 64 64
31 25 18 16 15 16 31 33 37 43 46 47 46 45 46 52 56 66 68 70 69 70 70 70 70 71 71 71 71 71 70 70 69 68 67 66 65 65 64 63 62 61 60 60 60 60 60 61 62
36 23 16 16 15 32 34 34 36 36 46 46 45 45 47 57 66 68 69 69 68 68 71 71 70 70 71 71 71 70 70 69 69 69 67 66 65 64 63 63 61 60 59 59 59 59 59 59 60
23 20 15 14 28 27 26 34 37 47 46 45 45 46 46 54 65 67 69 69 68 67 69 71 71 70 70 70 70 69 69 69 69 68 67 65 65 64 63 62 61 60 59 58 58 59 58 59 59
22 20 16 22 32 25 20 24 32 39 45 47 46 44 45 51 60 65 67 68 69 69 69 69 69 69 68 68 67 68 68 68 68 68 67 66 65 65 63 62 61 60 59 58 58 59 59 59 59
22 19 16 21 27 16 16 15 25 30 36 48 47 44 43 44 55 60 65 66 66 66 66 65 66 66 66 66 67 67 66 66 66 66 66 65 65 64 64 63 62 61 60 60 60 60 60 59 60
21 15 13 13 16 13 12 16 15 27 36 40 42 46 44 45 46 51 54 57 60 62 63 63 63 64 64 64 65 66 66 65 65 65 65 64 63 62 62 63 62 63 62 62 62 62 61 60 60
18 12 12 13 16 9 9 9 12 25 42 45 47 47 46 42 45 47 47 53 55 58 60 60 61 62 63 62 64 64 64 64 63 64 63 63 63 62 61 62 63 63 63 63 63 63 63 61 57
15 8 5 8 11 7 6 7 13 22 35 46 46 45 44 42 41 43 43 47 52 55 58 59 61 61 60 59 62 62 63 63 63 63 63 62 63 60 62 60 61 61 62 61 61 61 60 59 57
7 8 4 6 6 5 5 6 10 19 22 46 47 46 45 44 43 42 41 43 49 54 55 57 58 59 56 59 61 61 61 62 63 62 60 59 59 55 55 57 58 58 57 58 59 59 58 56 56
7 7 5 8 14 10 6 4 6 15 23 47 47 47 47 46 45 44 42 42 49 54 56 57 57 56 56 55 57 57 58 60 61 60 59 57 56 53 54 53 52 51 51 52 52 54 52 50 51
11 7 5 6 15 15 10 14 15 13 23 47 47 47 47 47 46 45 43 41 48 55 56 59 60 59 55 55 57 56 56 56 57 57 56 55 54 54 54 52 52 52 52 52 50 49 49 49 50
11 7 9 10 16 15 17 16 14 16 21 44 47 47 47 47 47 45 44 41 46 55 58 60 61 59 57 55 56 55 51 51 52 51 51 50 52 52 52 50 49 51 52 51 51 50 50 50 50
12 15 11 16 19 20 14 12 16 14 13 24 38 44 44 46 45 45 45 44 51 57 57 61 59 60 57 54 52 50 50 50 49 50 49 49 50 50 49 47 47 49 49 49 48 49 49 48 48
16 10 17 17 19 19 18 18 18 18 15 14 19 31 38 43 45 46 44 44 58 58 59 59 60 59 57 53 53 50 50 49 47 47 45 47 48 48 46 45 45 47 47 46 46 46 48 46 44
12 15 17 15 17 21 17 20 23 24 32 39 41 42 44 44 45 47 49 52 51 56 56 56 58 58 53 45 48 47 48 48 46 43 44 45 44 44 44 44 45 46 44 43 43 42 43 43 44
19 18 18 18 18 16 23 26 28 36 40 39 41 43 43 42 43 46 47 47 46 47 47 50 50 51 43 46 46 49 44 43 42 42 45 45 45 45 45 44 45 45 43 42 41 42 42 41 42
24 22 22 21 21 17 24 25 31 36 37 38 40 42 42 42 42 43 44 47 47 45 47 48 46 45 45 48 48 47 44 43 43 46 44 45 46 43 42 43 42 43 41 41 41 42 41 41 42
29 24 24 23 22 20 25 24 29 31 32 34 36 40 42 42 42 42 44 43 41 40 41 41 40 41 45 46 43 44 44 44 44 42 42 43 42 41 40 40 41 41 41 41 40 41 41 41 42
28 30 27 24 22 13 20 21 26 31 33 35 38 40 41 42 43 42 42 42 41 40 39 39 39 39 40 41 41 43 43 41 43 43 41 38 39 40 39 39 41 41 41 40 41 42 42 41 40
29 31 29 28 24 23 23 23 25 31 30 33 36 39 41 42 42 42 42 42 41 41 40 39 39 39 39 39 40 42 39 39 41 41 37 36 38 39 38 39 40 40 40 40 40 41 40 41 40
30 32 31 30 29 24 27 27 27 30 31 34 35 37 39 40 41 42 43 42 41 40 39 37 36 38 39 39 39 41 37 37 38 35 35 35 37 37 38 38 38 37 38 38 39 38 39 38 38
28 30 29 25 24 23 31 30 31 32 33 36 37 37 38 39 41 42 41 41 41 41 39 39 39 38 38 39 39 38 37 37 34 33 34 33 36 37 38 38 38 38 38 37 37 36 36 37 36
28 28 26 22 22 24 26 26 27 32 36 37 37 37 38 38 40 41 41 39 39 41 41 40 38 35 38 37 36 37 38 38 36 35 33 36 37 37 38 38 37 36 36 36 35 35 35 35 35
30 23 26 27 27 24 26 27 29 30 31 31 32 36 37 37 37 39 39 40 40 40 40 39 36 33 35 36 37 37 39 38 39 38 37 39 37 37 36 36 34 34 34 34 35 34 34 33 33
22 27 27 27 19 18 22 26 28 30 30 30 33 35 37 38 38 38 39 39 40 40 39 40 38 35 34 36 38 38 38 38 39 37 37 35 35 36 35 33 32 32 33 33 34 33 33 33 33
28 28 29 28 26 21 20 22 29 33 32 33 34 36 36 37 38 38 38 38 37 35 36 37 37 38 37 36 37 37 36 36 36 36 35 34 34 35 34 32 30 29 29 29 30 31 33 33 31
28 29 29 24 26 26 23 22 30 31 32 35 35 36 36 38 38 38 37 35 34 33 33 31 35 36 36 37 38 38 38 36 34 34 32 33 33 33 32 31 29 26 26 26 27 29 28 25 24

GFSSGP_sfc_dewp_003.txt.gz
Dewpoint
49 36 35 29 22 22 19 17 40 39 47 51 53 50 53 55 52 50 64 66 69 69 70 70 71 71 71 71 71 71 70 69 68 68 68 67 66 66 66 66 66 64 63 62 63 63 63 63 64
35 34 30 27 21 16 19 28 42 45 48 48 49 52 54 56 62 64 64 69 69 69 70 70 71 71 72 71 71 71 70 69 69 68 68 67 66 66 65 65 65 63 62 62 62 62 62 63 64
37 35 21 21 21 17 19 36 43 46 48 45 46 46 50 58 62 63 66 69 69 69 69 71 71 71 72 71 71 71 71 70 70 69 67 66 66 64 63 63 62 61 61 61 61 61 61 61 62
30 26 18 17 16 18 23 30 41 42 45 46 47 46 47 58 62 65 68 69 69 69 69 70 70 71 71 71 71 71 71 70 69 68 66 66 65 63 63 62 61 60 60 60 59 59 59 60 61
31 21 15 14 13 18 21 35 43 44 45 46 45 45 49 64 65 67 69 68 68 69 70 70 69 70 71 71 71 70 70 68 68 68 66 65 64 63 62 61 60 59 59 59 58 59 59 59 59
21 19 15 12 17 23 21 37 47 46 45 47 49 47 48 64 66 68 68 66 67 69 70 70 70 70 70 70 70 69 69 69 69 68 66 65 64 63 62 60 59 59 59 58 59 59 59 59 59
19 17 14 14 27 20 22 29 46 44 45 45 46 44 50 62 65 68 67 66 66 67 68 70 70 70 69 68 68 67 68 68 68 67 67 66 65 64 63 60 59 59 59 59 59 60 60 59 59
21 18 16 22 22 18 12 22 37 46 45 47 45 44 51 54 65 67 66 66 67 67 67 67 67 66 66 66 66 67 67 67 67 67 66 65 64 64 64 63 62 61 60 61 61 61 61 60 61
21 17 14 11 10 4 8 22 26 38 46 44 45 45 55 58 63 64 63 64 64 65 64 64 64 64 64 64 65 66 66 66 66 66 65 64 62 61 61 63 63 63 63 62 62 62 62 61 60
21 16 14 13 11 4 10 34 34 41 45 46 44 44 53 55 60 60 60 60 61 61 62 62 62 62 63 64 63 63 63 63 63 63 63 62 62 61 62 62 63 64 63 63 63 63 63 63 58
16 9 8 9 10 7 9 16 24 43 44 46 43 44 50 54 54 54 54 56 57 59 60 60 61 61 61 61 62 62 62 62 62 62 62 62 62 61 61 60 59 60 62 60 61 60 60 58 58
9 8 6 8 7 5 7 10 25 28 43 47 44 44 46 48 49 50 51 53 54 57 58 59 60 60 60 60 60 60 61 62 62 62 62 60 59 57 57 57 57 55 55 54 57 58 57 57 56
4 5 8 12 9 6 5 6 13 17 37 47 44 42 44 45 45 47 48 49 52 56 57 58 60 59 57 59 59 60 60 62 62 62 60 59 57 53 53 52 52 51 51 51 50 51 50 49 49
9 9 6 13 13 9 6 14 15 18 47 46 44 42 42 42 42 43 42 44 51 54 55 56 59 58 55 55 58 58 58 60 61 60 58 55 54 53 53 52 50 50 52 52 51 50 50 50 50
10 7 9 9 15 13 16 16 13 20 47 46 45 45 46 45 45 43 43 42 50 53 55 57 58 59 56 55 56 55 57 55 57 53 51 51 53 52 50 48 47 48 49 48 47 48 48 46 46
13 13 10 12 18 18 12 8 17 22 46 46 46 46 46 45 45 44 46 42 45 54 56 59 62 60 60 58 57 56 54 50 51 51 51 50 49 48 47 44 44 46 47 47 45 46 42 43 44
14 9 14 15 18 19 16 17 19 18 37 32 40 43 43 45 46 49 51 50 53 56 58 60 62 62 61 57 54 53 51 48 46 46 47 45 44 44 43 43 45 46 45 44 43 42 42 42 42
9 12 21 13 16 19 18 25 31 37 38 41 43 41 42 44 46 47 51 52 52 53 55 57 57 58 54 51 50 48 50 49 49 45 43 43 43 45 44 45 45 45 42 41 40 39 41 41 42
17 16 14 17 18 27 29 32 37 39 42 43 41 41 41 42 43 45 46 47 45 49 50 53 52 51 50 51 50 49 48 47 46 44 45 44 43 42 42 42 42 42 40 39 40 41 40 38 41
22 20 21 21 27 29 32 30 34 36 39 42 41 40 40 41 41 44 44 45 45 46 47 48 48 46 46 48 48 50 48 47 47 44 42 41 41 40 39 41 41 40 39 39 39 39 39 40 42
28 24 22 21 28 29 30 28 28 32 35 38 40 41 41 41 43 44 42 39 38 39 40 40 41 43 44 49 48 44 43 43 41 40 40 38 41 39 39 40 40 40 40 39 39 40 40 39 40
26 29 26 24 26 25 26 25 28 32 35 38 40 41 42 42 41 40 39 38 37 37 37 37 37 38 39 40 40 40 40 39 41 41 36 36 39 38 39 39 39 39 39 39 40 40 39 39 38
29 30 26 25 22 22 25 25 28 32 34 36 38 40 41 41 40 40 40 39 39 39 37 37 38 38 38 38 40 41 39 37 40 37 34 35 38 38 38 37 37 38 38 37 37 37 36 37 36
28 31 31 31 28 23 26 26 27 30 32 34 36 39 40 40 41 41 41 40 39 38 37 36 37 37 38 38 38 39 36 37 34 32 33 34 36 38 38 37 38 37 37 36 35 34 34 34 35
29 29 27 24 22 23 28 28 29 30 33 35 36 37 39 40 41 42 40 39 39 39 39 39 38 38 38 37 37 37 36 33 32 33 34 34 36 37 37 37 37 36 36 35 34 33 33 33 32
27 27 26 20 21 22 27 26 28 32 35 36 37 37 38 41 40 39 39 39 39 38 35 33 34 34 34 34 34 36 35 36 36 36 37 37 36 37 37 37 35 34 34 34 34 32 32 31 30
28 23 27 27 26 24 25 27 29 32 35 35 36 37 36 37 38 38 38 38 38 38 38 35 31 31 32 34 35 36 37 37 38 37 37 36 36 37 37 35 35 36 34 33 33 32 30 31 30
25 28 25 26 17 17 23 26 27 29 32 30 32 36 36 36 37 37 37 35 34 35 36 37 36 34 34 35 36 37 37 36 37 37 36 36 35 37 36 36 37 33 32 32 32 31 31 31 31
27 26 27 28 25 19 18 24 27 30 30 32 35 36 36 36 36 36 35 33 32 31 31 33 33 30 29 31 34 36 35 35 36 36 36 35 34 34 34 34 31 31 29 27 27 27 30 31 28
27 28 25 21 24 25 21 20 29 32 33 35 35 36 36 36 36 34 33 32 31 27 25 26 26 24 26 28 31 31 33 33 34 34 33 34 32 31 30 31 32 28 25 25 26 27 27 24 23

GFSSGP_sfc_dewp_006.txt.gz
Dewpoint
51 47 37 29 13 22 19 17 32 39 48 52 53 54 56 58 52 49 65 67 69 69 70 70 71 71 71 71 70 71 70 69 68 68 68 67 66 66 66 65 65 64 62 62 62 62 63 63 64
32 34 29 26 20 14 14 21 42 47 50 49 51 52 55 54 62 63 64 68 69 69 70 70 70 71 71 71 71 70 69 69 68 68 67 66 66 64 64 64 64 62 61 61 60 60 60 61 62
36 33 21 21 20 13 15 39 45 47 48 46 47 49 53 57 63 63 67 69 69 69 69 70 70 71 71 71 71 70 70 70 69 68 67 66 64 63 62 63 62 61 60 60 59 59 59 59 60
29 26 18 16 15 17 21 39 46 46 46 48 48 49 52 60 62 65 68 69 68 68 69 69 70 70 71 71 71 71 70 69 69 68 66 65 64 63 62 61 60 59 58 58 58 58 58 59 59
28 20 14 16 13 15 19 37 42 45 46 45 45 48 52 64 66 67 68 68 67 68 69 69 69 70 71 71 71 70 69 68 68 68 66 65 64 62 61 60 59 58 58 58 59 59 59 59 59
22 19 13 13 13 22 32 42 47 46 46 48 50 49 54 66 65 67 68 67 68 68 69 69 70 70 70 70 70 69 68 68 68 67 66 64 64 63 61 59 59 59 58 59 60 60 60 60 59
19 15 13 15 26 24 26 44 44 44 46 47 48 48 58 63 66 67 66 66 67 67 69 69 69 69 69 68 68 68 68 68 68 67 66 66 65 64 62 60 60 60 59 60 61 62 62 61 61
21 17 22 25 22 28 15 33 44 45 46 46 48 53 57 61 66 66 65 64 65 66 66 66 67 68 67 66 67 67 67 67 67 66 66 64 64 64 63 62 61 62 61 62 62 62 62 62 62
20 17 14 20 29 28 21 31 29 44 46 46 45 52 58 65 65 64 64 65 65 66 66 67 66 67 65 64 66 66 67 66 66 65 65 63 61 60 60 62 63 63 62 62 63 63 63 62 61
21 18 15 14 21 33 32 35 39 44 45 44 46 57 62 64 63 61 61 61 62 63 64 64 63 63 63 65 64 63 63 63 63 63 62 62 61 60 61 62 63 63 63 64 64 64 64 62 58
19 16 10 10 14 12 26 26 37 44 43 44 49 56 59 62 62 61 61 61 62 63 63 62 62 62 61 62 61 61 61 61 61 61 60 61 61 60 60 60 58 58 60 59 58 59 58 58 57
14 13 7 11 15 10 25 17 40 34 39 46 52 56 56 58 58 58 57 58 58 59 61 61 60 60 60 60 60 60 60 60 60 61 61 60 59 58 56 56 53 52 52 51 53 55 55 55 53
12 8 11 9 6 8 8 20 33 22 43 44 49 53 53 55 54 53 53 54 55 57 58 58 59 59 59 59 59 59 60 61 61 61 60 58 57 53 53 52 52 51 52 51 50 50 50 50 50
15 7 8 14 7 5 8 13 15 22 46 43 47 50 50 51 49 48 48 50 53 56 57 58 59 58 56 57 58 59 59 60 60 60 57 56 54 53 52 50 49 48 50 49 49 49 49 48 48
11 4 8 9 13 12 16 13 13 33 45 43 42 44 43 44 45 44 44 46 50 54 55 57 59 58 58 58 58 59 58 59 58 56 52 54 53 51 48 46 44 46 47 47 46 46 44 43 43
11 13 6 9 16 18 9 6 17 40 45 45 45 46 46 45 45 44 45 42 46 54 57 60 61 61 60 59 58 58 56 55 55 55 54 50 46 46 44 44 45 46 45 43 43 44 40 42 42
13 9 12 14 18 17 14 19 31 32 44 41 42 42 44 46 47 49 52 52 55 58 60 60 61 60 59 58 56 55 52 49 49 49 47 44 45 44 44 44 45 43 41 41 41 41 41 41 40
7 10 21 12 22 30 28 35 38 40 40 42 41 43 44 44 45 48 51 52 55 57 58 58 57 56 55 55 54 53 50 49 50 49 48 44 42 44 44 42 42 41 39 39 40 39 40 40 41
13 12 12 16 24 32 34 35 36 41 42 40 41 41 42 42 46 47 48 51 51 52 52 53 53 54 52 50 49 48 47 50 51 44 43 42 41 40 40 40 40 40 39 39 40 39 39 38 42
21 20 22 26 30 33 33 30 32 35 38 41 40 40 41 42 42 44 43 45 48 51 52 52 50 48 48 48 48 50 50 48 43 41 39 40 40 39 39 40 40 39 38 39 40 40 39 39 41
27 21 21 25 31 32 31 30 31 34 39 40 41 41 41 42 42 41 39 38 40 44 44 42 43 43 45 48 48 44 43 43 39 40 36 38 39 39 39 39 39 38 38 39 39 39 39 38 39
24 28 26 29 28 26 28 27 29 33 37 39 40 40 41 41 39 37 36 36 36 36 37 38 39 39 40 40 40 39 39 38 40 37 35 37 38 38 38 38 38 38 38 39 39 38 37 38 34
27 28 26 24 22 23 26 27 27 34 35 37 39 40 41 41 39 38 38 38 39 38 37 38 38 38 38 39 41 40 37 39 38 35 34 34 37 37 37 37 37 37 37 36 36 34 33 35 33
30 30 30 30 27 22 24 25 26 31 33 36 37 39 40 40 40 40 40 39 38 38 37 37 39 39 39 38 39 38 37 35 33 34 35 35 35 37 37 37 37 37 36 35 34 33 33 33 33
30 28 25 23 21 23 28 26 26 31 34 37 37 38 40 40 40 41 39 38 37 36 36 37 36 35 36 36 36 36 35 32 33 34 35 36 37 37 37 37 36 36 35 35 33 31 31 30 29
26 28 25 19 21 23 27 25 28 31 33 37 37 38 39 40 39 39 38 37 37 37 33 32 32 32 34 35 35 35 35 36 37 38 37 37 36 36 37 36 34 34 36 35 35 33 31 31 29
26 24 27 26 25 23 25 27 30 35 35 36 36 37 39 37 38 38 37 36 36 37 36 33 33 33 34 35 36 36 36 35 36 36 37 37 37 37 37 35 37 37 37 35 34 32 31 31 30
26 28 22 24 17 17 22 25 27 31 34 35 36 36 37 37 37 36 33 33 34 34 36 34 30 27 28 29 31 30 30 31 33 34 34 35 36 36 37 36 37 35 33 32 32 30 30 30 31
26 25 27 27 24 18 17 23 29 31 34 33 35 36 36 36 35 33 32 31 29 29 28 26 24 23 25 27 28 29 30 31 32 32 34 35 34 35 35 33 33 31 31 31 28 26 27 29 29
27 26 23 18 18 24 20 19 29 31 32 35 36 36 36 35 33 32 31 29 25 24 24 23 22 22 24 25 28 28 30 30 30 31 31 32 32 31 32 32 32 32 30 27 25 25 27 25 23

GFSSGP_sfc_dewp_009.txt.gz
Dewpoint
54 46 36 32 20 22 18 16 32 45 50 53 55 53 54 55 51 50 65 67 67 68 69 68 69 70 70 70 70 70 70 69 69 68 67 66 66 65 65 64 65 64 62 61 61 60 60 61 61
31 33 31 28 16 11 14 20 43 48 51 50 50 49 52 52 58 63 64 68 68 69 69 67 69 70 70 70 70 70 70 69 69 68 67 66 65 64 64 63 65 62 60 59 58 58 58 59 60
32 30 26 24 22 12 15 41 45 47 49 49 51 52 53 53 60 63 66 68 69 69 69 68 69 70 70 71 70 70 70 70 69 68 66 65 64 63 63 62 63 60 58 57 57 57 58 59 60
31 28 21 19 17 19 20 44 46 45 46 47 48 47 56 61 63 65 68 69 68 68 69 69 69 70 70 71 70 70 70 70 69 68 66 65 63 62 61 61 60 58 58 59 58 59 58 59 60
27 23 19 16 14 18 21 45 47 46 46 45 46 48 54 64 66 67 68 68 67 68 68 68 68 69 70 71 71 70 69 69 69 68 67 65 63 62 60 60 59 59 59 60 60 60 59 60 60
27 22 17 13 16 22 34 43 46 45 45 46 49 51 57 66 66 67 67 67 68 67 68 69 69 69 70 70 70 69 68 68 68 67 66 64 63 62 60 60 59 59 60 61 61 60 60 60 60
24 19 16 16 26 28 41 47 47 44 45 47 50 53 61 64 66 67 67 67 68 68 68 69 69 69 69 68 68 68 67 68 67 67 66 65 64 63 61 61 61 60 61 62 62 62 62 61 62
23 20 17 27 35 36 33 47 49 44 46 48 53 54 58 61 67 67 66 66 66 68 68 68 69 68 68 68 67 67 67 67 67 66 65 63 63 63 63 61 61 62 62 62 63 63 63 63 63
21 19 25 26 33 41 37 43 36 46 46 46 45 57 60 64 66 65 64 65 66 66 67 67 66 66 68 68 67 67 67 66 66 65 64 63 61 61 60 62 63 63 63 63 64 64 63 63 62
22 21 19 21 37 37 35 35 43 44 44 44 56 62 63 64 63 62 62 62 63 64 65 66 66 66 67 65 66 65 63 62 63 62 63 62 63 63 62 62 63 62 62 63 63 63 63 61 58
22 20 16 13 23 35 34 31 42 44 42 44 54 59 61 62 61 60 60 61 61 63 63 64 65 66 67 65 64 63 62 62 62 63 63 63 63 64 63 62 61 61 59 56 56 56 57 58 57
17 19 10 18 19 23 32 34 43 41 38 46 57 61 61 60 60 60 60 61 62 63 64 65 66 65 64 62 62 61 60 61 61 62 63 63 62 63 60 57 55 56 55 55 54 53 56 55 53
17 13 11 10 11 28 18 35 41 24 45 52 58 60 61 62 61 60 59 59 60 60 61 63 63 62 62 61 61 60 60 61 62 63 63 62 60 60 57 56 54 53 52 51 51 51 51 51 49
19 9 10 11 9 9 18 14 20 31 45 53 57 58 58 57 56 54 53 54 56 58 59 61 61 60 59 60 61 62 62 61 61 62 60 59 59 58 55 51 48 48 49 49 48 49 47 46 45
11 9 11 14 13 14 16 14 19 38 44 49 54 52 51 50 50 51 50 51 53 56 58 61 60 60 60 60 61 60 60 59 57 58 58 55 54 53 50 49 49 49 49 47 47 45 45 43 40
11 15 11 11 16 18 11 10 31 38 44 44 45 46 47 46 47 49 50 47 49 55 58 61 61 61 61 61 60 59 56 56 55 55 54 49 48 50 49 47 47 46 45 44 44 43 41 41 40
18 9 12 14 27 19 20 22 37 40 44 43 44 45 45 47 47 50 54 54 55 58 60 61 62 61 61 59 56 53 52 49 49 52 49 48 47 47 47 45 45 44 42 43 41 41 41 39 37
13 12 13 14 23 31 32 35 39 42 43 43 43 45 45 46 47 51 54 57 60 60 60 60 60 60 59 57 54 53 50 49 50 48 45 44 42 44 44 43 44 42 40 40 40 40 38 39 38
14 13 14 20 31 35 35 35 38 41 41 42 43 44 45 46 48 50 53 56 57 58 58 57 57 57 56 52 51 51 50 50 47 41 43 43 43 42 44 41 41 41 40 42 41 38 35 32 39
22 21 25 30 33 34 34 36 38 39 40 42 43 44 45 45 46 47 51 54 56 56 56 56 54 52 49 49 50 52 52 47 41 40 42 41 42 40 40 42 40 42 40 42 41 38 33 36 41
25 24 25 27 33 33 33 33 37 39 41 42 43 43 44 44 44 45 48 51 53 51 51 50 49 49 48 49 48 46 46 45 42 38 38 39 40 38 40 42 42 42 42 40 41 40 38 33 36
26 27 31 32 29 26 28 21 33 38 39 41 41 42 43 41 40 39 40 40 42 42 44 44 44 43 43 44 44 45 42 41 42 38 38 39 41 40 38 40 42 42 41 41 40 37 38 36 31
28 32 30 26 24 25 27 26 29 36 38 39 40 41 41 39 38 37 38 39 39 42 43 43 42 42 42 44 44 42 42 41 38 39 40 40 41 41 39 39 41 41 39 40 39 37 34 32 29
33 31 31 30 28 25 25 24 26 33 36 38 40 41 40 40 40 40 40 40 40 41 43 42 39 38 41 42 42 43 42 38 38 39 39 39 40 40 41 39 40 40 39 37 36 36 33 31 30
31 30 27 26 27 24 28 26 27 31 35 38 39 40 41 41 41 40 39 38 39 40 40 38 36 36 39 39 39 39 39 40 40 39 38 38 37 36 39 41 40 38 36 36 36 33 33 31 27
28 29 30 23 25 24 28 27 26 31 34 37 38 40 41 41 42 40 38 38 36 36 36 37 36 36 37 38 37 36 33 30 28 30 30 30 31 33 40 40 38 38 38 37 36 34 33 33 31
26 25 29 28 26 25 25 27 30 33 33 37 38 39 40 41 41 39 38 38 37 36 38 36 30 27 29 31 30 31 30 30 29 31 31 30 34 36 40 39 38 39 37 36 34 33 33 33 33
28 29 25 27 22 18 20 25 26 32 33 35 37 39 40 40 39 38 36 37 38 37 33 31 27 25 27 27 29 28 29 30 31 31 31 32 34 38 40 38 38 36 37 34 34 32 32 31 31
28 27 28 27 26 18 18 19 31 33 34 35 37 38 39 39 38 34 33 34 36 31 27 26 25 24 25 25 28 30 29 31 31 31 31 32 35 36 38 38 35 36 34 33 32 31 29 28 30
28 27 26 25 20 25 26 21 30 33 33 37 36 38 38 38 34 32 31 29 27 26 24 25 25 24 24 26 28 28 30 31 31 31 31 34 33 35 35 34 34 34 34 34 29 28 26 27 27

GFSSGP_sfc_dewp_012.txt.gz
Dewpoint
54 40 27 28 21 20 19 19 35 47 49 52 53 52 52 53 52 51 63 64 65 66 66 66 70 70 70 70 71 70 70 69 69 68 67 66 65 65 65 65 65 63 61 60 59 58 58 58 59
29 24 29 25 15 16 16 17 31 47 48 47 48 49 49 47 57 61 62 66 65 66 66 65 69 70 70 70 71 70 70 69 68 67 66 65 64 64 64 63 64 61 59 57 56 56 57 58 59
24 27 23 18 12 14 12 26 44 46 45 43 46 50 51 49 54 60 65 66 67 66 66 66 69 69 70 70 70 70 70 70 69 67 65 64 63 63 62 62 62 58 58 58 57 57 57 59 60
20 24 22 16 16 13 20 39 44 44 44 44 48 45 52 53 58 63 66 67 67 67 67 68 68 69 69 69 70 70 70 70 69 68 65 64 62 61 60 60 58 59 59 59 58 58 59 60 61
22 22 17 16 16 13 17 42 43 40 40 43 44 45 48 58 63 65 67 68 67 67 67 67 68 68 69 70 71 70 70 69 68 67 65 64 62 60 59 59 60 60 60 60 60 59 60 60 61
18 22 14 16 18 23 22 41 44 42 38 44 44 46 51 64 64 65 66 66 66 65 67 67 67 68 68 70 70 69 69 69 68 67 65 63 62 60 60 60 60 60 60 61 60 60 61 61 61
21 15 15 15 25 33 35 45 46 45 44 43 48 48 60 63 65 66 66 65 66 66 67 67 66 67 68 69 68 67 68 68 67 66 65 63 62 62 61 61 61 60 60 61 61 61 62 62 62
22 17 14 25 30 39 43 40 39 44 43 49 50 49 58 62 65 65 66 65 67 67 66 67 67 66 67 67 67 67 67 66 66 65 64 63 63 61 61 60 61 61 62 62 62 62 63 63 63
24 14 15 30 35 38 41 37 40 45 45 48 48 52 57 63 63 63 64 65 66 66 66 66 65 65 65 64 67 66 67 66 65 64 63 61 58 58 57 61 62 63 63 63 63 63 64 63 63
22 17 18 31 37 36 37 33 43 46 46 46 53 58 62 63 63 62 62 62 63 64 64 65 66 66 66 61 63 62 58 57 58 59 61 59 62 61 59 61 62 61 62 62 60 60 61 60 49
22 18 24 33 32 32 32 32 34 44 42 44 52 58 61 61 61 61 60 62 61 62 63 64 66 66 64 61 59 56 56 58 60 63 62 62 62 62 59 57 56 57 57 53 53 52 49 53 52
21 19 18 30 35 34 31 31 40 39 37 44 54 59 61 60 60 59 58 55 56 60 61 64 65 65 63 58 55 56 57 59 60 61 63 64 61 60 58 54 55 57 54 53 51 49 52 52 50
20 18 13 14 26 33 33 37 38 33 45 51 55 58 58 57 56 54 53 54 55 55 58 61 62 62 62 59 58 59 60 61 62 63 63 62 61 61 58 57 54 52 50 49 48 47 46 46 45
19 13 11 12 23 23 30 33 33 34 47 51 54 54 56 56 53 52 51 51 53 54 58 61 60 60 59 59 60 60 60 60 61 62 61 60 61 61 58 53 50 49 49 47 45 46 43 42 43
14 11 11 12 22 20 22 15 27 39 45 49 50 52 54 54 52 49 49 49 50 54 58 61 61 60 60 60 59 60 59 60 58 59 60 58 58 57 53 50 51 48 47 45 44 43 42 41 39
10 12 12 15 17 16 14 13 31 42 44 48 49 51 51 49 48 49 50 48 49 52 58 61 61 61 61 61 60 60 60 58 55 55 55 52 49 51 51 50 48 46 44 43 42 42 39 39 39
13 5 10 12 23 16 12 14 32 43 42 43 47 48 48 48 49 51 52 50 50 53 59 61 62 62 62 60 59 57 57 53 52 52 50 50 47 47 48 45 45 45 42 43 41 40 40 37 37
8 5 6 8 24 15 16 27 32 42 42 43 43 45 47 47 48 51 54 55 56 57 59 62 62 62 62 61 57 53 49 49 49 48 45 44 43 45 45 44 45 41 39 38 39 40 38 38 38
11 11 10 18 31 28 27 27 31 39 43 44 44 45 46 47 49 53 56 58 59 60 60 61 61 61 59 56 53 49 49 49 47 44 44 44 43 42 43 40 40 41 39 42 42 39 38 35 38
14 12 19 26 31 30 29 31 34 35 40 43 44 45 46 48 50 53 56 58 59 59 60 59 59 58 56 53 49 50 51 48 43 43 44 41 41 39 38 42 40 40 38 40 42 40 36 32 35
21 18 25 20 29 30 29 29 33 37 39 41 43 44 46 47 50 53 55 56 56 56 56 54 52 51 50 51 49 49 48 45 43 41 40 41 41 39 40 42 41 41 39 36 40 40 39 35 34
23 25 25 28 24 18 28 15 31 36 38 41 43 45 46 48 49 48 48 50 49 49 50 49 48 47 46 44 45 47 43 42 42 42 41 40 43 43 41 40 42 41 39 39 39 36 38 35 30
26 29 29 27 24 25 25 21 30 36 36 40 43 45 45 45 44 42 42 42 43 46 46 45 44 43 45 45 46 44 43 41 40 41 41 42 42 42 40 40 40 40 39 40 40 38 35 34 33
31 30 28 28 26 23 22 22 19 32 34 38 42 42 43 42 40 38 39 40 41 44 46 45 43 42 43 43 44 44 42 40 39 39 36 33 31 29 30 30 39 41 40 41 38 37 36 34 31
30 27 23 20 24 23 27 24 21 28 34 38 41 40 41 41 39 40 39 39 41 44 44 42 40 40 41 42 40 40 38 34 30 27 25 26 23 24 27 32 35 38 40 38 38 36 37 32 28
29 26 23 17 22 15 27 20 20 31 33 38 40 38 39 40 41 40 40 40 41 42 41 41 39 38 36 34 31 30 27 24 23 26 27 25 26 26 32 35 37 39 39 38 38 37 34 32 29
27 27 29 28 29 27 20 25 29 32 32 35 38 37 38 39 41 40 40 40 40 40 42 39 33 29 29 30 29 29 29 29 29 30 30 27 29 26 33 39 39 39 39 38 37 33 31 30 28
27 28 26 29 24 18 16 21 18 31 32 35 36 37 38 39 41 41 40 40 39 39 36 35 30 28 28 27 28 27 28 29 31 31 30 29 30 31 33 36 38 39 39 37 33 30 27 26 26
27 25 25 25 28 15 12 10 29 30 33 35 36 38 38 40 41 41 39 39 39 35 33 30 29 28 27 26 28 30 30 30 30 30 30 29 32 30 31 34 36 37 36 32 32 33 25 24 25
28 25 22 21 20 28 30 14 27 33 34 35 36 37 39 41 41 39 37 38 36 33 29 29 29 27 25 26 27 28 29 29 29 30 29 31 31 32 31 32 33 35 33 32 33 30 23 24 24

GFSSGP_sfc_dewp_015.txt.gz
Dewpoint
52 44 29 16 18 18 17 17 19 41 45 50 51 48 49 52 53 51 59 63 64 65 64 65 70 70 70 70 71 71 70 69 68 67 66 65 64 65 64 64 65 62 59 58 58 57 57 59 60
42 27 16 19 16 14 14 15 18 46 50 48 47 48 46 50 57 61 61 63 64 65 64 64 70 70 70 70 70 70 69 69 67 66 65 64 64 63 63 62 63 60 58 57 56 56 59 59 59
30 17 15 14 17 14 15 18 42 45 46 46 45 45 44 47 55 59 61 63 65 66 65 66 69 69 69 69 69 70 70 69 68 67 64 64 62 62 62 61 60 60 59 59 58 58 59 60 61
20 14 19 19 19 18 15 34 43 41 42 44 45 45 46 51 52 59 64 66 66 66 66 68 68 69 69 69 69 69 70 69 68 67 64 63 61 60 60 60 60 60 60 59 59 59 60 61 62
18 13 12 15 18 20 16 38 40 45 45 42 41 42 41 51 55 60 63 66 67 67 68 66 68 68 68 68 69 70 69 69 68 66 64 62 59 59 59 60 61 61 60 60 60 60 61 61 61
10 15 13 14 18 17 19 37 44 41 41 40 43 42 47 55 57 61 65 62 67 68 67 67 68 68 66 68 69 69 69 68 67 66 64 61 60 60 60 60 60 60 60 61 60 61 61 62 62
13 12 12 16 19 26 26 43 47 44 45 38 51 44 54 56 60 64 65 59 64 66 67 66 66 66 68 68 68 68 68 67 67 65 64 62 61 62 61 61 61 61 61 61 61 61 62 62 62
13 15 12 15 24 41 38 38 41 38 44 53 46 46 51 57 63 65 65 66 66 67 67 67 66 65 66 67 67 67 67 66 66 64 63 62 62 61 60 60 62 62 62 62 63 63 63 63 63
19 15 10 17 32 39 35 33 37 41 42 50 48 48 55 61 63 63 64 65 66 66 66 66 65 65 65 65 66 66 66 66 65 64 62 60 57 56 57 61 62 62 62 62 62 62 62 63 63
13 11 13 32 45 37 36 36 38 38 40 46 49 53 58 60 60 60 61 62 62 63 64 66 65 63 62 57 60 58 55 55 57 58 58 55 59 58 54 59 61 61 61 62 61 60 61 60 48
14 17 21 34 30 35 34 35 35 38 44 44 49 54 56 59 59 59 59 58 58 62 63 64 66 66 59 57 55 53 53 57 60 61 59 60 58 59 57 55 55 56 57 52 53 51 50 52 51
17 18 22 31 26 26 27 30 35 48 48 50 50 54 53 57 59 56 53 51 53 57 62 64 64 64 59 55 52 54 55 57 57 59 60 61 58 59 58 54 55 56 53 53 52 50 52 51 48
20 22 21 26 31 29 34 40 33 37 39 46 54 54 52 54 52 50 49 50 52 53 58 60 61 60 59 56 56 59 60 61 61 62 62 62 60 60 59 61 57 53 52 51 51 49 47 46 46
19 20 16 22 26 28 30 29 27 36 40 46 49 46 46 47 46 46 46 48 50 52 56 58 57 59 57 58 61 59 58 58 58 59 60 60 60 60 58 55 54 52 54 49 47 45 45 43 44
16 14 17 23 25 26 32 18 28 39 40 42 42 44 45 45 44 44 45 48 50 52 56 58 59 58 58 60 59 59 60 60 58 57 60 60 59 59 57 54 53 53 52 49 47 46 43 41 39
14 15 17 20 24 24 22 15 29 36 39 40 42 44 45 46 44 44 46 45 48 52 58 59 57 59 60 60 60 60 60 59 56 54 55 53 52 54 52 51 50 47 44 43 44 42 40 40 39
14 10 14 17 19 22 17 17 31 34 37 39 42 46 46 46 46 49 49 47 47 51 57 60 61 61 61 61 61 60 59 56 54 54 51 51 47 47 48 45 46 47 43 43 42 41 42 40 39
12 9 10 13 16 14 7 19 28 32 33 39 40 44 45 46 47 50 51 50 50 52 58 60 61 63 61 60 60 58 56 53 51 50 47 46 44 45 46 44 46 44 41 41 43 44 42 40 37
12 8 6 9 14 11 11 19 21 32 33 35 36 40 43 45 49 51 53 56 55 57 58 61 61 62 60 58 56 52 50 50 49 46 46 46 44 42 44 42 43 43 42 43 43 42 41 33 34
10 9 13 16 18 23 15 18 24 30 32 35 36 38 40 44 48 52 55 57 57 58 59 61 60 60 57 54 51 50 50 50 45 44 45 43 44 42 41 44 43 43 41 42 41 40 37 34 34
14 10 18 16 21 23 19 22 28 30 33 38 39 39 41 45 48 52 55 56 57 58 59 58 57 55 52 51 51 51 50 46 43 43 41 43 44 42 42 43 43 43 41 36 39 38 39 34 34
19 21 19 17 22 17 20 13 25 31 33 35 39 41 43 45 48 52 54 55 55 55 55 53 51 49 50 48 45 45 44 43 44 42 42 42 43 43 40 39 40 41 39 38 37 34 37 37 32
28 25 23 21 20 22 19 16 31 31 29 33 37 40 43 47 50 49 48 48 48 50 50 49 46 44 45 46 47 45 44 42 41 42 41 41 37 33 29 29 32 35 38 39 40 40 38 35 34
28 26 26 24 21 23 16 18 20 28 28 33 38 42 45 46 45 43 43 44 44 46 47 47 44 44 45 46 46 46 43 40 37 33 28 26 25 25 27 27 32 34 36 39 38 38 38 39 37
25 25 20 17 21 21 20 19 19 21 29 31 38 41 44 44 41 39 39 39 43 45 46 45 43 42 44 43 41 39 34 32 28 27 25 26 25 25 28 32 34 34 35 37 37 40 39 39 34
25 22 21 15 18 12 23 17 15 27 26 30 38 40 43 41 39 38 39 41 43 45 44 42 42 41 39 35 32 31 28 29 26 27 28 26 26 27 30 31 35 37 36 40 40 40 41 38 33
23 24 25 25 27 24 16 14 21 30 29 32 37 40 40 39 38 39 40 41 43 43 43 44 40 35 32 32 32 32 34 31 30 30 30 27 29 25 29 32 34 35 39 39 40 40 37 36 32
28 26 23 23 19 18 12 14 10 27 28 32 37 39 39 39 38 39 41 42 42 42 43 41 36 32 33 31 32 32 31 30 31 31 30 29 30 30 30 30 31 33 39 39 39 35 32 31 30
27 23 23 24 28 21 14 12 21 19 28 31 34 38 39 39 39 40 41 41 41 42 40 37 33 34 31 30 30 32 30 30 30 30 30 29 31 30 29 30 30 31 32 33 34 32 32 33 28
28 26 25 26 20 25 29 16 22 26 28 32 33 36 38 39 39 41 41 41 41 40 36 34 35 32 30 29 30 30 31 29 29 29 29 30 30 30 29 30 30 29 29 32 31 31 30 29 26

GFSSGP_sfc_dewp_018.txt.gz
Dewpoint
51 43 39 30 13 20 17 15 16 32 46 48 47 45 50 53 54 52 64 63 63 63 65 67 70 70 70 70 71 71 70 70 68 67 67 66 64 64 65 65 64 63 59 57 57 59 58 58 59
37 37 34 15 12 14 14 16 31 46 48 46 47 46 47 53 58 61 63 63 63 62 63 66 70 70 70 70 70 70 70 68 68 66 65 65 63 63 63 64 64 63 60 58 59 59 59 59 59
48 36 11 11 14 16 13 22 36 46 46 45 44 45 43 52 58 60 64 66 64 62 63 67 69 68 69 69 69 70 69 68 67 66 64 62 61 61 61 64 64 62 60 59 59 60 61 62 64
28 18 13 16 15 16 16 31 43 41 46 45 44 43 44 50 55 61 66 68 67 65 65 68 67 67 68 68 70 69 69 68 67 66 65 61 60 60 62 64 64 61 61 60 61 61 62 64 64
27 14 9 10 14 15 21 36 45 46 48 48 50 38 42 51 57 63 65 66 67 67 67 67 67 67 68 69 70 69 68 68 67 66 64 63 60 61 62 64 63 62 61 61 61 62 63 64 64
15 14 11 10 11 18 24 41 43 45 48 50 50 40 47 54 58 64 65 67 67 67 68 66 67 68 68 69 69 68 68 67 66 65 64 63 63 63 64 64 64 63 64 64 63 63 64 64 63
19 11 9 12 13 23 42 44 42 41 45 47 50 48 55 53 61 63 63 64 65 67 67 66 67 67 68 67 67 67 66 66 66 65 64 64 64 64 64 64 64 64 64 64 64 64 64 64 64
15 14 12 12 11 39 42 48 44 40 40 47 46 45 51 61 64 62 62 62 64 65 66 66 66 67 67 65 66 66 66 65 65 64 63 63 63 63 63 63 64 64 63 63 63 64 63 63 63
12 11 12 14 27 42 44 37 37 43 45 42 50 57 56 62 64 61 61 62 63 62 65 66 66 66 66 65 65 65 65 65 64 62 62 61 59 60 60 62 63 63 62 62 63 61 61 62 62
13 15 15 41 43 45 47 43 36 37 46 46 50 55 59 60 61 62 62 61 61 61 64 65 66 66 66 61 63 62 60 59 61 59 60 61 61 58 54 61 62 62 61 61 62 61 61 61 52
15 13 14 41 44 43 45 39 38 37 39 48 56 53 57 58 59 58 59 61 61 62 63 64 65 65 60 59 60 57 59 61 62 62 62 62 62 62 61 62 60 61 61 58 58 56 55 52 53
14 12 17 36 42 41 39 40 37 35 40 46 51 52 55 56 55 55 54 59 60 61 63 63 63 64 60 58 57 59 60 62 64 65 63 64 64 63 62 61 59 58 57 56 56 54 53 50 50
14 19 20 38 41 40 40 38 40 39 40 44 48 51 52 54 50 49 49 53 57 59 62 62 63 62 60 60 62 62 61 60 61 61 62 62 62 61 60 59 57 58 55 54 52 51 49 48 47
17 20 21 27 40 32 39 34 43 42 44 46 50 47 49 48 46 47 47 51 52 57 58 60 59 60 60 62 61 59 59 60 60 60 61 61 61 61 58 58 56 54 54 51 50 49 48 47 46
19 18 17 23 25 32 34 36 30 44 45 45 42 43 44 43 43 44 48 50 51 55 57 59 61 61 61 62 60 59 60 61 58 60 60 60 60 59 57 55 53 52 52 50 49 47 46 45 42
17 19 19 20 23 27 32 21 28 37 38 38 39 40 41 41 41 44 48 49 50 54 56 58 58 60 62 61 60 61 61 59 58 57 57 55 54 54 53 51 53 51 50 48 47 46 45 44 43
17 13 18 21 21 22 22 20 26 35 37 40 41 43 42 42 42 45 46 47 51 56 58 58 61 61 62 61 61 61 60 58 56 57 55 53 50 50 51 51 51 49 48 48 47 46 46 44 41
15 13 14 16 16 21 16 21 26 29 41 39 39 41 44 44 45 48 49 49 48 57 60 60 62 62 61 61 61 60 59 57 56 54 51 50 48 49 50 51 48 47 46 46 47 46 45 44 40
18 15 13 12 16 15 12 18 24 28 32 36 39 42 44 45 47 50 54 55 57 59 60 62 62 62 60 59 58 58 55 54 54 49 50 49 47 46 47 48 48 47 45 46 44 43 40 40 40
14 14 11 12 10 12 9 15 18 26 29 34 36 41 43 45 48 51 54 57 58 59 61 62 61 61 60 59 56 54 53 54 49 49 48 48 48 46 44 47 46 46 45 44 44 41 41 39 39
14 16 19 13 13 8 26 14 17 22 28 30 33 36 38 44 48 51 54 57 59 61 61 59 60 61 60 55 53 53 51 50 48 48 47 47 47 45 44 45 45 45 43 42 42 40 40 38 37
19 25 21 18 21 16 24 18 22 31 25 28 33 36 38 42 47 51 54 57 58 59 60 59 59 56 53 53 52 52 48 46 48 47 47 46 45 43 36 37 40 40 43 42 42 38 40 39 36
25 28 25 19 16 29 29 24 30 35 34 30 35 39 41 45 47 50 53 56 56 57 57 55 52 50 50 50 52 50 48 47 46 45 43 40 37 36 33 35 39 39 39 40 42 42 39 38 38
29 28 25 19 20 30 28 28 27 32 33 34 33 38 42 45 49 51 52 52 51 52 53 52 47 46 49 49 49 48 45 42 37 36 35 34 34 34 36 35 37 39 40 39 41 41 40 39 39
21 19 21 28 27 26 19 23 32 32 36 46 45 38 43 48 49 48 46 46 48 49 50 49 46 45 47 47 45 42 39 38 37 33 34 33 33 33 35 35 37 38 39 41 41 40 39 40 39
28 17 25 27 29 22 26 21 17 32 33 42 40 41 45 46 46 44 43 44 45 47 47 46 44 44 44 41 37 38 37 36 36 36 32 33 33 33 34 35 36 38 39 40 40 40 40 40 38
17 22 23 23 35 27 17 13 23 26 27 25 38 41 43 44 42 41 41 43 45 46 47 47 44 42 38 37 38 39 37 36 37 36 34 34 34 29 34 35 35 36 37 39 40 40 40 39 38
25 23 26 26 25 21 14 14 21 27 27 29 35 40 42 43 41 39 40 44 45 46 45 48 44 38 36 37 38 36 37 38 36 35 34 32 33 34 34 34 34 35 36 38 39 39 38 35 35
25 21 22 19 32 31 27 16 21 22 26 30 33 41 41 42 40 40 40 43 45 45 45 46 40 35 36 35 37 37 37 37 37 34 34 32 34 34 33 33 34 33 33 33 34 35 34 33 34
24 27 22 36 27 34 36 22 23 25 24 31 32 36 41 41 41 40 41 43 43 44 44 41 38 36 36 35 36 36 37 36 34 33 32 33 33 33 32 33 33 33 33 34 33 33 34 33 31

GFSSGP_sfc_dewp_021.txt.gz
Dewpoint
55 50 44 38 21 19 18 17 26 45 47 49 47 54 56 57 56 51 65 65 66 67 69 69 70 70 70 71 71 70 70 69 67 67 67 66 65 63 65 65 64 63 60 60 60 60 59 60 60
43 35 36 33 10 10 14 20 45 47 48 47 45 49 52 56 60 63 64 65 65 67 67 68 70 70 70 70 70 69 68 67 67 66 65 65 63 62 63 65 64 63 61 60 61 61 61 61 62
48 45 33 16 10 10 13 32 45 45 47 45 44 43 49 57 61 62 63 64 65 65 67 68 69 69 70 70 69 69 68 67 66 65 64 63 62 63 63 65 64 63 61 61 61 61 61 62 64
38 27 16 12 12 15 15 34 45 46 49 49 48 42 47 57 60 64 65 64 64 66 67 67 67 67 69 70 69 68 67 66 65 64 64 62 62 63 63 65 64 61 61 61 61 61 62 64 64
35 25 10 10 12 16 25 45 46 47 48 49 49 42 46 58 65 66 65 67 66 67 67 66 67 67 68 69 69 68 67 66 65 64 64 63 63 62 64 65 64 62 62 62 62 62 64 64 63
30 17 11 8 7 24 45 46 46 46 48 50 48 49 52 62 64 66 66 66 66 66 66 67 68 68 68 68 68 67 66 66 65 65 64 64 65 65 65 65 65 64 64 64 64 64 63 63 63
25 19 13 9 9 29 47 50 46 46 48 47 52 49 56 60 62 64 65 66 63 63 63 66 67 67 67 66 66 66 66 65 64 64 64 64 64 64 65 65 65 64 64 63 64 64 63 63 63
20 18 15 12 13 41 45 48 50 44 44 49 47 45 53 61 61 62 62 63 64 62 62 63 67 65 65 64 65 65 64 63 63 63 63 63 63 64 64 64 64 63 62 62 63 61 62 62 61
20 12 9 18 41 41 47 46 49 47 45 46 51 57 59 60 61 59 60 61 63 62 61 62 66 65 65 63 63 64 65 63 62 62 62 61 59 59 61 62 63 62 61 61 62 61 61 61 60
18 14 15 41 46 44 42 43 46 44 47 49 46 55 60 60 59 58 58 58 60 58 61 63 64 65 64 60 62 62 61 61 59 58 58 57 59 59 59 61 62 61 62 61 60 60 62 60 52
17 14 37 41 43 44 44 44 46 40 47 48 50 54 59 59 57 57 58 58 59 61 63 63 64 65 61 59 60 59 58 60 61 60 60 60 61 60 60 60 60 59 60 56 57 54 52 47 48
16 16 28 39 43 43 45 44 40 39 48 49 52 56 58 56 58 56 57 58 60 61 62 63 64 63 59 60 58 58 61 62 64 62 61 62 61 60 58 57 57 56 55 52 51 50 47 46 46
16 18 38 40 44 42 42 38 40 39 45 51 55 55 56 56 57 58 59 60 61 61 62 62 63 58 57 59 61 60 60 60 60 60 60 61 59 58 57 57 56 53 52 48 47 48 46 45 43
19 18 38 40 42 41 34 38 41 41 45 49 50 53 53 48 50 58 58 60 60 61 61 61 60 57 60 59 58 58 58 58 59 60 60 60 60 57 56 53 50 49 49 49 47 45 45 43 42
22 18 21 36 41 39 35 38 40 42 43 48 50 51 52 46 47 51 57 58 60 60 60 60 57 60 60 58 58 58 59 58 58 58 58 58 57 55 53 51 51 49 47 46 44 45 44 44 42
18 21 21 24 34 38 33 32 38 43 43 48 45 45 45 44 45 49 50 56 56 57 57 58 58 61 59 59 58 59 59 57 55 54 54 53 53 52 50 51 47 46 47 47 46 45 44 44 42
23 15 20 22 24 30 28 25 40 44 45 43 41 41 41 41 44 47 48 53 56 56 57 56 58 60 59 60 59 59 59 55 54 54 52 49 49 49 49 48 46 45 46 46 45 44 44 42 40
19 17 17 20 22 23 22 24 40 44 44 45 45 45 45 42 44 45 46 51 55 57 59 58 60 60 60 59 59 59 57 55 55 52 49 47 46 46 48 47 47 46 45 44 42 42 40 41 38
19 16 16 16 18 21 22 24 30 41 42 43 45 48 45 45 47 47 49 49 58 58 58 61 60 60 60 58 58 57 54 53 49 47 46 46 45 46 45 45 45 44 43 42 42 40 38 38 39
23 21 19 17 15 14 20 22 25 41 43 43 47 45 45 45 48 50 52 54 59 60 60 60 60 60 58 58 58 55 52 50 47 47 46 45 45 43 44 44 43 43 42 41 40 39 38 39 37
25 25 20 17 12 11 20 18 22 26 29 39 44 42 42 46 49 51 53 55 60 61 60 60 59 59 59 59 52 50 47 46 45 45 44 44 44 43 40 39 38 39 41 40 39 39 38 36 36
19 27 27 23 22 16 24 20 29 29 28 30 38 45 44 48 49 52 54 58 60 60 60 60 60 60 60 55 49 45 44 44 46 46 45 40 35 33 32 35 36 36 37 35 40 39 38 37 35
24 26 28 27 24 27 26 22 27 33 25 29 32 36 40 47 49 52 55 58 59 59 59 59 58 54 51 50 50 47 44 44 41 38 33 30 33 32 32 34 34 34 38 37 38 39 39 39 37
29 29 31 29 25 24 27 27 29 30 27 33 35 37 40 46 50 52 56 56 56 55 53 49 47 47 46 45 45 43 41 33 32 30 30 30 32 34 33 31 34 36 37 38 40 38 38 39 38
30 24 25 22 26 25 31 28 28 33 32 35 37 36 41 49 51 52 52 51 50 48 46 44 46 45 43 40 35 34 34 31 29 29 31 30 30 31 30 32 33 34 37 40 39 38 39 38 37
29 26 27 23 27 27 32 28 27 29 33 36 39 40 45 48 49 48 47 48 47 46 45 44 45 43 42 38 34 33 31 32 32 32 31 32 31 31 31 32 32 33 35 39 39 39 39 38 37
26 26 30 34 35 32 31 25 27 33 37 40 39 40 45 46 45 45 45 46 45 45 45 44 43 41 36 34 33 33 33 34 33 32 32 32 31 28 31 32 32 33 33 37 38 38 38 38 38
27 27 26 30 23 20 18 20 27 30 31 35 40 41 44 44 42 42 43 44 45 46 46 44 42 37 36 35 35 33 33 34 33 33 32 31 31 30 31 31 32 32 32 33 38 38 38 35 34
26 24 24 25 29 24 23 20 22 26 29 31 39 42 43 43 40 40 41 44 45 45 45 45 40 35 34 33 35 34 34 36 34 35 31 31 31 31 30 31 31 31 32 32 32 32 32 32 33
25 31 33 26 20 28 26 23 23 21 26 29 31 41 43 42 40 39 41 43 45 44 44 44 36 34 34 34 35 34 35 35 34 32 32 32 31 31 30 30 31 33 32 30 30 31 32 33 30

GFSSGP_sfc_dewp_024.txt.gz
Dewpoint
55 50 43 38 23 18 16 16 17 36 45 49 55 56 56 58 56 48 64 66 68 68 70 69 70 70 70 71 70 69 69 68 66 66 66 65 64 64 65 64 64 64 61 61 60 60 60 61 61
46 39 36 32 12 8 9 16 38 47 47 46 45 53 56 57 62 63 63 66 68 69 68 68 69 70 71 70 69 68 67 66 66 65 63 64 63 63 65 64 64 64 61 61 60 60 60 61 63
45 44 39 28 11 8 9 29 46 47 47 45 43 44 54 59 63 63 65 67 67 67 67 68 69 70 70 69 68 67 67 67 66 65 63 63 63 63 63 64 64 64 61 60 60 61 61 63 64
39 28 24 10 9 11 13 22 47 47 47 49 45 44 51 61 62 63 65 66 66 66 67 68 69 69 69 69 68 67 66 65 65 64 65 63 63 63 64 65 64 62 61 61 61 61 62 63 64
36 23 12 14 10 30 45 46 48 48 50 51 47 45 52 62 64 64 65 65 66 66 66 66 67 68 68 68 68 67 66 65 64 65 65 65 64 63 65 65 64 63 61 61 61 62 63 63 64
31 19 11 9 11 42 47 50 47 49 50 50 48 52 58 63 63 65 66 65 66 66 66 66 67 67 67 67 67 66 65 65 64 65 65 65 65 65 65 65 65 64 64 63 63 63 62 62 63
29 23 19 15 15 18 46 50 47 47 47 49 50 49 58 61 64 64 62 63 64 65 65 65 65 66 66 66 66 65 64 64 64 64 64 64 64 65 65 65 65 64 63 63 61 61 62 61 61
27 20 16 13 17 37 44 47 47 45 47 49 52 48 53 60 63 62 62 62 61 62 62 63 64 65 65 64 65 65 63 63 64 64 64 63 64 64 64 64 63 63 61 61 60 61 61 60 61
19 16 13 11 40 40 45 46 47 46 46 46 52 57 58 60 60 60 61 61 60 60 61 63 65 64 64 63 63 64 63 63 63 63 63 61 60 60 61 61 62 61 61 61 60 60 61 61 58
20 16 16 31 44 42 42 43 44 45 47 46 54 58 59 58 57 58 58 59 59 59 60 61 64 64 63 60 62 61 59 59 58 58 58 56 57 58 60 62 61 61 60 61 61 62 58 54 49
20 17 32 41 44 43 41 43 45 47 48 47 54 54 57 57 57 56 58 57 57 59 59 60 64 63 61 58 60 59 59 58 58 56 57 59 59 60 60 59 59 58 57 53 52 49 47 46 47
18 17 34 40 44 43 43 43 39 39 48 48 58 57 57 56 56 55 57 58 57 59 59 61 64 63 60 58 58 57 59 62 62 61 61 60 60 57 56 56 55 53 51 48 49 48 46 44 43
17 27 38 41 42 42 43 40 40 46 47 51 57 58 56 56 56 55 56 58 59 60 61 62 63 63 59 59 59 60 62 60 60 60 60 59 58 56 56 53 51 50 48 47 46 45 43 43 41
22 35 37 42 39 38 36 40 40 46 49 51 55 56 56 56 56 54 56 58 60 61 61 62 63 58 59 60 59 58 58 59 59 60 60 59 57 55 52 50 49 48 48 46 44 43 43 42 41
25 31 38 41 39 37 37 35 38 45 49 50 51 54 55 57 55 55 57 59 61 60 61 62 58 60 59 58 57 57 58 58 57 58 58 57 55 53 51 50 48 46 47 45 45 44 44 43 41
20 21 29 37 40 37 33 30 37 44 47 49 51 52 50 57 56 57 58 60 60 60 60 60 60 59 58 57 57 58 57 55 54 54 54 54 53 51 50 47 45 46 46 45 44 44 43 42 39
22 14 19 31 38 36 32 30 37 43 46 47 45 46 46 53 56 57 58 59 59 59 59 57 60 58 58 57 58 58 56 54 53 53 51 50 49 50 48 46 45 45 45 44 43 42 41 40 38
18 16 17 20 22 33 26 28 41 43 45 44 44 45 43 47 50 56 58 58 58 58 59 58 60 58 58 58 58 57 56 54 54 51 49 46 46 48 47 45 45 44 43 42 41 37 38 38 38
24 23 16 16 20 22 24 37 41 43 43 42 44 46 45 45 47 51 56 56 56 58 58 59 59 59 57 58 57 56 54 53 51 46 46 45 46 45 44 45 43 43 42 41 40 38 36 36 37
29 22 21 21 19 17 24 33 41 41 40 40 43 46 47 46 46 47 51 55 56 58 58 59 59 59 56 56 58 56 53 49 46 45 45 44 44 43 43 43 43 42 40 39 39 37 37 38 36
27 23 24 21 11 18 19 20 38 40 42 41 44 45 45 45 46 50 52 55 57 57 59 59 59 58 57 56 56 51 48 46 44 43 43 44 44 40 38 37 36 36 37 36 37 38 36 35 36
24 24 26 23 20 12 21 17 27 32 38 41 42 45 42 46 47 51 55 57 58 58 59 60 59 58 58 57 53 50 47 44 44 44 44 38 34 35 35 34 35 35 36 35 36 40 38 36 35
24 28 26 26 24 24 23 20 21 30 27 38 42 44 41 43 48 52 58 59 59 59 59 59 59 59 59 52 50 47 45 45 45 41 33 32 33 34 34 34 34 36 37 37 39 38 38 38 37
27 28 30 31 28 24 29 22 22 29 25 29 37 43 43 44 49 53 58 60 59 59 59 58 57 52 52 51 48 45 41 38 35 32 31 32 34 34 32 33 33 34 37 39 38 38 38 37 37
28 24 21 20 23 22 31 27 26 29 32 30 32 36 40 47 51 55 56 58 58 57 56 52 47 44 43 42 41 38 34 32 30 30 31 32 32 32 31 32 32 33 37 39 38 38 38 37 36
28 25 23 17 23 24 32 28 26 29 31 34 35 39 47 49 52 54 54 52 52 51 48 47 43 40 36 35 34 34 32 32 32 33 33 33 32 32 32 32 32 33 33 37 38 38 38 37 36
29 25 29 31 34 30 29 29 27 33 35 34 39 42 48 49 51 51 50 49 48 45 46 45 42 38 35 33 33 32 33 34 34 33 33 34 33 31 31 31 31 32 32 31 36 38 37 36 36
31 27 25 29 25 24 20 21 27 31 33 36 39 39 46 48 48 49 48 47 45 44 44 44 41 36 34 34 34 34 34 33 34 34 33 33 33 32 31 31 31 31 31 33 35 37 37 36 33
28 24 25 27 27 22 22 20 21 30 31 31 36 40 45 46 46 47 47 46 45 44 44 43 39 34 32 32 33 34 34 35 35 34 34 34 32 32 31 31 30 30 33 32 31 30 31 32 33
30 27 28 24 19 27 25 22 25 25 28 33 38 40 45 45 45 45 45 46 45 45 44 43 39 34 32 33 34 33 34 35 35 34 33 34 33 32 31 31 30 31 33 31 29 30 31 32 30

GFSSGP_sfc_dewp_027.txt.gz
Dewpoint
53 48 41 36 21 18 16 16 17 18 45 53 56 55 57 58 54 47 64 65 68 68 69 69 70 70 70 70 69 68 68 66 65 64 65 64 64 64 65 65 65 64 62 61 61 61 61 62 64
45 40 36 26 12 9 9 14 17 41 48 52 49 54 57 57 61 63 64 67 68 69 68 68 70 70 70 69 68 68 66 65 65 63 64 64 64 63 65 65 65 64 63 61 61 61 61 62 64
43 43 38 23 10 8 9 17 45 48 50 48 45 49 56 59 62 63 66 67 68 68 67 68 69 69 69 68 67 67 67 66 65 65 63 63 64 63 64 65 65 64 61 61 61 61 62 63 64
39 33 22 11 8 10 11 24 46 47 48 49 47 46 57 62 63 64 66 67 67 67 68 68 69 69 68 68 68 67 66 65 65 65 65 64 64 63 64 65 64 63 61 61 61 61 63 64 63
33 21 13 9 8 19 45 47 48 47 49 50 49 53 57 63 64 65 66 66 66 67 67 68 68 68 68 68 67 67 66 65 65 66 65 65 65 64 65 65 65 64 62 61 61 63 63 64 63
30 18 11 9 11 27 46 49 47 49 49 49 51 54 57 64 63 63 64 65 66 66 66 67 68 67 67 67 66 66 65 65 65 66 65 66 65 65 65 65 65 65 64 63 63 62 62 63 63
27 23 19 15 15 17 45 48 46 47 47 47 50 52 58 61 62 63 62 62 63 64 64 66 65 66 66 66 65 65 65 65 65 65 65 65 65 65 65 65 65 64 63 62 62 62 62 64 63
29 22 18 14 12 34 43 46 46 46 47 51 51 52 55 60 62 62 61 61 61 62 62 62 63 63 64 63 64 64 64 64 65 65 65 64 64 65 64 64 64 62 61 61 62 62 62 61 63
20 18 14 13 31 37 45 44 47 47 46 54 57 57 59 61 61 59 58 59 60 60 61 62 62 64 64 63 63 63 64 64 64 63 63 62 60 60 59 62 61 61 60 61 62 61 60 57 59
21 17 17 17 41 40 43 43 44 44 47 53 56 59 60 59 59 58 57 57 58 59 60 61 62 63 63 60 61 59 59 59 59 59 59 57 58 59 59 61 61 61 61 60 59 57 56 51 48
20 19 19 39 44 43 40 43 44 46 45 51 54 56 57 57 57 58 59 58 58 58 57 60 64 63 61 59 60 59 57 57 57 57 56 57 58 59 58 58 58 53 55 49 48 46 45 44 44
20 19 33 38 43 42 42 41 39 44 48 54 54 56 56 56 57 58 57 58 57 57 56 58 62 62 61 59 58 57 58 60 61 58 60 59 57 56 55 54 52 50 49 48 47 46 43 42 42
18 18 24 40 43 43 43 40 42 46 55 55 56 56 56 56 56 55 56 56 57 56 56 58 62 62 60 58 57 59 62 60 60 60 59 58 56 55 54 51 50 48 47 46 45 43 42 41 40
22 33 39 40 41 40 39 42 42 45 57 56 55 53 51 55 56 54 57 58 58 57 58 60 62 62 59 58 59 60 59 59 59 59 59 58 56 52 50 49 48 48 46 45 44 43 43 41 39
30 36 39 39 39 38 41 39 41 45 54 56 54 54 53 55 56 54 56 57 58 59 60 62 62 59 59 58 58 58 58 58 58 58 57 56 54 51 49 47 46 46 45 44 43 43 43 41 38
20 27 25 33 39 39 33 31 40 47 49 52 55 54 54 55 55 55 54 57 59 60 61 62 61 59 58 57 57 57 56 56 56 56 56 54 51 50 47 46 46 45 45 44 43 42 41 40 37
21 16 22 31 39 36 32 31 39 45 47 49 51 55 55 55 55 54 54 57 60 61 61 58 59 58 57 56 57 56 54 53 53 53 51 50 51 48 46 45 45 44 43 43 41 39 39 37 36
21 18 17 23 32 37 33 28 40 44 48 49 47 47 53 55 55 55 56 59 60 60 60 59 58 57 57 57 57 55 53 53 53 50 48 47 49 47 45 45 44 43 41 40 38 36 37 38 38
25 24 22 20 21 32 32 28 39 43 46 45 46 46 47 54 55 56 57 59 59 59 59 59 57 57 57 56 56 54 52 53 51 48 46 46 46 45 44 44 43 42 41 39 38 37 36 37 36
28 26 24 23 20 23 24 30 40 43 44 44 44 46 44 51 51 55 57 58 57 57 58 59 58 57 56 56 56 55 53 50 46 46 45 45 44 43 43 43 41 40 39 38 38 37 37 37 36
27 26 24 23 16 22 24 25 39 41 41 41 41 44 44 46 47 50 55 56 56 56 57 59 58 57 56 57 56 51 48 45 44 43 43 43 44 40 38 36 36 35 35 35 36 38 36 35 35
25 27 25 24 17 13 18 14 25 39 40 40 40 43 45 44 46 47 53 55 56 56 58 59 59 58 57 56 56 52 50 45 43 43 43 35 36 35 34 34 36 37 37 36 37 39 38 36 34
25 27 26 27 23 23 25 20 21 35 37 39 39 40 45 45 45 47 49 54 56 57 58 59 59 59 58 57 56 53 49 45 45 42 34 33 35 35 34 35 35 36 37 38 38 38 37 37 36
27 29 28 30 27 22 27 22 21 28 32 36 39 39 43 42 47 52 55 56 57 58 58 58 58 58 58 56 54 51 45 43 40 33 32 34 34 34 34 32 35 36 39 38 38 37 37 36 36
27 24 19 18 22 21 29 26 25 25 29 30 33 36 42 44 48 55 57 57 57 57 58 58 57 54 54 52 50 46 43 42 38 31 32 33 32 32 32 33 34 35 39 39 38 38 37 36 35
29 24 22 14 21 21 31 27 27 30 31 32 31 35 39 45 48 55 57 58 58 58 57 57 53 48 47 45 43 38 37 38 34 32 33 34 33 33 33 33 34 33 33 37 38 38 37 36 36
30 25 28 30 31 27 25 29 23 30 33 38 38 44 45 48 51 54 57 57 57 56 53 50 46 41 41 40 36 35 35 34 34 34 33 34 34 33 34 33 33 32 31 31 34 37 36 36 35
30 30 25 28 23 22 23 21 21 29 30 38 39 42 47 49 52 53 54 53 53 51 49 44 41 38 38 36 36 34 34 34 33 33 32 32 34 34 33 33 32 31 30 32 33 37 38 35 33
28 25 26 27 26 20 20 21 23 26 30 30 32 39 46 49 51 52 52 51 50 48 46 43 39 35 34 34 34 35 34 35 33 32 33 33 33 33 33 33 32 30 31 32 32 31 30 31 32
30 29 27 24 19 26 25 22 24 24 28 30 31 37 41 48 49 50 50 48 45 45 45 43 40 36 33 36 37 34 33 34 33 33 33 34 32 33 32 32 30 30 32 32 30 29 29 30 31

GFSSGP_sfc_dewp_030.txt.gz
Dewpoint
53 45 40 31 21 17 16 14 17 16 48 55 57 57 56 57 52 47 64 66 67 68 69 69 70 70 69 69 68 68 68 67 66 65 65 65 65 65 65 65 65 65 64 62 62 64 65 66 67
42 38 35 24 13 9 6 13 25 44 48 51 48 56 57 57 61 62 63 67 67 68 68 68 70 69 69 69 68 67 66 66 65 65 65 65 65 65 66 65 64 65 64 61 61 61 62 63 65
40 42 33 19 11 7 8 13 46 47 50 47 45 52 57 59 62 63 66 68 68 68 68 68 69 69 69 68 67 67 66 66 65 65 64 64 64 64 65 65 65 65 64 61 61 61 61 63 64
38 35 17 11 9 9 10 16 44 46 48 48 47 51 60 63 63 65 67 68 68 68 67 69 68 69 68 68 67 67 66 65 65 65 65 65 65 64 66 65 65 65 64 61 61 61 62 64 64
29 22 14 10 9 10 36 46 47 47 49 49 50 54 56 63 65 66 66 67 67 67 68 67 67 67 68 68 67 67 66 65 66 66 65 65 65 65 66 65 65 65 64 63 62 63 63 63 64
28 18 12 11 10 13 44 48 47 48 49 50 53 54 57 63 63 63 64 64 65 65 66 66 67 67 67 67 66 66 66 66 66 66 66 66 66 66 66 65 65 64 64 63 64 64 64 62 63
27 22 19 14 16 20 42 48 46 47 47 47 52 52 58 60 61 61 62 62 62 62 65 64 66 66 66 66 65 65 66 66 66 66 66 66 65 65 65 65 64 64 63 63 63 64 64 62 62
28 22 24 15 12 22 43 46 47 45 46 52 54 52 54 59 60 60 60 60 60 60 62 61 62 62 63 63 64 65 65 66 66 65 65 64 64 65 64 64 63 63 63 63 63 63 64 61 61
22 18 15 13 21 32 45 44 46 52 53 55 57 56 59 60 59 59 58 59 59 59 60 60 60 62 63 62 63 63 65 65 64 64 63 62 61 60 58 61 61 61 61 62 61 60 59 59 59
22 19 17 18 24 39 42 43 45 47 51 53 56 60 61 59 58 57 56 56 58 58 59 60 60 60 61 62 59 59 60 60 60 60 58 58 58 58 59 61 62 62 60 60 58 56 54 50 46
20 19 19 22 40 42 40 42 45 46 45 52 53 58 58 58 58 57 56 56 56 57 58 60 60 60 61 60 59 58 57 57 58 57 56 57 58 58 58 57 54 52 52 47 45 44 43 43 42
20 20 22 32 44 42 41 41 43 46 49 54 56 57 56 56 57 57 57 57 57 56 57 58 60 61 61 59 58 57 56 56 57 56 57 58 58 56 55 54 50 49 48 46 45 44 43 42 40
19 19 26 38 43 43 42 43 47 52 54 55 56 56 56 57 56 57 58 57 57 55 56 59 60 62 60 58 57 57 59 59 58 58 59 57 56 54 52 50 48 47 46 45 44 43 41 40 38
22 26 36 41 42 42 43 44 45 53 54 54 55 54 54 55 55 55 56 56 55 54 55 57 60 62 60 57 57 59 59 59 59 59 58 56 55 51 49 48 48 46 45 44 43 43 41 39 37
32 34 37 40 39 37 41 37 43 54 54 53 53 50 52 54 55 55 56 55 54 55 55 58 61 62 59 58 58 59 58 58 58 58 57 55 52 50 47 47 46 45 44 44 43 42 41 38 37
22 28 23 39 40 38 33 33 45 54 53 53 53 53 52 54 55 54 56 56 57 57 59 61 61 60 58 57 58 58 57 57 57 56 55 54 51 49 46 46 45 45 44 43 42 40 39 38 37
20 16 19 33 39 37 33 31 43 51 53 52 53 53 54 54 55 55 54 56 57 59 60 61 60 58 57 57 57 56 55 55 55 54 53 51 49 46 46 45 44 43 42 42 39 39 38 36 37
21 21 25 22 33 37 33 30 41 46 48 52 53 54 55 54 54 55 54 56 58 60 60 60 59 57 56 56 55 54 53 53 52 50 49 50 47 46 45 44 43 42 40 38 37 36 38 38 37
25 25 24 22 23 35 35 33 39 43 47 49 50 52 54 55 55 55 54 57 59 59 59 59 57 56 56 56 54 52 52 52 50 48 47 48 46 44 44 43 42 41 39 39 38 37 36 36 35
27 25 23 23 20 31 31 33 38 43 46 48 47 48 50 52 55 54 55 58 59 59 59 58 58 57 56 55 54 53 53 51 48 46 46 45 45 44 43 42 41 39 38 37 38 37 37 37 36
25 25 25 23 18 23 26 26 39 41 42 43 45 46 47 47 53 54 56 57 58 58 59 59 58 57 56 56 54 50 50 46 44 43 43 43 44 42 39 37 36 35 35 35 37 37 36 35 35
24 27 27 24 17 15 21 15 22 38 41 41 41 42 44 45 50 52 55 57 57 58 58 59 58 57 56 57 54 51 51 47 46 43 43 37 37 36 35 36 37 37 37 37 39 38 38 36 34
25 28 27 26 23 23 24 20 20 36 38 40 42 41 42 45 45 49 51 56 57 56 57 58 58 57 56 57 55 53 51 50 47 43 34 35 35 35 35 36 36 37 38 39 39 38 37 37 36
29 28 24 28 25 21 25 23 22 27 35 39 41 42 41 43 45 46 48 53 55 56 56 58 59 58 57 56 54 52 49 48 44 40 35 37 34 35 34 34 35 37 40 38 38 38 36 36 36
27 22 18 16 22 21 28 26 25 25 27 34 38 39 40 42 45 49 51 53 55 56 57 58 59 57 57 56 54 52 50 47 43 35 34 32 33 35 34 34 34 37 40 39 38 37 36 36 35
27 24 21 12 19 17 29 23 21 29 30 32 31 32 37 43 43 50 53 54 55 56 56 58 58 57 56 55 53 51 48 46 42 35 33 32 33 33 33 35 34 34 38 38 38 38 37 37 36
28 24 26 28 29 26 24 25 23 28 33 36 36 38 37 44 44 49 54 55 56 56 56 58 56 56 54 53 50 47 45 43 38 40 35 34 34 33 34 34 36 35 33 34 36 38 37 37 36
29 31 25 27 21 21 22 21 20 22 29 35 37 40 41 45 48 51 54 56 56 56 57 56 54 52 50 49 45 43 43 43 41 36 36 37 37 33 35 36 34 33 33 34 34 35 37 36 36
27 26 26 27 25 20 19 20 24 22 27 30 33 38 40 47 49 52 54 55 55 54 52 52 48 44 43 43 41 40 41 40 40 38 38 34 34 36 36 34 33 32 32 33 33 35 35 33 31
28 27 28 25 21 26 24 22 25 22 24 27 27 31 38 45 49 51 51 51 51 51 50 49 44 40 39 39 40 41 40 40 37 34 33 34 34 35 33 34 32 32 32 33 32 30 29 30 31

GFSSGP_sfc_dewp_033.txt.gz
Dewpoint
55 43 40 30 22 20 14 12 17 20 45 54 57 54 53 55 51 48 64 66 68 67 66 67 69 69 69 69 69 68 68 68 67 67 67 66 66 66 66 66 65 66 66 66 66 66 65 65 66
42 36 35 25 15 8 5 14 31 43 48 52 53 57 55 57 59 61 63 67 68 67 66 65 69 69 69 68 68 68 67 67 66 66 66 66 67 66 66 65 65 65 65 64 65 66 66 66 67
40 39 33 24 15 8 9 13 43 47 48 48 48 57 57 57 61 63 66 68 68 67 66 66 69 68 68 68 67 67 66 66 66 66 66 66 67 66 66 65 65 65 65 62 62 63 65 66 66
38 36 20 16 14 12 11 17 45 44 47 48 52 54 59 63 63 65 67 68 68 68 66 68 68 68 68 68 67 66 66 66 65 65 66 66 66 66 66 66 65 65 65 61 61 63 63 64 65
28 25 20 12 10 10 16 45 48 47 47 50 52 53 55 62 66 66 67 67 67 67 68 68 67 68 68 68 67 66 66 66 65 66 66 66 66 66 66 66 65 65 65 63 62 63 64 64 64
28 21 16 10 9 13 25 48 47 47 49 50 53 52 57 63 63 63 63 64 65 66 67 67 68 67 67 67 66 66 66 66 66 66 66 66 67 66 66 66 65 65 65 65 64 63 64 63 63
28 23 17 15 17 17 39 48 46 47 48 48 53 51 57 60 61 61 61 62 63 63 65 66 66 65 65 66 66 66 66 66 66 66 66 66 66 65 65 65 64 64 64 65 65 63 63 63 63
28 24 18 17 13 14 42 45 47 47 47 53 54 51 53 58 60 60 60 61 61 61 62 62 62 63 62 63 65 66 66 66 66 66 65 65 65 65 65 64 64 64 64 64 65 63 62 62 61
23 21 17 15 15 27 44 43 47 53 53 54 55 56 58 59 59 58 58 58 59 59 58 59 59 60 62 63 64 65 66 65 65 64 64 61 57 58 57 61 62 63 63 62 62 60 59 58 57
25 22 18 19 18 36 42 43 45 49 52 52 56 59 59 58 57 56 56 55 56 56 57 58 59 60 61 58 60 62 62 61 61 59 60 58 60 58 57 60 63 61 59 58 57 55 53 50 44
23 21 21 20 23 42 40 42 45 48 47 52 53 56 57 56 56 56 57 56 55 55 56 58 57 58 61 61 58 59 59 59 60 60 59 60 60 59 58 56 52 52 52 45 46 44 42 45 43
22 22 21 28 43 42 40 41 45 47 47 53 56 57 57 56 56 54 56 56 56 56 58 59 59 57 60 61 58 58 56 58 59 58 59 60 59 59 57 52 51 50 48 48 47 45 46 45 44
22 21 23 25 42 43 44 44 46 50 55 57 57 56 56 56 56 56 56 56 56 55 56 57 59 58 60 60 58 57 57 56 57 57 59 59 58 58 53 52 50 48 47 47 46 45 43 43 41
23 25 37 41 42 42 46 48 47 51 54 54 56 55 56 56 56 57 57 56 53 54 55 56 57 60 61 59 58 57 59 59 59 59 60 59 57 55 52 50 48 47 47 46 45 44 41 40 40
30 33 37 39 41 40 42 38 46 52 54 53 54 52 54 55 55 56 57 57 52 52 54 57 60 63 61 59 58 60 61 61 59 60 59 58 55 54 52 49 48 47 48 47 46 43 42 40 38
23 27 23 36 41 40 34 34 50 52 51 50 51 51 51 53 53 55 56 56 53 54 55 57 59 62 62 59 59 61 61 61 61 61 60 56 53 53 52 49 48 47 47 45 43 42 40 39 38
23 17 20 31 39 38 35 34 48 52 51 49 50 50 50 53 54 54 56 55 53 54 56 57 60 62 62 60 60 61 60 60 60 60 59 56 52 50 50 48 48 47 44 44 41 41 40 37 38
22 22 22 24 34 36 34 32 47 52 51 50 50 50 51 51 52 55 55 55 54 56 58 58 60 62 62 59 60 59 58 58 59 58 56 54 49 49 49 47 47 45 42 41 40 41 41 41 40
25 24 23 23 23 34 35 33 42 50 52 52 52 53 53 52 52 55 56 56 56 58 58 60 61 61 60 58 57 57 57 57 55 53 53 52 49 48 48 45 45 44 42 42 43 40 40 39 40
27 25 23 24 23 31 29 33 38 45 49 49 50 52 52 53 54 55 56 55 57 57 59 60 61 60 59 58 57 57 56 56 52 50 52 49 49 47 47 46 44 43 41 42 42 41 39 39 40
26 25 25 24 20 24 25 26 37 41 44 46 48 50 51 52 53 55 55 55 56 57 59 60 61 60 59 59 57 54 54 53 49 47 48 47 47 46 45 45 43 41 38 38 41 41 40 36 38
24 27 25 25 20 16 23 16 20 39 42 43 45 48 49 50 51 54 55 55 56 58 60 61 60 59 59 58 57 54 54 52 51 49 48 46 47 45 41 39 40 40 39 40 40 40 41 40 36
26 29 27 25 22 25 25 19 21 35 38 42 44 45 47 48 49 51 54 55 56 58 60 61 60 59 59 58 58 57 56 54 51 48 46 43 42 40 38 39 41 40 39 42 43 43 41 40 37
29 28 24 28 27 23 25 23 22 24 31 37 42 45 45 45 47 48 52 55 57 60 60 61 60 59 59 58 58 57 55 51 49 45 43 40 39 38 39 38 39 40 41 42 42 42 42 39 38
27 25 22 16 23 21 29 26 25 26 27 32 36 41 45 46 46 47 48 52 56 58 59 60 59 59 58 58 58 56 53 50 48 43 43 41 38 36 38 38 39 40 42 42 41 41 41 40 38
28 27 25 15 19 16 29 25 18 28 30 31 32 33 36 44 46 46 47 49 53 57 58 59 59 58 57 58 57 56 53 52 48 45 45 42 39 35 38 37 39 40 41 41 41 40 40 41 40
27 26 27 29 31 27 25 25 25 24 27 35 37 38 37 36 42 44 46 49 52 56 57 59 58 58 59 58 57 56 54 52 49 46 45 43 39 35 38 39 38 38 38 39 41 38 39 41 42
29 30 28 29 22 21 22 23 21 23 24 31 34 37 40 42 43 45 48 52 53 56 57 59 58 57 58 58 57 56 55 52 51 48 45 41 39 36 38 38 37 36 36 36 37 37 38 39 40
29 29 28 28 28 23 21 21 28 27 25 32 32 35 39 43 47 47 50 54 56 56 57 58 58 58 57 57 56 55 54 52 50 46 45 42 40 37 36 37 36 35 36 35 36 36 36 38 39
29 30 30 30 24 27 27 23 27 29 27 28 31 30 35 40 46 50 52 55 56 56 56 57 57 56 55 54 52 52 51 49 47 46 44 43 38 37 36 36 34 33 34 35 35 35 34 37 36

GFSSGP_sfc_dewp_036.txt.gz
Dewpoint
53 39 33 31 19 13 11 7 13 26 28 50 54 51 45 54 46 46 63 66 65 63 62 66 69 70 70 70 69 69 69 68 68 67 67 67 67 67 66 67 67 68 67 66 66 65 66 64 65
34 30 32 24 11 8 7 11 18 32 42 49 53 54 52 54 56 60 63 66 66 64 62 62 69 69 69 69 69 68 68 67 67 67 67 67 67 67 67 67 67 68 68 67 65 66 66 65 66
36 35 25 18 10 6 8 15 27 38 45 48 48 55 55 56 58 61 64 67 66 65 63 63 69 69 69 68 68 67 67 67 67 67 67 67 67 67 67 67 66 66 67 66 66 66 66 66 66
32 31 22 12 8 9 9 24 41 42 45 47 50 52 58 62 63 63 66 68 67 66 64 68 68 68 68 68 67 67 66 66 66 67 67 67 67 67 67 66 66 65 65 63 65 65 65 65 65
28 24 15 11 9 7 14 29 44 42 45 47 50 51 55 62 65 66 66 68 67 67 67 66 67 68 68 68 67 67 66 66 66 66 67 67 67 67 67 66 66 65 65 64 63 64 65 65 65
24 21 13 8 5 13 24 40 45 45 47 49 49 51 56 63 62 63 66 67 67 67 67 67 67 68 67 67 67 66 66 66 66 66 66 67 67 67 67 66 66 66 65 64 65 65 64 64 62
23 17 11 10 19 23 38 45 44 45 46 48 52 50 58 60 61 62 63 64 66 67 67 66 66 65 65 66 66 66 66 66 67 67 67 67 66 65 65 65 65 65 65 64 64 64 64 62 61
24 20 13 18 18 24 39 44 46 46 47 53 53 50 54 59 60 62 62 62 63 64 65 63 62 62 62 63 66 66 66 66 67 67 66 65 65 65 65 64 64 65 65 64 63 64 63 60 59
24 16 14 18 20 24 38 40 47 50 50 52 55 55 58 59 59 59 59 59 60 61 61 61 60 60 60 60 65 65 66 66 65 64 64 60 52 53 55 62 64 64 64 63 61 60 60 59 57
22 17 13 17 18 21 36 40 44 47 49 51 56 58 59 58 58 58 57 56 57 58 59 60 58 58 59 58 61 63 61 59 59 57 55 53 57 57 54 61 62 61 61 60 57 56 55 53 46
22 18 19 18 21 23 34 40 44 45 45 48 53 56 57 57 56 56 56 55 55 56 57 58 59 60 59 58 61 60 59 60 60 61 59 59 57 59 57 57 53 53 55 47 48 47 46 48 45
21 22 22 21 30 34 36 41 43 46 51 52 56 56 56 56 56 54 54 54 54 54 55 56 57 57 58 60 57 58 56 57 58 58 59 59 56 58 57 54 53 52 50 51 49 48 49 47 46
23 22 24 28 30 40 41 40 43 49 53 56 57 57 56 55 55 55 54 54 52 50 52 55 57 57 58 59 54 56 56 55 55 55 54 53 54 58 56 54 52 51 50 50 49 47 46 46 45
25 27 35 34 39 42 41 43 44 49 53 54 54 55 55 55 54 54 53 53 52 49 52 54 54 55 54 53 56 55 55 55 55 56 57 59 56 58 55 54 51 50 49 49 48 46 44 43 43
26 32 30 35 40 40 40 37 42 48 51 52 50 50 54 53 55 55 55 54 53 53 54 54 55 55 55 56 55 53 54 54 54 57 62 60 59 58 56 53 51 50 50 50 48 46 45 43 39
24 28 27 34 36 38 40 33 46 46 46 46 47 49 50 52 54 55 55 52 53 53 53 54 55 58 60 60 57 53 56 56 56 59 60 60 57 57 56 53 51 50 49 47 45 44 42 40 37
22 18 21 30 34 36 37 31 44 47 43 45 44 44 47 50 50 54 52 49 50 51 53 53 56 58 61 61 57 57 59 60 59 62 60 59 56 55 54 52 51 51 47 47 44 43 41 37 36
18 18 21 27 34 35 33 29 43 48 45 45 45 43 44 46 47 51 53 51 51 52 54 55 57 59 62 60 58 55 59 61 61 61 59 58 54 54 54 52 52 48 45 45 43 42 39 36 36
21 20 18 21 26 29 26 26 38 46 47 46 47 47 44 45 47 50 51 53 52 54 55 56 57 60 62 58 54 54 57 59 60 60 59 58 55 53 53 50 49 47 45 45 45 40 37 37 39
25 20 20 22 23 26 24 23 30 43 48 48 47 48 48 48 46 50 53 52 53 53 55 57 57 59 60 58 54 56 58 59 58 57 57 56 54 52 51 50 48 47 45 46 44 39 38 39 38
25 22 21 23 22 24 23 22 30 37 43 46 47 47 47 47 49 51 52 55 54 53 55 55 57 59 61 59 56 56 58 59 56 54 54 53 53 50 48 50 48 48 45 42 41 40 41 39 39
22 24 24 24 22 17 23 14 23 30 37 41 44 45 47 46 47 49 53 54 55 55 56 56 56 58 60 60 57 56 54 56 57 55 52 51 51 50 47 48 48 46 42 40 39 40 42 41 38
23 28 26 25 23 24 22 15 20 28 30 34 41 43 44 46 46 48 49 53 54 55 56 58 58 58 60 61 60 58 57 58 58 54 52 52 52 50 47 46 45 44 40 40 42 43 42 41 36
29 27 26 28 25 22 20 20 17 20 21 23 31 40 44 45 46 47 49 51 54 56 57 59 59 58 60 61 61 60 59 58 57 53 51 50 49 49 46 42 43 43 40 42 45 44 44 39 37
28 25 21 18 21 20 26 23 20 20 21 25 28 30 39 44 46 47 48 50 52 55 58 59 59 59 60 61 60 60 59 59 56 54 52 49 46 46 45 44 42 40 41 45 43 44 41 40 37
26 24 23 17 18 14 26 18 18 22 26 30 33 33 34 40 44 46 47 49 51 55 58 59 60 59 60 60 60 60 60 59 56 55 50 46 45 44 45 42 41 40 43 42 43 39 43 40 38
27 25 25 26 31 24 19 20 22 21 25 28 31 35 35 35 36 42 45 47 50 53 58 59 59 58 60 59 57 58 59 58 56 54 49 47 47 45 43 42 41 42 41 42 40 39 39 38 41
29 28 26 28 22 18 17 19 16 19 19 23 24 27 34 38 38 40 42 45 48 51 55 59 59 58 59 56 58 57 58 57 57 55 51 50 49 46 42 42 40 41 41 39 39 39 37 39 40
29 27 28 26 27 21 19 18 22 21 21 23 26 30 32 35 41 43 45 47 50 51 54 56 58 57 58 56 58 59 59 58 58 56 53 52 50 46 42 41 40 38 38 36 37 35 36 36 35
25 24 27 27 22 27 29 21 23 25 27 27 29 28 32 36 39 45 48 51 53 53 54 55 56 56 57 58 59 58 58 58 57 55 53 52 48 46 42 41 38 38 35 34 34 35 31 35 36

GFSSGP_sfc_dewp_039.txt.gz
Dewpoint
55 45 33 26 19 14 10 9 8 13 17 31 42 43 27 44 40 43 64 66 62 63 64 68 70 71 71 71 70 70 69 68 68 68 67 67 67 67 68 68 68 68 67 66 65 64 63 63 63
38 26 24 21 14 7 7 7 8 11 33 46 50 49 46 50 55 59 63 65 63 64 63 68 70 70 70 70 69 69 68 68 68 67 67 67 68 68 68 69 69 68 68 66 65 64 64 64 64
35 27 23 19 13 5 8 10 11 29 35 42 42 50 52 54 57 58 62 66 64 63 62 68 69 69 69 69 68 68 68 67 67 67 68 68 68 68 68 68 69 69 68 66 65 64 64 64 66
30 27 20 8 8 7 9 15 27 30 34 40 41 49 54 56 57 61 64 67 66 64 65 68 68 68 69 68 68 67 67 66 67 67 68 68 68 67 67 67 67 68 68 66 65 64 64 65 65
23 20 13 13 9 8 9 14 30 33 40 43 45 47 54 62 64 64 66 68 67 65 66 67 67 68 68 68 68 67 67 67 67 67 67 67 67 68 67 66 66 66 67 66 64 63 64 65 64
22 17 12 8 6 7 17 30 33 39 42 44 44 49 56 62 62 64 67 67 68 66 67 67 68 68 67 67 67 67 66 67 67 67 67 68 68 67 67 67 66 66 66 66 65 65 64 63 61
21 16 12 8 11 25 32 38 38 38 40 44 49 48 57 60 62 64 65 67 67 67 67 67 66 66 67 66 66 66 66 67 67 67 67 67 66 66 66 66 65 65 65 65 65 64 63 61 61
19 16 11 11 22 32 35 38 42 42 44 51 50 47 51 59 61 62 62 62 65 66 65 66 66 66 66 66 66 66 66 67 67 67 66 65 65 65 65 65 66 65 65 65 64 63 61 59 59
18 15 11 15 16 24 31 35 44 47 46 50 54 57 58 60 61 60 60 60 60 62 63 62 62 62 63 64 65 66 67 66 65 64 63 60 53 54 57 64 65 65 64 64 63 62 61 60 58
18 16 12 17 17 20 24 34 40 42 45 50 54 57 58 59 59 59 58 57 58 59 60 60 59 59 58 60 64 63 62 59 59 57 58 53 58 57 57 62 63 63 62 61 61 60 60 58 46
19 18 16 16 23 23 25 34 40 41 40 48 54 56 57 57 57 57 57 57 57 58 57 58 58 58 57 57 61 61 59 59 59 58 60 61 60 60 60 59 56 57 57 49 49 49 49 50 47
18 19 19 19 21 27 32 37 39 44 49 53 55 56 57 56 55 55 55 55 55 56 56 57 58 57 58 58 58 60 60 60 60 58 60 62 60 62 59 56 55 55 52 52 51 50 52 49 47
21 21 23 26 28 31 37 37 39 46 52 55 56 56 55 55 53 54 55 54 54 54 55 56 56 55 56 57 59 60 58 57 57 58 58 58 59 61 56 55 54 53 53 52 51 50 48 47 46
24 23 28 29 33 37 37 39 41 47 50 52 54 55 56 54 53 53 53 50 52 53 54 55 56 58 57 56 57 57 55 53 55 56 56 56 54 60 55 56 53 53 52 51 50 49 46 43 43
23 25 26 29 32 34 38 37 39 46 49 48 46 49 53 55 53 52 51 49 50 51 54 55 56 56 56 55 56 51 51 50 52 53 60 57 56 61 58 55 54 53 52 52 51 48 45 43 39
21 25 26 28 30 31 40 38 41 44 45 43 43 47 51 52 53 52 52 49 48 49 49 50 50 54 56 54 55 51 54 55 53 55 59 60 58 59 59 55 54 53 53 51 49 45 43 41 38
21 18 25 27 29 31 36 40 41 43 42 41 43 43 44 49 49 51 54 51 50 50 51 49 54 53 57 56 56 53 53 53 49 55 60 60 58 58 58 55 54 54 51 50 48 45 42 40 37
17 16 20 35 29 30 28 29 40 42 42 42 39 38 41 46 48 49 49 51 52 52 51 51 55 57 59 57 58 53 52 55 57 60 60 60 57 57 57 55 55 53 50 49 46 45 42 39 39
20 16 17 26 28 27 28 25 35 42 41 43 43 40 41 43 46 49 48 50 50 52 51 53 54 57 58 56 52 51 51 53 59 62 59 60 57 57 57 55 55 52 49 48 48 45 42 39 42
21 18 17 17 20 23 22 20 24 39 41 41 42 42 40 41 43 48 50 49 51 51 52 52 53 55 57 56 52 50 52 53 55 58 60 59 59 56 56 55 53 52 48 49 48 44 40 42 43
19 19 18 18 22 22 21 18 19 30 39 42 42 42 42 41 41 45 48 50 52 52 54 54 54 56 59 57 53 51 53 56 56 56 56 58 58 55 54 54 52 51 49 48 48 44 44 43 43
19 19 21 21 21 18 21 17 26 23 31 39 42 42 41 42 42 42 47 49 51 53 55 55 55 56 59 60 56 53 52 55 57 57 56 55 56 55 52 52 53 52 49 47 46 42 45 45 43
22 25 23 23 21 21 18 14 21 18 22 28 36 41 41 41 42 43 45 48 51 52 55 56 55 55 56 60 60 55 54 55 58 57 57 57 54 53 53 52 53 51 47 49 48 45 47 45 44
23 26 25 24 23 22 19 17 18 19 18 19 27 35 39 40 41 41 43 47 48 51 55 58 55 54 55 60 60 60 57 58 60 58 56 55 54 53 53 50 53 49 48 49 44 47 46 46 44
25 25 22 20 22 22 19 18 18 30 19 20 22 28 37 39 40 40 41 43 48 51 55 56 55 55 56 58 61 62 61 61 60 59 58 56 55 54 53 51 49 48 47 44 46 47 47 46 41
25 24 24 29 23 18 23 16 15 20 21 22 22 26 28 37 40 39 39 44 47 51 54 55 55 56 57 60 61 61 59 58 60 60 59 57 55 52 50 48 47 46 46 45 47 46 45 44 43
24 23 24 26 26 23 18 18 18 16 17 21 23 31 33 31 37 39 39 40 46 49 54 58 56 57 59 61 61 60 60 59 60 60 59 57 52 48 48 47 45 46 45 46 46 45 43 43 44
25 28 25 25 22 22 17 17 17 19 18 19 19 23 31 34 33 36 39 41 43 47 50 58 58 57 59 61 60 60 59 60 60 59 58 55 51 49 48 47 45 46 45 43 44 40 41 41 41
26 27 26 25 25 25 23 18 22 21 21 19 21 23 26 29 37 39 40 40 43 46 49 53 57 57 59 60 60 57 57 58 59 59 57 53 51 49 48 46 45 44 44 44 41 40 39 38 41
24 25 26 29 24 27 28 23 23 23 23 24 24 25 26 30 33 40 43 45 46 47 48 52 56 57 57 60 57 56 58 58 59 58 57 55 53 51 50 46 44 44 42 40 38 37 36 35 38

GFSSGP_sfc_dewp_042.txt.gz
Dewpoint
55 47 43 35 21 19 13 10 10 7 18 42 46 47 42 52 34 44 60 61 63 67 69 70 70 71 71 71 71 70 69 69 69 68 68 67 68 68 68 68 68 69 67 64 64 63 62 61 62
40 38 29 21 18 15 9 13 8 18 41 41 39 50 46 53 58 58 62 64 67 66 68 70 71 71 71 70 70 69 69 69 69 68 67 68 69 69 69 69 68 68 67 64 64 63 62 62 64
40 31 23 21 18 12 8 12 15 27 32 41 40 39 52 55 56 58 62 66 66 66 68 69 70 69 70 69 69 68 68 68 67 67 68 69 69 69 70 69 68 68 67 64 63 63 63 64 64
37 28 24 16 7 8 9 13 19 26 43 41 35 48 55 60 59 57 59 66 66 66 68 69 68 69 69 69 68 68 67 67 67 67 68 68 69 69 69 69 68 68 67 64 63 62 63 65 63
27 21 17 14 13 8 14 17 19 28 44 43 42 48 51 60 63 64 62 66 65 67 69 68 68 69 69 68 68 67 67 67 67 67 68 68 68 68 68 68 68 68 67 65 63 63 64 64 63
24 22 13 11 12 26 39 41 36 28 42 40 40 45 49 62 62 64 66 66 66 66 68 68 69 68 67 67 67 67 67 67 67 67 67 68 67 67 67 67 67 67 66 66 65 65 64 63 62
21 18 14 11 13 29 38 46 42 42 45 46 46 48 56 59 62 63 64 67 66 66 67 66 67 67 67 66 66 66 67 67 67 68 68 67 67 66 66 66 67 66 66 65 65 64 63 62 61
19 17 14 11 19 26 39 41 43 37 50 53 51 49 55 58 62 62 62 63 65 65 65 64 65 65 65 65 66 66 66 67 67 66 66 65 65 65 65 65 65 65 65 65 64 63 62 60 58
18 15 14 14 15 23 30 37 46 45 41 54 57 57 58 60 61 61 60 60 62 63 63 64 64 63 65 65 66 66 67 66 65 64 64 61 58 57 60 64 65 65 64 64 63 62 60 58 57
16 17 16 14 15 19 19 29 45 44 38 51 50 57 59 59 59 58 58 58 58 59 60 61 63 63 63 63 64 65 64 62 61 60 59 58 60 60 61 63 63 63 63 63 62 61 60 58 49
17 16 18 14 22 20 21 38 46 40 46 54 47 55 56 58 57 57 57 57 57 58 58 59 60 60 60 60 62 62 61 59 60 60 61 60 60 60 60 60 59 58 58 52 54 55 53 53 50
15 15 18 17 19 22 21 37 44 48 52 54 55 55 56 56 55 55 55 55 56 56 57 57 58 58 59 60 60 61 61 61 59 60 61 60 60 59 58 58 58 57 55 52 53 55 53 50 48
17 17 19 21 26 25 30 33 37 48 52 54 55 56 55 54 54 54 54 54 55 55 55 55 55 55 56 57 57 58 60 59 60 59 60 60 60 61 59 58 57 55 57 56 55 53 51 48 48
22 22 20 24 24 28 33 45 44 51 51 53 53 55 56 55 53 53 53 53 53 54 54 55 55 55 55 54 54 56 58 57 59 59 59 60 60 60 59 59 58 57 56 55 54 52 49 48 47
20 19 20 26 27 31 38 36 43 48 48 46 48 51 53 54 54 51 51 51 52 53 54 54 55 55 54 54 56 57 55 54 51 54 59 60 58 61 60 57 57 57 56 55 53 50 48 46 41
21 19 19 29 31 36 37 35 38 40 44 43 42 46 51 53 52 50 50 50 51 52 52 54 56 55 55 55 54 55 55 51 49 53 60 59 58 61 60 59 57 57 55 54 53 50 48 45 42
19 17 19 24 27 34 36 39 41 43 42 43 44 47 51 53 51 51 49 50 50 51 52 53 53 53 52 53 53 52 53 57 54 56 58 61 60 60 60 58 58 57 55 55 52 49 47 44 41
18 20 21 26 30 27 39 41 44 49 38 40 41 39 46 48 51 52 49 49 49 50 50 51 51 51 52 52 54 53 55 55 55 55 61 60 59 60 60 60 58 56 55 53 51 47 44 44 43
15 19 22 28 32 30 32 40 45 46 40 40 37 36 41 45 48 53 51 51 50 51 49 49 50 52 54 55 55 55 54 55 57 60 60 62 60 59 59 59 58 56 54 52 51 48 43 41 44
16 15 18 17 24 22 20 20 37 38 40 41 41 40 41 45 48 48 51 51 53 51 51 53 51 54 56 57 54 55 54 54 56 60 62 61 61 58 58 59 58 56 53 53 50 48 46 45 46
16 16 17 22 24 22 20 18 20 38 37 40 42 42 41 42 48 47 49 51 52 51 51 52 54 55 57 57 55 53 54 53 54 57 61 60 61 59 58 58 56 56 55 52 51 49 46 44 46
15 16 19 22 21 17 22 19 21 32 33 38 39 41 40 40 44 48 48 50 51 52 53 52 53 53 55 57 57 53 50 51 56 58 58 59 60 59 57 56 56 55 54 51 51 49 47 47 45
17 26 26 23 19 23 19 17 14 23 25 35 40 41 41 42 42 45 48 49 50 53 54 54 54 54 56 58 59 58 53 57 60 59 59 58 59 58 58 55 54 55 54 53 50 47 48 48 44
21 26 27 24 22 23 21 17 22 26 29 27 33 40 41 41 42 42 47 49 51 52 54 56 56 55 56 59 59 59 57 57 59 59 58 58 57 56 55 54 55 55 54 51 49 48 49 46 45
22 23 21 21 23 24 22 17 20 30 30 29 27 29 40 42 42 42 43 46 49 52 54 55 55 55 56 59 60 60 59 59 58 58 59 58 56 56 56 56 55 54 51 50 47 49 49 47 43
24 22 25 28 30 26 28 19 16 24 22 22 22 27 33 40 42 42 42 45 47 51 53 54 54 54 55 58 59 60 60 59 60 59 59 57 56 57 57 55 51 49 48 48 48 49 48 46 44
23 23 24 34 36 32 33 22 16 20 18 19 21 27 32 33 40 42 42 43 48 50 54 55 55 54 55 56 60 61 60 59 59 59 59 58 57 56 53 51 49 48 49 47 47 46 46 44 43
22 25 27 28 27 27 19 17 18 22 18 21 21 26 34 37 35 40 40 42 45 50 53 56 55 55 55 58 61 61 61 59 58 59 59 58 56 51 51 50 48 47 47 46 46 46 44 42 42
22 23 28 29 27 28 26 22 32 32 34 24 24 27 31 35 40 40 41 43 45 46 49 55 56 56 57 58 62 61 60 59 60 60 60 59 52 51 49 49 47 45 46 45 44 43 42 40 41
23 24 26 29 26 32 37 27 26 30 30 28 30 28 30 34 36 40 44 45 45 46 49 56 57 58 58 60 61 60 60 58 58 58 58 55 52 51 49 48 46 45 45 45 44 42 36 40 40

GFSSGP_sfc_dewp_045.txt.gz
Dewpoint
55 47 49 40 29 22 17 17 17 14 32 44 47 43 44 52 52 50 60 61 62 63 65 69 71 71 71 71 70 70 69 69 69 68 69 69 69 69 69 69 66 66 66 62 61 61 62 62 63
46 38 41 33 19 17 17 17 15 37 41 47 47 46 45 52 53 58 62 61 62 61 60 69 70 71 71 70 69 69 69 69 68 68 69 69 69 69 69 68 66 66 66 62 60 60 62 63 64
49 37 29 21 19 17 15 14 16 37 40 40 40 54 54 53 54 59 62 61 67 67 66 69 69 70 70 69 69 68 68 67 67 68 69 69 69 69 69 68 66 67 65 62 60 61 62 63 63
40 33 29 19 17 16 20 33 36 33 39 44 49 52 55 59 61 64 60 67 66 67 68 69 69 70 69 69 69 68 67 67 67 68 69 69 69 69 69 68 67 67 65 62 61 61 62 63 62
39 27 21 21 20 20 36 36 36 41 45 48 46 44 51 59 63 64 66 65 66 66 65 68 68 68 68 69 69 68 67 67 68 68 69 69 70 69 69 68 67 66 65 63 62 62 62 62 62
26 25 20 18 19 32 35 39 35 41 47 47 48 46 49 61 61 63 65 66 66 66 67 68 69 68 68 68 68 67 67 68 68 68 68 69 69 69 69 68 67 66 66 65 64 64 62 61 61
24 21 18 16 14 30 34 40 40 42 45 46 49 47 52 59 62 63 65 64 65 67 67 66 67 68 67 67 67 67 67 67 67 67 67 67 67 67 68 68 67 66 66 65 64 63 61 60 59
24 19 14 14 14 27 39 42 42 44 48 51 50 50 51 59 62 62 64 64 64 65 64 64 65 66 66 66 66 67 67 67 67 66 66 65 66 66 67 66 66 65 65 64 63 62 60 58 56
24 15 15 15 16 27 37 44 46 45 51 54 56 56 58 61 62 61 61 62 62 62 63 63 63 64 64 64 66 67 67 66 65 65 64 61 59 60 62 65 65 65 64 64 62 61 59 57 56
18 16 16 17 21 21 39 42 43 45 44 51 55 58 60 59 58 58 58 58 60 61 62 62 61 61 62 63 65 65 64 62 61 59 57 56 59 60 62 63 64 64 63 62 62 60 58 54 47
19 16 17 17 23 21 21 39 46 43 44 50 49 56 57 57 57 57 57 57 57 59 60 62 61 62 62 62 60 63 63 61 59 58 59 59 61 60 60 59 60 60 60 57 58 56 51 51 49
17 16 16 19 25 25 33 43 47 50 53 55 55 56 57 55 55 55 55 56 56 56 57 59 60 61 61 62 61 61 61 59 59 60 58 58 58 57 58 56 55 53 53 50 51 52 51 47 46
18 17 20 20 24 27 43 47 48 52 54 54 56 56 56 54 53 55 55 55 55 54 55 57 57 58 58 59 60 60 60 60 61 59 58 59 56 56 57 57 55 55 54 51 53 50 48 46 43
23 21 21 21 22 30 39 42 43 50 53 54 54 55 54 53 53 53 53 54 54 54 54 55 55 56 56 56 57 57 57 58 60 58 58 58 59 57 57 57 56 55 55 54 51 51 48 47 42
27 21 20 19 29 35 39 36 39 44 45 50 53 52 53 53 52 52 52 52 53 54 54 54 54 55 54 55 56 55 55 53 48 49 54 56 58 59 58 58 58 56 54 54 52 50 47 44 41
24 23 19 19 30 37 34 34 40 41 44 46 48 51 53 53 51 51 51 52 52 53 53 54 55 55 55 54 55 56 56 55 49 46 56 56 57 60 59 58 56 56 53 51 50 47 45 44 41
24 19 18 21 31 36 36 37 39 42 45 42 45 49 53 52 49 50 51 51 51 52 53 53 53 54 53 54 54 52 52 53 48 48 51 58 57 60 58 59 58 54 53 53 51 49 46 41 40
22 20 24 26 31 36 37 36 40 42 44 41 45 50 52 51 49 49 50 51 51 51 53 52 51 51 51 50 49 48 49 48 47 53 55 60 59 59 60 60 58 54 53 53 51 46 44 42 40
22 18 17 27 31 32 37 38 37 39 46 42 46 44 51 51 51 49 49 50 50 50 51 51 50 51 48 49 48 47 49 50 53 55 59 56 56 59 60 59 56 54 53 51 49 46 40 39 42
24 20 17 23 29 31 29 37 38 42 45 40 38 45 45 49 51 48 48 49 49 49 50 50 49 49 49 50 49 50 51 53 53 58 59 58 58 60 60 58 56 55 54 51 49 45 43 41 43
21 18 17 20 26 25 23 24 38 42 45 41 37 39 42 46 51 49 47 48 49 47 48 49 49 49 50 50 53 54 54 52 53 56 58 58 60 60 59 58 57 56 54 52 48 48 44 41 44
19 19 22 25 24 21 22 21 37 41 42 41 39 38 39 45 48 49 49 50 50 49 48 48 49 49 50 54 54 52 51 49 51 55 58 59 60 59 59 57 57 57 56 52 49 49 47 47 46
23 26 26 29 26 22 21 23 25 37 38 40 41 41 41 43 48 48 49 51 50 49 49 50 51 50 53 55 55 56 51 51 53 55 58 59 59 58 58 57 56 55 54 52 51 50 49 48 46
21 30 30 30 27 22 22 22 22 31 30 37 39 41 41 43 48 47 49 50 51 49 49 50 51 52 53 55 57 57 55 52 56 57 57 57 58 57 58 56 54 54 54 52 52 49 48 48 48
22 24 24 22 23 22 32 30 25 27 29 36 35 40 41 41 46 47 47 48 49 50 50 50 50 51 52 53 56 57 57 56 56 56 57 57 56 56 56 56 54 55 53 52 49 49 49 48 46
23 23 26 21 26 29 34 29 24 27 28 28 30 40 41 40 41 46 47 48 48 49 51 51 51 51 52 54 55 57 57 56 57 57 57 57 57 57 55 55 54 55 53 51 48 50 49 48 47
26 24 28 35 36 31 33 33 32 27 25 19 20 24 37 40 40 41 46 48 49 49 50 52 53 53 54 56 57 57 58 57 57 57 57 58 57 55 55 54 52 51 51 48 48 49 48 46 44
23 27 27 34 28 28 30 31 28 26 27 25 20 21 26 33 40 40 42 47 48 50 51 52 52 54 53 55 58 58 58 58 58 58 57 56 55 53 53 52 51 49 48 47 47 46 46 44 44
25 23 27 32 32 27 23 25 31 30 33 29 25 28 30 31 36 40 45 48 49 55 56 54 54 55 56 56 57 58 59 58 58 57 57 57 53 51 51 50 48 47 46 47 46 46 44 42 42
25 24 27 30 28 31 29 27 31 30 30 26 26 25 28 31 35 39 46 48 50 53 54 53 54 57 57 57 57 60 60 59 58 58 58 57 53 51 50 49 48 47 46 45 45 43 42 43 43

GFSSGP_sfc_dewp_048.txt.gz
Dewpoint
53 47 48 39 26 22 20 18 20 19 21 45 45 46 50 53 53 51 61 61 62 67 69 68 70 70 71 70 70 69 69 69 70 70 70 70 69 68 68 67 66 65 64 64 63 64 64 64 64
46 38 39 33 19 17 17 19 20 26 43 47 49 50 51 49 53 61 60 61 61 62 67 69 69 69 70 70 69 69 69 69 70 70 70 70 70 68 67 67 66 65 64 63 63 64 63 62 64
44 37 29 27 19 16 16 18 26 41 46 43 50 55 53 51 55 58 60 62 62 61 64 65 64 67 70 70 69 68 68 68 69 69 70 70 69 68 68 66 65 65 64 62 63 62 61 62 64
39 33 30 21 17 19 19 24 35 36 45 46 53 49 54 58 60 64 62 64 66 64 62 64 64 67 70 69 69 68 67 68 68 68 69 70 69 68 67 66 66 65 64 61 61 60 61 62 64
38 28 21 21 20 20 29 35 36 44 48 47 45 41 51 56 62 64 65 65 66 65 64 64 66 66 69 69 68 68 68 68 68 68 68 69 69 68 67 66 65 65 64 61 60 60 62 62 63
30 27 22 21 21 20 31 36 38 44 47 47 46 46 48 61 61 62 64 65 65 65 66 67 68 68 68 68 67 67 68 68 68 69 69 69 69 68 67 66 66 66 65 64 62 62 62 61 62
25 22 20 19 18 15 33 40 43 45 44 47 50 47 52 59 61 62 64 65 66 66 66 67 66 67 65 64 65 67 68 68 68 68 68 68 68 68 67 67 66 65 64 63 62 62 61 61 60
25 23 19 17 14 16 37 44 44 45 46 52 55 53 51 58 62 63 64 64 65 64 65 64 65 66 64 62 62 66 67 67 67 67 67 67 67 67 67 66 65 65 64 63 61 61 61 60 59
22 19 16 15 15 21 40 41 44 48 51 52 55 56 59 61 62 61 61 62 63 63 63 63 64 63 63 63 62 63 66 66 66 65 65 64 64 65 63 64 65 64 63 62 61 60 59 56 58
21 17 17 17 20 33 41 39 43 41 45 49 54 58 60 59 59 59 59 59 60 61 61 62 61 61 61 61 61 64 64 62 61 59 58 60 61 62 63 64 64 63 62 61 60 59 57 53 46
20 18 18 17 21 33 41 43 46 43 48 50 49 55 57 57 58 58 58 57 59 60 61 61 61 60 59 59 60 63 63 60 58 56 59 60 61 61 60 60 60 60 61 57 56 52 50 49 46
16 17 18 16 25 36 41 46 49 48 50 53 53 56 57 56 56 57 56 56 57 58 61 61 60 61 59 58 57 62 61 58 58 57 59 58 57 56 57 57 57 55 54 53 51 51 49 46 44
22 20 21 21 35 46 46 48 49 52 54 55 55 56 55 54 54 55 56 56 56 55 59 60 60 61 61 59 61 61 60 59 60 58 58 57 55 55 56 54 53 52 52 50 52 50 47 44 40
28 27 24 20 25 42 43 45 43 51 54 54 54 53 53 53 53 54 54 54 54 54 56 58 59 60 59 58 59 59 59 61 60 58 57 56 55 55 55 54 53 53 53 51 51 49 46 44 38
28 23 23 22 21 37 40 37 39 52 53 53 54 53 53 53 53 53 53 53 53 54 55 55 56 56 57 57 57 57 56 53 57 58 58 57 56 56 56 56 55 54 55 53 51 50 48 45 39
24 25 20 21 24 38 34 32 39 50 48 52 51 52 52 52 51 52 53 53 53 53 55 56 56 55 56 56 56 56 55 53 48 50 56 57 57 59 58 57 57 56 55 53 51 49 44 43 39
26 20 21 21 26 35 33 33 38 43 48 49 50 51 51 51 51 51 52 52 53 53 54 55 55 55 55 55 55 53 52 51 48 47 50 56 56 59 59 58 58 55 53 52 50 48 46 43 40
21 21 26 21 29 36 35 33 39 42 45 45 46 51 52 51 49 50 51 52 52 52 53 54 55 54 54 53 52 51 52 51 50 48 50 52 56 57 59 59 58 55 52 52 50 48 46 42 40
24 23 21 20 28 35 35 34 35 43 45 43 45 49 51 51 49 50 51 51 51 52 52 52 53 52 51 50 49 49 49 50 49 49 53 55 57 59 59 58 58 55 53 52 51 46 41 40 41
23 22 22 20 28 31 32 35 38 39 43 42 44 49 51 50 48 49 50 50 51 51 52 51 51 50 49 48 47 48 48 49 48 48 52 56 56 57 59 59 58 55 53 51 50 45 42 39 42
23 22 21 17 25 27 30 29 35 39 42 43 43 46 50 51 49 48 49 49 50 50 51 51 50 48 49 48 47 47 48 48 47 47 52 56 56 55 59 59 57 55 54 52 52 46 43 43 45
21 25 21 24 24 21 22 19 34 37 39 43 41 43 46 51 50 48 48 48 48 49 50 50 49 49 49 50 48 47 47 47 48 49 52 56 57 58 59 59 57 56 55 53 52 48 45 45 44
24 28 24 24 23 23 23 21 25 35 40 42 39 39 43 50 51 48 47 48 48 48 48 49 49 48 48 49 50 50 52 53 52 52 54 57 58 59 59 58 57 56 57 55 51 49 48 48 48
26 28 28 28 27 23 26 24 24 38 38 41 42 37 38 44 51 50 47 48 48 48 47 47 48 48 48 49 51 53 54 52 52 53 54 55 58 59 58 58 58 57 57 55 52 50 49 49 47
24 26 23 22 23 23 32 30 29 28 38 39 41 41 39 40 46 51 48 48 49 49 46 47 47 48 48 49 51 53 55 54 52 52 53 55 57 57 58 57 57 56 54 53 52 51 49 49 48
24 24 24 20 24 24 32 26 27 31 34 31 40 41 42 41 43 47 49 49 51 50 49 47 48 50 49 50 52 54 54 56 55 53 55 56 56 56 58 57 55 54 54 52 50 50 50 48 48
24 23 26 32 35 30 29 32 30 29 27 26 33 37 41 42 43 47 47 49 50 50 49 48 47 50 50 51 53 54 55 56 55 56 56 57 57 56 55 56 54 53 53 51 48 49 48 48 47
24 28 27 32 26 23 28 31 29 30 25 26 24 34 40 41 42 47 47 48 50 51 50 50 49 48 49 51 52 53 54 55 56 56 56 57 57 55 54 54 53 52 51 50 48 48 48 47 46
25 24 29 32 31 26 25 25 29 30 30 29 26 25 29 39 41 42 47 48 49 50 50 51 52 52 52 54 53 54 55 56 58 57 57 57 56 55 54 53 52 51 50 49 47 47 46 45 43
25 25 27 29 28 30 28 26 30 31 31 30 28 26 30 35 38 41 42 46 49 50 50 50 52 53 53 54 55 55 58 58 58 58 58 57 56 54 54 52 50 50 48 48 46 46 45 43 43

GFSSGP_sfc_dewp_051.txt.gz
Dewpoint
54 55 46 36 22 24 23 19 21 29 29 44 47 50 51 52 52 46 60 61 66 69 70 70 70 70 70 70 70 69 69 70 70 69 69 69 69 68 67 66 66 67 67 65 65 65 65 65 65
44 42 36 28 19 16 15 19 21 39 43 48 52 51 49 46 53 61 59 61 64 68 67 68 70 70 70 69 69 69 70 70 70 69 69 69 68 67 66 65 66 67 66 64 64 64 63 64 65
42 33 27 26 18 15 16 18 24 40 45 46 51 54 53 50 55 58 60 61 62 63 67 66 68 69 68 69 69 68 69 69 70 69 69 68 68 67 66 65 65 66 66 64 63 61 62 64 65
38 32 28 23 19 19 18 19 35 40 41 45 51 48 53 58 60 63 61 62 61 62 64 67 68 69 68 68 69 68 69 68 69 69 68 68 67 67 66 64 65 66 65 62 60 62 63 65 64
36 28 21 21 20 21 21 30 39 43 46 46 46 41 51 59 62 63 64 63 63 62 62 65 66 67 67 67 67 67 68 68 69 68 67 67 67 67 66 65 65 65 64 61 60 64 65 65 63
28 26 22 20 20 21 23 36 39 44 47 47 45 45 48 60 60 62 64 65 65 65 63 63 65 65 67 67 66 67 68 68 67 68 67 67 67 66 66 66 65 64 63 62 62 63 64 63 62
25 23 21 20 19 17 32 42 42 45 45 46 49 47 49 57 61 62 64 65 65 65 66 65 65 63 64 66 64 64 67 67 67 67 67 67 67 66 66 65 64 63 62 62 61 61 62 63 62
26 23 23 19 15 15 37 44 44 45 47 52 53 52 49 57 62 63 64 64 65 65 66 65 63 61 62 62 61 63 66 66 67 67 67 67 66 66 65 64 63 62 62 62 61 61 62 62 62
23 21 19 17 16 18 42 43 44 48 50 53 56 56 58 61 61 62 61 62 62 63 64 65 61 60 59 60 61 61 67 67 67 67 67 65 64 63 62 63 63 62 62 61 60 59 60 62 61
21 19 19 19 17 21 38 38 42 42 44 52 54 57 59 58 59 59 59 59 60 60 63 63 61 60 58 59 58 57 59 64 65 65 64 64 62 61 61 62 62 61 61 60 60 58 56 51 51
21 19 20 18 20 29 40 43 46 42 44 48 49 54 56 56 57 57 58 58 60 60 61 61 61 61 59 57 55 57 60 62 60 60 61 62 62 61 60 59 59 59 58 54 51 51 48 44 48
16 18 18 19 27 37 42 47 48 46 48 53 51 56 55 54 55 55 57 57 58 60 60 60 60 58 58 57 57 59 60 60 59 60 60 60 59 58 58 58 58 56 54 51 50 49 47 44 42
18 22 25 25 29 39 45 48 47 51 54 54 55 56 55 54 53 55 56 55 57 58 60 60 59 58 56 55 56 58 60 58 58 58 58 57 56 55 56 55 54 53 51 50 51 47 45 41 39
27 27 26 24 40 45 45 46 45 49 54 54 54 54 54 53 53 54 55 54 55 56 59 60 60 59 57 55 56 61 59 59 59 57 55 54 54 54 54 53 52 51 49 51 50 47 43 39 37
28 23 23 22 28 39 40 37 43 48 54 53 52 52 52 53 52 53 54 54 54 55 56 59 60 60 58 58 60 59 59 58 58 56 55 55 54 54 53 52 53 52 51 51 50 47 46 40 36
24 24 20 22 28 34 35 31 36 52 52 51 51 52 51 51 51 52 53 53 54 54 55 56 59 58 58 58 57 58 57 58 57 57 56 55 55 56 55 54 54 54 53 52 50 48 46 42 37
24 17 19 20 26 36 34 33 35 52 51 51 49 50 50 50 50 51 52 53 53 54 55 55 57 57 57 56 55 54 52 53 53 56 56 56 56 58 56 57 56 55 54 53 51 48 45 42 39
19 21 25 21 23 35 34 33 39 47 48 51 48 48 50 50 50 51 52 52 53 53 55 55 55 56 56 54 54 54 54 49 48 49 55 57 57 59 58 57 56 55 53 52 50 47 45 43 41
24 23 22 22 22 29 29 33 34 41 44 46 45 48 49 50 50 50 51 51 52 53 53 55 55 55 55 54 53 53 53 52 48 48 52 53 55 58 58 58 57 54 52 51 50 47 44 42 41
24 22 21 22 23 31 30 32 35 42 42 44 43 47 49 50 48 50 50 51 51 52 52 53 53 53 53 54 53 53 53 52 48 48 50 53 55 55 57 57 57 55 53 51 50 46 42 41 42
24 22 22 21 22 30 30 25 30 38 41 43 44 46 49 50 49 49 49 50 50 51 51 51 52 51 50 50 50 49 51 50 48 48 49 51 55 55 57 58 57 55 54 52 51 48 44 41 43
22 24 24 24 23 20 24 20 22 33 39 42 42 45 49 51 50 48 49 49 49 50 51 51 51 50 49 49 47 47 47 46 47 48 48 49 53 56 55 57 57 56 55 53 53 52 48 47 42
24 28 26 26 24 23 23 20 21 35 37 39 42 43 46 51 51 48 48 48 49 50 51 51 50 50 49 49 48 47 47 48 48 49 49 51 54 56 57 57 57 56 55 54 53 51 50 50 48
27 27 27 29 26 23 23 22 24 29 33 37 40 42 44 49 51 49 48 48 49 49 49 50 49 49 49 49 49 49 48 49 50 51 51 52 53 56 57 57 57 56 56 55 54 53 51 49 48
26 25 22 20 22 23 27 30 29 28 33 36 40 41 42 45 51 50 48 47 48 48 48 49 49 49 49 49 49 49 49 51 52 52 52 52 53 55 56 57 56 56 56 57 56 53 51 50 49
25 25 24 19 22 21 31 26 26 30 31 35 39 42 39 41 49 50 49 47 47 48 47 47 48 48 48 48 48 49 50 52 54 53 53 52 53 54 56 57 57 57 57 57 55 54 53 51 48
25 23 25 28 32 29 27 29 29 30 29 31 31 41 41 38 42 49 50 48 47 48 48 46 47 47 48 48 48 48 49 51 53 55 54 53 54 55 55 57 57 57 56 55 53 52 50 49 48
24 28 26 29 24 24 25 29 25 28 28 25 23 37 41 41 39 42 49 49 48 49 49 48 47 46 47 48 48 48 50 52 53 54 56 55 55 55 55 56 55 54 54 52 50 48 49 48 48
24 24 29 29 28 22 22 23 32 32 31 28 26 26 35 42 43 42 45 49 49 51 51 50 47 48 50 50 49 49 50 53 54 55 55 56 56 57 56 55 55 54 52 51 49 48 48 48 46
24 24 28 25 26 29 28 24 29 30 31 30 28 28 27 36 42 43 45 47 49 50 51 50 50 48 48 50 52 52 52 53 54 56 57 57 57 57 56 56 55 54 53 51 49 48 47 47 45

GFSSGP_sfc_dewp_054.txt.gz
Dewpoint
53 55 45 32 20 22 23 21 22 24 34 45 49 50 49 51 46 41 59 61 65 69 70 69 70 70 69 70 70 70 70 70 70 70 69 69 69 67 67 67 67 67 67 65 65 65 65 65 64
43 44 34 26 18 15 15 19 18 26 42 47 51 52 48 45 53 60 58 61 64 69 69 69 69 69 69 69 70 70 70 70 70 70 69 69 68 68 68 67 67 67 67 65 65 65 65 65 65
40 33 26 22 18 16 15 18 18 32 45 46 49 54 53 48 54 57 59 62 64 68 67 68 69 69 69 69 69 70 70 69 69 69 69 68 68 67 68 67 67 67 66 65 65 65 65 65 65
37 31 26 24 22 19 18 19 21 41 40 47 50 45 53 57 58 62 63 62 63 63 66 67 67 68 69 69 69 69 70 68 68 68 68 67 67 67 67 66 66 66 64 63 64 65 64 64 64
33 28 22 22 20 22 21 22 33 43 44 46 46 41 50 57 61 62 62 62 62 63 65 67 68 68 69 69 69 69 69 68 68 68 67 67 66 66 66 66 66 64 63 63 63 64 65 64 63
27 26 22 19 19 21 21 33 40 43 46 47 46 44 45 59 59 61 63 63 63 63 63 66 68 67 67 67 67 67 68 68 67 67 67 66 66 66 66 65 64 64 65 66 66 65 63 63 62
25 23 21 20 20 18 26 42 37 43 45 44 49 47 49 57 60 62 63 63 64 64 63 63 64 65 65 65 64 65 67 67 67 67 67 66 66 65 65 65 64 63 64 65 65 63 63 63 61
25 23 26 20 18 15 27 42 44 45 45 52 52 51 48 57 62 63 64 64 65 65 64 64 63 63 62 63 63 63 66 66 67 67 67 66 66 65 63 62 62 62 62 63 64 63 62 62 61
24 20 19 19 16 16 41 41 44 47 49 52 55 54 58 61 61 61 61 62 63 63 60 61 61 61 60 60 61 63 63 63 65 67 66 65 64 62 60 61 61 61 61 62 63 63 62 61 61
23 20 19 21 18 18 34 41 40 41 43 50 52 56 58 59 58 60 59 59 60 61 60 60 59 59 58 60 61 60 59 61 64 66 65 64 62 60 59 61 61 60 60 60 62 63 62 59 57
21 19 20 20 20 19 26 40 43 42 42 46 49 52 56 56 57 58 58 59 59 61 60 60 58 58 57 57 57 59 58 61 63 65 64 62 61 61 60 58 57 56 57 52 52 50 51 53 53
18 19 19 18 21 36 38 45 45 44 47 52 50 54 54 54 55 56 57 58 59 60 60 60 58 58 57 55 55 58 58 60 60 62 62 61 60 58 58 57 55 53 51 50 49 47 47 49 51
17 19 22 23 27 36 45 45 46 48 52 53 54 55 54 54 54 56 56 56 58 59 59 60 59 58 56 53 54 56 58 58 60 60 61 60 58 56 56 56 54 52 51 49 47 44 44 45 47
25 25 27 25 31 38 41 45 47 45 54 53 53 52 53 52 53 54 55 55 56 58 59 59 58 58 56 52 53 54 54 56 59 60 59 57 56 56 55 54 52 50 50 50 47 43 40 39 41
28 23 23 22 25 39 42 37 44 46 53 52 52 53 52 53 52 52 54 54 55 56 57 59 59 57 57 56 55 55 56 54 57 59 57 55 54 54 54 52 52 50 50 50 47 45 41 38 38
24 23 19 21 34 34 35 28 29 49 52 51 50 51 51 51 51 52 54 54 54 55 56 58 60 57 56 56 57 59 59 58 57 57 56 54 54 55 54 52 52 51 51 51 48 46 43 39 38
23 18 18 19 24 35 35 31 35 50 51 49 50 51 50 50 50 51 52 53 53 54 55 56 59 58 58 58 58 58 58 57 57 56 55 55 54 55 53 54 54 53 52 52 49 47 45 40 38
20 20 24 20 23 34 36 34 36 49 50 50 49 48 49 49 49 51 52 53 53 54 55 56 57 58 58 57 56 55 55 52 54 55 56 56 56 56 56 56 55 54 53 52 50 47 46 44 40
20 21 21 21 22 22 22 24 25 40 46 47 48 47 47 48 50 50 51 52 52 53 54 54 56 56 56 56 56 55 54 52 51 53 56 57 57 59 57 57 56 55 53 53 50 47 45 43 42
23 22 21 21 22 23 25 28 32 37 43 45 47 46 47 48 48 50 50 51 52 52 53 54 55 56 56 56 55 55 55 54 54 51 53 55 56 58 58 57 56 55 54 52 50 47 44 44 42
24 22 22 20 23 25 29 27 26 35 41 43 45 45 46 48 48 49 49 50 51 52 52 54 54 54 54 54 55 55 54 53 53 51 49 52 54 54 56 57 56 55 53 52 51 48 45 43 43
22 25 24 23 23 21 27 24 22 25 35 41 43 44 45 49 49 49 49 49 49 50 51 52 52 51 52 53 53 53 53 50 51 50 48 49 53 55 55 56 57 56 55 53 52 51 48 46 45
24 27 25 25 24 23 22 20 21 34 33 36 40 43 44 47 50 49 49 49 49 50 51 50 51 51 49 49 50 52 52 52 52 49 49 50 51 54 55 54 55 55 55 54 53 52 50 50 49
27 27 27 27 25 22 22 21 21 22 29 30 36 41 43 46 50 50 49 49 49 50 51 50 50 50 49 49 49 49 49 48 49 49 49 49 51 52 54 55 55 55 55 54 53 52 52 51 50
26 24 21 20 23 23 25 24 24 27 28 31 32 38 42 44 49 50 48 48 48 49 49 50 50 50 50 49 49 48 48 48 48 48 49 50 50 51 51 53 54 54 55 55 55 54 53 52 52
25 25 23 19 21 19 31 27 26 30 31 32 33 38 42 44 48 50 49 48 48 48 49 50 50 50 50 49 49 49 48 48 48 49 49 51 51 51 52 54 55 54 55 55 56 56 54 54 53
25 24 25 27 30 27 26 27 27 28 29 28 31 40 40 43 46 49 50 48 48 48 48 49 49 49 49 49 49 49 49 49 48 49 52 52 52 53 52 54 56 56 56 56 56 56 56 54 53
25 28 26 27 23 22 24 27 22 23 24 29 26 35 42 40 42 47 50 49 48 48 48 49 48 48 49 49 49 49 49 49 50 51 52 53 53 53 52 53 54 55 56 56 56 56 54 52 50
24 24 28 27 27 21 20 22 30 28 30 30 28 25 36 42 39 41 48 50 49 49 49 49 48 49 48 49 49 48 48 49 50 51 52 54 54 54 54 54 54 55 55 55 54 54 52 51 49
24 25 29 25 23 28 25 22 27 31 30 31 31 29 27 40 43 40 41 48 49 48 49 49 48 47 47 49 49 49 49 49 50 51 53 54 55 56 56 56 56 55 54 53 53 52 50 50 48

GFSSGP_sfc_dewp_057.txt.gz
Dewpoint
54 51 43 32 22 23 20 20 23 21 34 43 50 48 44 50 47 41 61 63 65 66 65 67 70 70 70 71 71 71 71 71 70 70 70 70 69 68 68 67 67 67 66 64 64 64 64 64 64
46 42 35 27 20 17 17 20 19 20 37 45 49 51 48 44 54 59 58 61 64 65 65 68 70 70 70 70 70 70 71 70 70 70 70 69 68 68 68 67 66 66 66 64 63 63 64 64 65
38 31 29 24 20 17 17 18 20 22 40 44 45 53 51 47 53 57 60 61 65 67 67 67 69 69 70 70 70 70 70 70 69 69 69 68 68 68 68 67 67 66 66 65 64 63 64 64 65
37 32 27 25 20 21 20 21 21 30 39 44 50 46 52 57 58 62 64 63 64 67 68 68 68 69 70 70 70 69 69 69 68 68 68 68 69 68 68 67 67 67 67 65 64 63 64 65 64
32 29 24 22 21 23 22 22 22 34 42 44 45 41 47 55 60 62 63 62 65 65 68 68 67 68 69 69 70 69 69 68 68 68 67 68 68 68 67 67 66 66 67 66 64 63 64 64 63
29 28 23 18 19 21 22 23 36 40 44 46 45 43 44 59 59 61 63 63 64 64 65 67 68 68 68 68 69 68 68 68 67 67 67 67 67 67 66 66 65 65 66 66 65 64 64 63 62
28 25 20 20 20 20 21 41 36 40 44 43 47 44 48 56 59 62 63 64 65 65 64 65 66 66 66 66 67 67 67 67 67 66 66 66 66 66 66 65 65 66 66 66 65 64 63 63 62
27 25 22 21 19 17 22 39 42 42 41 51 50 46 49 57 61 64 64 64 65 65 65 65 65 64 63 65 65 65 66 66 66 66 65 65 66 65 65 64 65 67 66 65 64 63 63 62 62
25 23 20 20 19 17 34 37 44 47 46 51 54 54 57 59 61 62 62 63 63 64 64 63 63 62 62 64 62 64 66 66 66 66 65 64 63 62 59 61 64 65 65 63 63 63 62 61 61
25 23 21 21 20 19 24 36 38 41 41 45 51 56 59 58 58 59 59 59 60 60 62 62 62 62 62 63 62 62 63 63 65 65 65 63 63 60 57 60 62 63 63 63 63 62 62 58 54
24 21 22 21 22 20 20 34 40 40 39 42 47 51 57 57 57 59 59 59 60 58 59 61 60 60 61 60 61 61 60 62 63 65 63 62 60 61 59 57 56 59 61 59 60 59 54 56 54
21 22 21 19 20 27 27 39 42 41 40 50 50 52 56 55 55 57 58 59 59 58 60 60 59 59 59 58 57 59 60 62 62 65 63 60 59 59 58 55 54 54 54 57 58 55 57 56 55
21 19 19 20 23 27 41 41 42 46 48 52 54 55 55 54 53 55 57 58 59 59 59 59 59 58 58 56 57 58 60 61 61 63 61 58 57 57 56 54 52 50 51 52 53 54 54 54 54
23 20 24 26 25 31 37 41 46 45 51 52 54 54 55 54 53 54 56 56 58 59 59 59 58 58 57 55 57 58 59 60 61 62 61 59 57 58 54 53 52 51 49 48 50 52 52 52 53
27 25 24 23 23 32 41 36 43 46 52 51 52 53 53 53 53 52 54 56 57 59 59 59 59 58 56 55 56 57 58 59 60 61 60 59 58 58 56 52 52 52 51 49 47 49 49 49 49
24 24 21 21 32 36 37 26 29 45 51 49 51 52 51 51 51 51 54 54 56 57 59 59 59 58 57 56 56 57 56 57 58 59 60 57 56 58 57 53 52 53 51 48 45 43 41 42 43
25 17 20 18 27 36 36 30 33 50 49 48 50 51 50 50 50 51 53 54 55 56 57 59 58 57 57 57 57 59 58 56 56 58 58 58 56 56 55 54 55 54 52 51 48 46 44 42 41
21 20 21 19 29 34 33 31 31 42 49 48 49 50 50 49 49 50 52 54 54 55 56 57 58 57 57 57 58 59 59 57 56 57 56 57 55 55 57 56 56 53 53 52 50 49 48 44 41
22 20 19 21 22 21 23 23 24 28 46 48 49 50 50 50 50 51 52 54 54 55 55 56 57 57 57 57 57 57 57 57 57 56 57 58 56 56 56 57 56 54 53 54 53 51 49 46 44
22 22 21 22 22 22 21 23 27 32 37 43 46 49 50 49 50 51 52 53 53 53 54 55 57 57 57 57 57 58 56 56 58 57 57 57 57 55 57 57 58 56 56 56 55 53 51 48 45
24 23 23 20 22 23 26 25 24 28 38 41 45 47 48 48 49 50 50 52 53 53 54 54 56 56 57 58 58 58 57 55 55 54 55 56 58 58 57 58 59 59 58 56 57 55 52 49 46
23 25 24 22 20 17 26 20 25 24 27 35 39 44 45 47 48 50 50 50 51 53 54 55 55 56 56 57 56 55 54 52 54 54 52 54 56 56 58 58 59 59 58 57 57 56 54 53 50
22 27 25 24 23 24 23 21 22 27 26 27 32 40 44 46 48 49 50 50 50 52 52 54 54 54 55 56 56 55 53 54 53 53 52 52 53 55 55 56 57 59 59 59 57 56 55 54 53
28 25 27 28 26 23 23 22 21 21 23 25 29 34 42 45 48 49 50 51 50 51 52 53 54 52 53 54 54 54 54 53 52 53 52 51 52 54 55 54 55 57 59 59 59 58 56 55 54
26 26 21 21 24 21 25 22 24 25 27 28 30 31 39 45 47 49 50 50 50 50 51 52 52 53 52 52 53 54 53 54 53 52 52 52 51 52 54 55 56 57 57 57 58 58 58 57 56
26 24 23 21 21 20 30 24 22 30 31 33 32 34 37 43 47 49 49 50 50 50 51 51 51 52 52 52 51 52 54 53 53 53 52 53 51 51 54 55 55 56 56 56 57 58 58 58 58
26 25 27 26 31 27 26 27 26 26 27 29 30 30 35 41 46 48 49 50 50 50 51 51 51 51 52 52 52 52 52 52 52 53 54 53 53 53 54 54 55 55 55 56 56 57 57 58 57
27 28 25 27 19 20 23 25 22 24 24 27 31 29 35 41 44 48 50 50 50 50 50 52 51 50 51 52 53 52 52 51 52 52 53 53 54 54 54 54 54 54 55 55 56 57 58 57 57
25 25 28 27 27 22 20 22 32 30 29 30 32 32 31 34 42 45 49 50 50 50 50 50 50 50 51 52 52 52 52 52 53 52 53 53 54 54 53 53 53 54 55 56 57 57 57 56 56
25 26 27 26 23 29 28 22 28 32 33 34 33 34 33 31 39 43 46 50 50 50 50 49 50 50 51 52 52 53 53 53 53 53 53 54 54 55 54 54 54 55 56 56 57 56 56 55 54

GFSSGP_sfc_dewp_060.txt.gz
Dewpoint
52 46 42 35 23 20 17 16 20 20 27 39 45 43 41 44 39 38 59 64 66 66 66 67 70 71 72 71 71 71 71 71 70 71 71 71 71 70 70 69 68 68 68 66 65 64 65 66 65
42 40 36 28 18 12 13 18 18 21 26 41 45 45 45 41 49 54 58 63 64 66 66 66 70 71 72 71 71 71 71 71 70 71 70 70 70 69 68 68 67 67 67 65 64 64 64 65 65
37 34 26 23 16 11 13 18 20 22 29 39 39 46 45 46 51 56 60 62 64 67 63 64 69 70 71 71 71 71 70 70 70 70 70 69 69 68 68 67 66 66 66 63 63 64 65 65 65
31 30 28 21 15 17 17 19 22 22 33 38 41 41 49 55 55 60 62 62 65 67 63 66 69 69 70 71 71 70 70 69 69 69 69 69 69 68 67 66 66 67 66 63 63 64 65 65 64
34 27 18 18 17 19 21 21 23 24 35 39 42 35 42 54 57 59 61 62 64 66 68 66 68 68 69 70 70 70 69 69 68 68 68 68 68 68 67 66 66 66 65 65 64 64 64 64 64
26 27 14 11 16 19 22 24 25 29 34 41 42 40 43 56 56 60 61 63 65 67 67 68 67 67 68 69 69 69 68 68 68 68 68 68 68 67 67 67 67 66 66 65 65 65 64 63 63
24 18 11 14 16 20 22 34 31 30 33 35 43 40 45 53 57 61 62 63 65 67 66 66 66 65 66 65 68 66 68 67 67 67 67 67 67 67 67 67 67 67 65 65 65 64 63 62 62
23 19 14 15 16 17 21 32 31 31 28 48 45 38 40 55 59 61 62 63 65 65 65 66 66 66 65 65 66 65 65 67 66 67 67 66 66 66 65 65 66 67 66 65 64 64 63 62 62
25 16 12 12 17 17 23 26 33 40 35 45 49 47 52 56 57 59 60 62 64 65 65 66 65 65 65 65 65 66 67 66 66 66 66 65 63 62 62 62 65 66 64 63 63 63 62 62 61
21 15 13 14 18 18 21 23 24 32 28 40 45 52 56 56 55 56 56 59 62 63 63 65 64 64 64 64 63 64 65 65 65 65 65 61 63 62 57 64 65 65 63 63 63 63 61 57 52
19 16 15 17 19 20 22 23 28 30 29 29 38 44 54 55 55 54 56 58 61 62 62 63 63 63 63 63 63 63 64 63 64 64 64 64 62 60 59 63 63 62 61 57 57 57 52 52 50
18 19 17 16 18 21 24 26 30 32 33 43 43 47 53 54 53 53 55 58 60 60 62 61 62 62 63 63 62 62 62 63 62 61 62 62 59 59 59 59 59 59 56 57 56 54 55 54 51
21 16 19 20 20 21 26 28 30 32 38 45 48 50 53 53 52 53 55 58 60 59 59 60 61 61 61 59 60 60 61 62 62 61 61 60 58 58 55 56 57 56 56 56 55 55 55 53 51
17 20 17 18 21 24 26 23 38 29 38 48 49 50 52 53 52 52 54 56 59 59 60 59 59 60 59 58 58 59 61 61 61 61 59 59 57 57 53 54 52 52 54 55 53 53 52 50 50
19 20 20 22 22 21 27 24 37 32 44 46 48 49 51 54 52 52 54 56 57 59 60 59 59 59 58 57 58 59 60 61 60 60 60 58 57 58 56 52 52 50 51 52 51 52 51 49 48
19 20 16 16 19 24 31 19 21 33 42 42 46 47 49 51 51 51 53 54 57 59 59 60 59 59 59 57 59 59 60 60 61 60 58 57 56 57 56 53 52 50 50 49 50 49 49 47 46
22 13 16 15 21 26 32 22 27 38 39 37 42 46 48 48 50 50 52 54 55 57 59 59 59 58 57 57 59 58 59 59 60 60 55 56 54 55 54 52 55 53 50 49 48 47 46 45 43
16 17 14 15 18 24 25 25 24 32 39 41 40 44 48 48 48 49 51 53 55 57 57 59 59 58 57 57 59 59 58 58 59 59 59 55 51 55 54 51 55 53 50 50 49 49 47 45 42
15 16 13 11 18 22 21 20 20 22 30 37 41 44 46 48 48 49 51 53 55 56 57 57 58 58 58 56 56 57 57 56 58 58 58 57 53 55 55 53 54 54 52 52 54 52 51 47 45
17 16 14 14 20 20 15 14 20 22 26 30 37 42 45 48 48 49 50 52 54 54 56 56 57 57 57 57 56 57 57 58 57 57 56 57 57 55 56 57 54 54 53 55 55 55 51 48 47
20 17 17 15 18 19 19 18 19 21 28 31 37 39 43 46 48 49 50 51 53 53 54 55 56 57 57 57 57 57 58 57 57 57 53 54 56 56 55 57 55 56 55 55 57 56 54 51 51
18 18 19 20 20 10 20 13 18 21 22 23 26 39 42 45 47 48 50 50 52 53 54 54 55 57 57 58 56 57 54 53 54 55 56 54 57 57 55 56 56 58 57 56 57 57 56 55 53
20 20 23 21 21 18 13 14 15 20 21 21 23 27 41 43 47 48 50 50 50 53 54 54 54 56 57 57 57 56 55 53 53 54 56 56 57 57 57 57 58 59 60 60 59 59 58 56 56
23 23 23 23 20 19 16 17 14 16 20 18 19 23 33 41 45 47 50 51 50 52 53 53 53 54 57 57 57 57 55 54 54 55 55 55 55 57 58 57 59 59 58 57 57 58 59 58 57
23 22 19 17 20 18 19 20 21 21 23 23 23 24 34 41 44 47 49 50 50 51 52 53 53 53 55 57 57 57 56 55 54 54 54 54 55 55 56 57 58 56 56 56 55 57 58 59 57
25 23 18 18 19 17 24 20 20 23 26 28 29 30 32 39 44 46 48 50 50 51 51 52 53 52 54 56 56 57 57 55 53 54 54 53 53 53 55 55 55 54 54 55 56 56 55 57 57
25 23 23 21 28 25 22 23 25 23 22 24 23 26 29 32 42 45 48 50 51 51 51 52 51 52 54 54 55 56 56 56 55 54 54 54 55 52 53 54 55 55 54 55 55 56 55 57 58
27 26 24 24 19 19 19 21 20 21 22 22 26 28 29 35 40 45 47 50 51 52 51 52 51 51 53 54 56 55 56 55 55 55 55 54 55 54 53 53 54 54 54 54 54 56 56 56 57
26 26 26 24 23 20 19 20 25 24 27 28 28 30 32 32 40 45 46 49 51 52 51 51 51 50 52 54 54 54 54 54 55 54 55 55 56 55 54 54 53 52 53 53 54 54 54 54 55
24 24 25 24 23 25 26 21 26 29 28 31 31 30 33 33 36 42 47 49 50 51 51 51 51 50 50 52 54 54 55 54 54 55 54 57 56 56 55 55 55 54 54 55 54 55 53 54 55

GFSSGP_sfc_dewp_063.txt.gz
Dewpoint
50 43 40 33 24 17 14 14 15 14 18 31 36 34 36 35 32 36 57 62 64 64 67 67 70 72 72 72 71 71 71 71 71 71 71 71 71 70 70 69 69 69 69 67 68 67 67 66 66
38 35 35 30 16 12 11 15 14 16 20 34 36 35 33 35 42 45 55 61 62 64 65 65 70 71 71 71 71 71 71 71 71 71 71 71 71 70 69 69 68 68 68 66 66 66 66 65 66
44 32 28 20 17 11 12 15 14 17 23 27 29 34 35 38 47 51 59 61 63 65 65 65 69 70 71 70 71 71 71 70 70 71 71 71 70 70 69 68 68 68 67 64 65 66 65 65 65
30 25 26 19 14 15 15 15 17 18 21 27 28 28 41 51 51 57 59 61 62 65 66 68 69 69 70 70 71 70 70 70 70 70 70 70 70 69 68 67 67 67 66 65 64 65 64 65 64
27 26 21 18 16 15 17 16 18 19 22 30 31 29 34 52 54 56 58 60 61 65 68 67 68 69 70 70 69 69 69 69 69 70 69 69 69 68 67 66 66 66 66 66 65 64 64 64 63
24 22 18 13 11 15 17 19 20 20 21 28 34 34 36 54 52 56 59 59 62 65 68 68 68 67 68 68 67 66 68 69 68 69 68 68 68 67 66 66 66 65 65 65 65 65 64 64 63
24 21 17 12 11 14 18 25 22 22 23 24 33 34 38 51 55 57 59 62 63 65 67 68 69 66 65 65 66 67 68 68 68 68 68 67 67 66 66 66 66 66 65 65 65 64 64 63 62
23 20 17 14 11 14 20 25 23 22 22 38 33 31 34 54 57 59 59 62 64 65 67 67 67 66 66 65 65 65 67 67 67 67 67 67 66 67 67 66 66 66 66 65 64 64 63 62 62
21 19 15 12 12 14 19 18 21 26 26 27 37 39 47 54 55 56 57 61 64 64 65 67 65 64 64 64 64 65 66 67 66 67 66 65 62 64 64 64 65 65 64 64 64 63 63 62 62
20 16 14 13 12 14 17 18 19 22 22 26 33 41 49 52 51 52 52 53 62 62 65 66 65 65 65 64 64 64 65 66 66 66 65 60 64 63 60 64 64 64 63 63 63 63 62 59 51
19 16 14 14 14 13 16 17 19 22 23 25 33 31 40 50 52 52 52 53 55 61 64 65 65 65 64 64 64 65 64 66 67 66 63 61 64 63 63 65 62 61 61 57 57 57 52 50 48
16 17 15 14 14 14 17 18 20 24 27 28 37 40 41 50 50 49 50 51 59 60 61 62 62 62 62 64 62 63 63 63 65 65 63 63 63 61 61 62 60 58 56 57 54 53 54 51 50
17 16 15 14 14 15 18 19 22 23 25 30 39 45 46 50 47 49 51 53 57 59 61 61 62 61 61 62 63 63 62 62 62 63 62 61 61 61 60 62 61 57 57 57 54 53 51 50 50
17 16 17 13 16 17 17 19 20 24 27 30 41 44 47 49 47 48 50 52 57 59 60 61 60 61 61 61 62 62 62 62 62 61 62 61 60 60 60 61 60 57 57 55 53 52 52 49 49
17 15 16 15 15 14 19 18 21 20 26 33 41 43 46 51 49 49 48 53 57 59 60 59 61 60 60 59 59 61 61 61 61 60 61 60 59 60 59 57 58 57 56 57 54 53 52 48 48
17 18 15 16 16 17 18 18 18 19 31 33 37 41 45 50 50 49 50 53 56 58 60 60 59 60 60 59 59 59 61 61 61 61 61 57 58 58 59 55 54 54 55 53 51 50 49 48 47
22 15 16 16 16 16 19 20 18 28 30 31 33 40 43 46 48 49 49 52 55 57 59 60 60 59 59 59 60 60 60 59 59 60 60 57 57 57 57 54 54 55 53 54 52 52 51 48 46
17 17 17 15 16 17 18 23 21 27 30 32 32 34 41 44 45 48 48 51 54 57 59 60 60 59 58 59 59 59 59 59 59 59 58 57 55 56 56 55 56 52 52 52 52 52 49 48 45
19 17 16 17 15 17 18 17 20 20 23 28 32 34 39 44 46 48 48 52 54 56 58 59 59 58 56 57 57 57 57 58 59 59 57 56 53 54 55 54 57 57 53 53 56 51 50 46 46
22 18 17 17 14 18 16 12 16 18 18 23 26 32 37 41 45 47 48 51 54 54 57 58 59 57 57 56 57 57 57 57 57 59 59 57 55 54 55 56 56 56 54 56 56 56 50 48 47
22 21 19 17 16 18 18 13 12 15 19 21 25 27 31 39 44 46 48 50 53 53 55 56 58 58 57 56 57 57 58 57 56 58 58 57 57 53 56 58 57 57 57 57 58 57 55 50 50
21 21 19 17 17 16 18 12 14 14 17 21 24 27 30 34 42 46 48 49 52 53 55 56 57 58 57 57 56 56 54 54 54 55 57 57 56 56 56 57 58 58 57 58 59 57 57 56 53
24 22 20 19 19 20 20 13 14 16 17 19 22 23 28 34 40 44 47 48 49 52 55 54 56 57 57 57 56 55 54 55 55 54 55 54 54 56 56 57 57 59 59 59 60 60 59 57 58
23 22 22 22 22 22 22 17 14 16 18 21 17 21 23 34 37 43 47 49 48 51 54 55 54 55 57 58 57 56 54 54 55 56 55 53 54 55 58 58 57 58 59 59 59 59 60 59 57
20 22 20 20 21 21 21 19 20 19 20 22 23 20 26 31 38 43 46 48 47 50 53 53 53 54 56 57 57 57 56 55 54 55 54 53 53 55 57 58 59 59 59 57 58 60 60 59 59
21 21 21 20 22 18 20 18 19 22 22 22 22 24 26 34 38 42 45 48 48 49 51 52 53 53 55 57 57 57 56 56 54 54 53 54 54 55 57 59 58 57 57 56 58 57 56 57 58
21 21 22 21 28 26 21 22 23 24 21 22 23 23 25 27 35 41 44 48 49 49 51 52 51 52 54 56 57 57 57 57 56 55 55 54 55 55 57 57 57 57 57 57 56 54 54 56 56
25 23 21 23 21 21 21 25 21 21 21 22 23 27 28 29 28 39 43 48 49 50 49 52 51 51 53 55 57 57 57 58 56 56 56 55 55 56 56 57 57 56 55 54 55 54 53 55 56
26 24 27 23 22 22 22 21 25 23 26 26 28 28 30 32 35 39 43 46 50 50 50 51 50 50 52 54 55 56 56 57 57 57 57 57 57 56 56 55 55 55 54 54 54 55 55 55 55
26 26 26 26 27 25 28 23 25 30 28 27 27 28 31 32 32 40 43 46 49 50 51 50 51 49 50 53 54 56 57 57 58 58 57 59 57 56 56 56 54 53 53 54 54 54 53 55 55

GFSSGP_sfc_dewp_069.txt.gz
Dewpoint
56 48 41 40 30 26 22 21 21 16 31 33 31 33 32 34 40 47 60 63 68 67 70 71 72 71 72 72 72 72 71 71 72 72 71 71 70 70 70 70 70 71 70 69 66 67 68 69 69
44 37 36 35 26 23 22 21 19 25 30 31 29 26 30 44 52 59 59 62 64 67 68 70 72 72 71 72 72 72 71 71 71 71 71 71 71 71 71 70 70 70 70 69 68 67 67 68 68
45 38 34 28 24 23 23 20 16 20 22 23 26 29 33 47 48 58 61 62 64 64 67 69 71 71 71 71 71 71 71 71 71 71 71 71 71 71 71 70 69 69 69 68 67 67 67 68 67
37 37 31 22 22 23 22 21 16 17 21 23 25 29 47 50 52 59 60 61 63 63 66 68 70 71 71 71 71 71 71 70 70 70 70 71 71 71 70 69 69 69 69 67 67 67 67 66 66
33 30 21 21 20 20 19 19 17 17 24 29 27 29 47 53 56 57 59 60 61 64 68 68 68 70 71 71 71 70 70 70 70 70 70 70 70 70 69 68 68 68 68 67 66 66 65 64 64
28 25 19 18 18 20 20 20 18 18 20 21 23 32 49 53 54 59 59 59 62 67 68 67 68 69 69 69 69 68 68 69 68 69 69 68 69 69 68 68 68 67 67 66 66 65 64 65 64
28 25 18 18 18 18 17 20 20 19 18 26 36 34 49 51 58 58 59 62 64 66 66 67 67 67 66 66 66 65 66 65 66 67 67 68 68 67 67 67 67 67 66 66 65 65 64 64 63
29 26 22 20 19 17 19 25 22 20 21 35 30 30 47 54 57 57 61 62 62 66 65 65 66 64 64 64 64 64 66 66 63 64 66 67 67 67 67 67 66 66 66 65 65 64 63 63 61
31 24 20 19 19 18 19 22 25 22 22 27 29 30 52 57 58 57 61 61 61 64 64 64 65 64 64 63 63 64 65 65 63 64 62 66 64 65 65 65 66 66 65 64 64 64 62 61 59
27 22 20 21 20 19 16 18 22 19 23 29 28 53 56 54 54 55 57 60 61 61 63 64 64 63 63 64 62 61 62 63 61 61 62 65 64 63 64 65 65 65 64 64 64 62 61 58 54
26 23 21 20 21 19 17 14 18 20 22 22 29 49 51 51 51 51 51 56 61 61 63 63 63 62 61 62 62 61 61 60 59 59 60 65 63 64 64 63 63 63 63 61 60 59 55 52 52
26 24 23 20 20 18 16 14 15 19 25 25 28 42 50 51 51 50 51 60 60 60 61 62 62 63 62 63 62 61 60 61 59 59 59 65 64 63 63 61 61 61 59 58 57 55 52 51 52
26 23 21 19 18 17 17 15 16 18 20 23 29 40 41 49 48 48 53 57 59 59 60 61 62 63 62 61 60 61 61 62 61 64 64 64 63 62 59 59 59 57 57 55 53 53 52 49 50
25 24 23 21 18 14 14 16 15 20 19 18 23 42 42 45 46 48 50 54 57 59 60 60 61 61 61 60 60 61 61 61 63 64 64 63 63 61 57 57 55 56 54 52 52 52 50 50 51
24 22 21 21 18 15 15 16 19 18 18 18 23 41 44 47 48 47 49 55 58 59 60 59 61 61 61 61 60 60 61 62 62 62 62 62 62 60 56 55 55 56 54 51 52 53 52 51 52
28 24 20 20 19 19 16 15 16 17 18 18 19 37 43 48 48 47 51 56 57 58 60 60 60 60 59 60 61 60 61 61 62 62 62 61 61 60 59 56 55 56 54 53 53 54 51 52 51
27 22 21 19 18 17 16 14 16 16 16 19 20 34 42 47 48 48 52 55 56 58 59 59 59 59 59 58 60 60 60 61 61 61 61 61 60 61 60 58 57 56 55 56 54 54 51 50 51
26 23 19 17 18 18 15 14 16 17 20 29 30 31 39 47 48 48 50 55 55 59 58 58 59 59 59 59 60 60 61 59 60 60 60 60 59 59 60 59 59 60 57 57 54 52 52 50 51
26 25 21 20 24 25 23 18 16 19 21 27 29 29 32 45 49 48 49 54 55 59 59 59 59 59 59 58 58 57 57 59 59 59 60 59 58 58 58 58 59 57 58 56 53 52 51 50 50
26 24 22 23 25 25 21 17 17 18 19 23 29 30 30 41 48 47 49 52 55 58 59 58 58 58 58 58 58 57 57 59 59 59 59 58 58 56 56 57 57 54 58 57 54 50 49 49 50
27 24 22 23 24 24 21 17 17 19 20 19 25 29 32 41 47 46 49 51 56 56 58 58 57 57 58 58 58 57 57 57 57 57 57 57 57 54 54 56 57 56 56 56 53 50 48 48 48
29 29 25 23 22 22 25 18 18 18 18 19 17 24 32 38 47 46 48 50 55 57 58 58 57 56 57 58 57 56 55 54 55 55 55 54 55 55 53 55 54 55 57 55 54 54 51 52 46
33 34 30 31 30 29 25 19 18 21 21 19 18 20 26 31 46 46 47 50 52 56 57 57 57 56 56 57 56 55 53 54 54 55 53 54 55 54 54 55 56 55 55 56 56 56 55 54 53
34 34 34 32 32 27 25 20 18 19 20 23 20 20 27 28 46 47 47 50 52 57 57 57 56 56 56 57 56 55 53 53 52 54 54 55 55 55 56 54 57 57 56 57 57 56 56 56 56
32 35 30 27 24 24 23 22 20 23 24 25 25 21 23 30 46 47 47 48 51 56 56 56 56 55 56 55 56 55 54 53 52 52 54 54 54 54 55 56 56 56 57 57 57 56 56 56 56
30 34 30 26 27 25 26 21 21 24 24 25 21 23 31 35 46 47 47 48 50 54 54 56 55 55 56 56 55 55 54 54 53 52 53 54 54 53 53 56 57 57 55 56 57 57 56 57 57
35 30 31 32 30 30 29 26 22 23 23 23 22 22 26 35 39 47 48 48 50 53 53 53 56 55 56 56 55 55 54 54 54 53 52 53 53 53 53 53 57 57 56 55 56 56 55 56 56
36 34 32 34 28 26 27 28 23 30 24 23 25 26 28 33 35 44 47 48 50 53 53 53 55 55 56 56 56 55 55 54 54 54 53 52 52 53 52 52 55 56 56 56 55 55 55 54 55
31 35 37 36 32 27 28 31 35 29 30 31 31 33 34 34 36 39 47 48 49 51 53 52 53 53 55 56 55 55 55 55 54 54 55 54 53 53 53 52 54 55 55 56 56 55 54 53 52
33 30 35 33 32 31 27 29 34 29 31 32 33 31 33 36 38 41 48 49 48 50 52 52 52 52 54 55 55 54 56 56 55 54 54 55 54 54 53 52 53 53 54 54 54 54 54 53 52

GFSSGP_sfc_dewp_072.txt.gz
Dewpoint
57 46 39 39 32 25 23 22 23 21 30 31 32 32 33 38 37 39 59 67 68 70 71 71 71 72 72 72 72 71 72 72 72 71 71 71 71 70 70 69 69 70 70 69 68 69 69 69 69
44 38 36 34 26 22 21 24 21 23 33 31 29 30 33 47 58 59 60 67 67 69 71 71 71 71 72 72 72 71 72 72 72 71 71 71 71 70 71 70 69 70 70 68 68 69 69 69 69
42 38 34 30 25 23 22 23 19 21 28 25 27 29 43 48 59 59 60 66 67 67 70 71 71 71 71 71 71 71 71 71 71 71 71 71 70 71 71 70 70 69 68 68 67 68 69 68 68
35 37 35 23 22 24 24 23 23 19 21 24 27 43 48 51 57 60 62 64 66 66 68 69 70 71 71 71 71 71 71 71 70 70 70 71 71 71 70 69 69 69 69 68 68 68 69 68 67
33 30 26 22 21 21 22 22 20 19 22 28 27 31 47 56 59 60 60 63 62 66 67 68 69 70 71 71 71 71 70 70 70 70 70 70 71 71 70 69 69 68 68 68 68 68 67 66 65
28 26 20 20 19 19 20 21 21 20 28 28 26 46 49 55 57 59 60 61 66 66 67 67 69 71 71 70 70 69 69 70 69 69 70 70 69 69 69 69 68 68 67 67 67 66 66 64 64
28 25 19 18 18 19 19 22 21 19 17 30 35 39 51 53 57 59 60 64 66 66 66 66 66 67 67 68 67 67 67 68 68 67 67 66 67 67 68 68 68 67 67 67 66 65 64 64 63
29 27 26 23 23 21 23 22 23 18 17 35 31 42 48 51 58 60 63 63 64 65 65 65 65 63 63 64 66 66 67 66 66 66 64 65 66 67 67 67 67 67 66 66 66 65 64 62 62
32 28 24 22 22 22 23 19 20 23 31 32 31 39 48 56 58 61 60 60 62 64 63 64 63 64 63 63 65 66 66 66 66 65 63 64 65 66 66 66 66 66 65 65 65 64 63 62 61
33 28 28 26 23 22 22 20 19 21 22 28 39 56 56 56 56 59 59 59 60 61 62 63 62 62 63 63 64 63 64 63 62 62 63 61 60 65 64 65 65 65 64 64 64 63 62 58 56
30 30 28 25 24 22 21 21 21 17 21 26 33 54 55 56 55 56 59 60 60 61 62 62 62 62 63 62 62 61 61 62 61 61 62 60 62 65 64 64 63 63 64 62 60 59 55 53 52
30 29 28 27 25 23 21 20 19 16 21 26 37 54 54 53 53 53 53 59 60 61 62 62 62 61 60 61 61 60 60 60 60 60 61 60 63 64 63 62 62 61 60 59 58 55 53 52 52
29 30 30 29 26 24 22 20 19 18 18 21 40 51 52 51 51 51 59 60 60 60 60 61 61 62 62 62 60 59 59 59 59 59 60 64 64 62 61 61 61 60 59 57 55 53 51 51 52
27 29 29 28 24 22 20 18 16 18 18 18 39 48 49 50 49 54 58 59 59 59 59 60 61 62 61 59 60 61 61 61 60 59 60 63 62 61 60 60 59 58 56 55 53 52 49 49 51
29 25 23 23 23 22 21 18 18 17 17 18 18 39 42 50 48 53 56 58 58 59 59 59 60 61 60 59 59 61 60 62 62 61 61 64 62 60 59 57 56 56 54 52 52 52 49 49 52
29 28 24 24 22 22 19 18 18 18 18 17 17 32 42 46 47 49 53 57 58 59 59 59 60 59 59 60 59 61 61 62 62 63 62 63 60 58 57 55 55 53 52 51 52 53 50 49 52
29 25 24 22 22 21 17 17 19 19 17 17 18 24 41 45 47 48 55 57 58 59 59 59 60 59 58 61 60 60 60 62 62 62 62 62 59 57 55 55 55 53 51 50 52 53 51 50 51
26 25 26 21 20 22 24 24 24 22 17 18 16 22 39 45 47 50 55 56 58 58 59 59 59 59 57 58 60 60 60 60 60 62 62 62 60 57 56 55 57 55 51 52 53 53 51 51 51
27 26 25 26 27 25 24 23 24 24 22 17 26 28 38 45 47 51 55 56 58 58 57 58 59 58 58 58 58 58 58 59 59 60 60 60 61 59 55 55 58 55 55 54 53 53 50 50 51
28 26 25 26 25 24 24 24 24 22 21 19 27 30 35 45 48 49 54 55 58 57 57 57 58 58 58 57 57 57 58 59 59 60 60 60 59 59 57 55 58 57 56 56 55 52 51 50 50
27 26 27 28 25 24 23 22 23 25 19 20 25 30 32 46 48 48 52 54 57 57 57 58 58 58 58 58 57 56 57 58 58 58 59 59 59 58 59 57 57 57 57 55 54 51 50 48 49
26 28 31 31 27 22 27 24 24 24 21 20 20 26 30 43 48 47 50 53 57 57 57 57 57 57 57 58 56 55 55 55 56 57 58 58 59 58 57 58 57 56 58 57 56 54 50 50 48
30 32 35 33 31 30 26 24 23 23 20 21 22 21 30 43 47 47 48 53 56 58 57 57 57 57 57 57 56 56 55 55 56 57 57 57 58 57 56 57 57 56 57 57 56 55 53 51 50
33 36 36 33 31 27 26 25 24 21 20 21 24 23 27 43 46 47 48 53 56 57 57 56 55 56 56 57 56 55 55 54 54 55 55 56 56 56 55 56 56 56 56 57 56 56 55 53 51
35 36 30 27 27 24 26 24 24 25 24 25 26 25 25 43 46 46 48 51 56 56 56 55 55 55 56 56 56 55 54 54 53 54 54 54 54 55 53 54 56 56 56 57 56 56 56 55 54
33 37 32 24 25 27 29 22 22 25 24 24 24 24 29 44 46 46 49 50 55 56 55 55 54 54 55 56 56 55 54 53 53 54 54 53 54 54 54 55 55 57 55 55 57 56 55 55 55
32 34 35 33 33 29 29 29 27 29 28 26 24 27 34 44 46 46 48 49 54 55 55 55 54 54 54 55 56 56 55 54 53 52 54 54 54 54 54 55 56 56 56 56 56 55 55 56 55
34 35 32 34 26 26 26 28 30 30 31 29 33 35 36 40 46 47 47 49 53 55 56 56 55 54 55 55 55 55 55 55 54 53 52 53 54 54 54 53 55 56 56 55 55 55 55 55 55
36 37 37 34 32 30 28 33 36 35 32 32 35 38 39 41 39 47 48 48 51 53 54 55 55 55 55 54 54 55 55 54 55 54 53 52 53 53 53 53 53 55 56 56 55 54 54 54 54
34 35 37 34 30 31 31 32 41 43 40 36 38 39 42 44 45 47 48 49 52 53 53 53 55 55 55 55 55 55 55 55 54 54 54 54 52 52 53 53 53 52 53 54 55 55 54 54 53

GFSSGP_sfc_dewp_075.txt.gz
Dewpoint
57 45 39 39 29 26 24 22 24 22 24 31 32 33 32 36 31 30 58 66 68 69 70 70 71 72 72 71 71 72 72 72 72 72 72 72 71 71 71 71 71 71 71 70 69 70 70 70 70
44 38 36 32 28 22 20 24 23 23 26 32 35 42 40 45 58 58 62 68 69 70 70 70 71 71 72 71 71 72 72 72 72 72 71 71 71 71 71 70 70 70 70 70 70 70 69 69 69
40 38 32 30 26 22 17 24 22 22 24 29 27 34 43 49 59 60 61 68 68 70 70 70 71 71 71 72 71 71 71 71 71 71 71 71 71 70 70 70 70 70 70 70 69 69 69 69 68
35 36 33 27 24 25 23 24 25 23 21 23 27 40 47 54 59 60 64 67 67 68 70 70 70 70 71 71 71 71 71 70 70 70 71 71 70 70 70 70 70 69 68 69 69 69 69 68 67
32 32 30 26 25 23 24 24 22 21 22 23 28 39 45 54 59 61 65 67 66 66 68 69 69 70 71 71 71 71 71 70 70 70 70 70 70 70 70 69 69 68 69 69 69 68 68 67 66
26 27 23 24 22 21 20 21 22 21 22 22 27 43 48 56 59 60 63 63 65 66 66 68 70 70 70 71 70 69 69 70 70 70 70 70 70 69 70 69 69 68 67 68 68 67 67 66 65
22 23 22 20 18 20 20 22 22 22 21 23 36 45 49 55 58 60 61 65 65 65 66 66 68 70 70 69 69 68 67 67 67 68 67 67 67 68 68 68 68 68 68 67 67 66 64 65 64
29 26 25 21 21 20 20 24 23 22 19 33 44 46 48 53 59 61 63 64 64 64 64 64 64 64 65 66 66 66 66 66 66 66 63 63 66 67 66 67 67 67 67 67 66 64 64 65 63
30 26 23 23 23 20 24 20 22 23 23 29 32 48 48 56 60 61 60 60 61 63 63 63 63 62 62 65 66 67 67 65 65 66 65 64 65 65 65 66 67 66 66 65 65 63 63 63 63
33 28 23 25 22 23 24 22 22 20 21 23 29 53 56 56 58 59 59 59 60 61 61 63 63 61 62 64 65 66 65 64 63 64 63 63 64 65 64 65 65 65 65 65 64 63 63 61 59
33 27 26 27 28 27 24 22 23 22 22 22 24 45 55 56 57 58 59 59 60 60 61 62 63 63 63 62 63 64 65 64 63 63 62 62 62 64 65 64 64 63 64 61 60 59 58 57 57
31 31 30 30 29 26 24 24 23 21 22 24 22 48 55 54 55 57 58 59 59 60 60 62 62 63 62 62 62 61 62 62 61 61 62 60 60 62 63 64 62 62 61 60 58 54 54 54 54
30 32 31 31 30 27 26 24 24 24 24 23 23 54 54 54 54 54 56 59 59 60 60 62 62 60 60 60 60 60 60 61 61 61 61 60 60 62 63 62 61 61 60 58 56 52 52 52 53
24 25 27 29 29 30 28 26 24 23 21 18 27 53 54 54 53 53 57 58 60 60 59 62 62 62 60 61 60 60 60 60 60 60 61 60 62 63 62 61 60 59 59 57 54 51 51 52 53
29 28 28 26 25 25 25 22 23 22 21 18 24 46 51 52 51 53 57 59 60 59 59 60 62 61 60 60 60 61 60 61 59 60 60 61 61 63 62 60 59 58 56 55 53 50 50 52 53
29 29 26 27 25 24 21 20 22 21 19 18 18 32 47 50 49 52 58 59 58 58 58 59 61 59 58 57 59 60 61 61 61 60 60 60 62 62 61 59 58 56 54 53 52 50 49 52 53
28 25 25 25 24 23 20 20 21 21 19 18 18 20 40 44 48 52 57 58 58 58 58 58 58 58 58 58 59 60 61 61 62 62 61 60 62 60 59 58 56 54 52 52 52 51 49 51 53
25 25 26 23 23 24 22 22 25 26 25 24 21 18 34 41 46 48 55 58 58 58 58 58 58 58 59 60 59 60 60 60 62 62 61 60 60 59 57 55 54 54 50 52 52 51 50 51 53
27 26 25 25 27 27 26 24 24 25 25 24 24 23 26 40 43 51 56 57 58 58 58 58 57 57 58 59 59 57 58 59 60 61 62 60 59 57 54 55 54 53 49 51 52 52 49 50 51
27 26 25 27 28 28 24 24 24 25 25 25 23 23 23 40 48 54 55 57 57 58 58 57 57 57 58 58 58 58 58 59 60 60 60 62 60 58 54 55 53 52 50 53 53 52 51 50 51
28 26 27 27 30 29 27 25 24 24 25 25 21 22 29 42 47 53 54 56 57 56 56 57 56 57 57 57 57 57 58 58 58 59 59 60 61 59 56 55 54 53 52 54 54 52 51 49 51
29 28 28 32 31 26 26 23 25 25 25 24 22 25 31 44 47 51 53 55 56 56 57 57 57 57 57 57 56 56 55 56 56 58 59 59 60 60 58 57 57 56 55 55 55 53 51 50 49
31 33 35 34 33 31 29 26 25 25 24 25 23 22 27 40 47 48 52 54 56 56 56 57 56 56 56 56 56 56 55 55 56 57 58 58 58 59 59 58 58 57 58 56 56 54 52 52 52
33 37 37 34 32 30 28 25 24 24 24 23 24 25 24 33 45 47 51 54 56 56 56 56 55 55 56 56 55 55 54 55 54 56 56 57 58 57 58 59 58 57 58 56 56 56 54 52 52
35 35 28 27 28 26 26 25 24 26 27 27 27 25 26 33 44 47 50 54 55 55 55 55 55 54 55 56 55 54 54 54 54 56 56 56 56 57 56 57 58 57 57 57 57 56 56 55 54
34 34 29 23 24 23 27 24 24 26 26 30 31 26 26 27 43 46 49 53 55 55 55 55 55 54 55 56 55 54 54 55 54 55 55 56 56 56 56 56 57 57 57 57 57 57 56 56 55
36 33 34 34 33 28 27 29 29 33 33 33 37 32 28 35 43 46 49 53 55 55 55 55 54 54 54 54 55 55 54 54 53 54 54 55 55 55 55 54 55 56 56 56 57 56 55 56 56
36 36 32 34 25 24 26 27 32 37 38 36 38 40 40 44 46 47 49 53 55 55 55 55 54 54 54 54 54 54 54 54 53 53 53 54 54 54 54 54 55 55 56 56 56 55 55 55 55
36 36 36 34 33 29 27 33 39 42 44 39 40 44 47 43 46 47 48 52 55 55 55 54 54 54 53 53 54 54 54 55 54 53 52 53 54 54 54 54 54 55 55 55 54 54 54 55 54
36 35 37 32 30 31 33 31 42 44 45 40 42 46 47 49 48 49 51 52 53 53 55 54 54 54 53 54 54 53 55 55 55 54 53 52 53 54 54 54 54 54 55 55 54 54 54 54 53

GFSSGP_sfc_dewp_078.txt.gz
Dewpoint
57 46 39 37 26 27 23 21 24 22 22 29 32 34 31 30 32 27 53 66 67 68 70 70 71 72 72 72 71 72 73 73 73 73 72 72 72 72 71 72 71 71 72 71 71 70 70 70 70
49 37 36 32 24 18 17 25 23 23 24 29 39 42 40 37 56 57 61 65 68 68 69 70 71 71 71 71 71 71 72 73 73 72 72 72 72 71 71 71 71 71 71 71 70 70 70 70 70
39 37 32 30 27 17 13 21 23 24 23 29 27 36 39 41 58 59 62 66 68 69 69 69 71 71 71 71 71 71 71 72 72 72 72 72 72 71 71 70 70 71 71 71 70 70 70 70 69
36 34 32 27 25 24 19 21 24 22 21 23 26 34 45 53 57 60 63 68 68 69 69 69 70 71 71 71 71 71 71 71 71 71 72 72 71 71 71 70 70 70 70 70 70 70 69 68 68
32 32 27 27 27 25 25 25 24 21 23 24 27 29 43 51 59 61 67 67 66 67 69 69 69 70 71 71 71 71 71 70 70 71 71 71 71 71 70 70 70 70 70 70 69 69 68 67 67
25 28 25 24 24 23 22 23 22 21 22 22 24 31 43 55 59 63 66 66 66 66 67 68 70 70 70 70 70 70 70 70 70 70 70 69 69 68 68 69 69 68 69 68 69 68 67 67 66
18 25 23 22 22 23 21 21 20 21 21 20 30 34 46 54 59 61 63 64 64 65 65 67 68 69 70 69 69 68 68 68 69 68 67 67 66 67 67 68 68 68 68 68 68 67 66 66 65
27 23 22 20 19 19 19 24 23 21 20 31 43 40 40 52 59 61 63 63 63 64 64 64 68 69 69 69 68 66 67 67 66 65 65 64 63 64 65 66 67 67 68 68 67 66 66 65 64
29 23 22 20 20 18 24 21 23 24 21 24 30 43 49 57 61 61 60 62 62 63 63 63 64 65 66 66 67 67 67 66 66 65 64 64 63 64 64 66 66 67 66 66 65 65 65 64 63
31 27 19 24 23 21 23 23 23 22 23 25 24 42 55 58 59 59 59 61 62 62 62 64 64 61 62 65 65 66 66 65 64 63 62 62 63 63 63 64 65 65 65 65 64 65 64 62 60
35 27 25 27 27 26 26 24 25 23 24 24 24 28 54 56 58 58 59 59 61 61 60 63 64 62 62 64 65 65 65 64 64 63 62 62 63 63 64 64 64 64 64 61 61 62 60 59 58
30 32 30 28 28 28 26 26 25 24 26 27 25 25 50 55 57 57 58 58 58 59 60 62 63 63 63 63 63 63 64 64 63 63 63 63 63 63 63 63 63 63 62 59 59 59 58 57 56
26 28 30 31 31 30 29 27 27 27 26 26 25 27 47 53 55 56 58 58 58 58 59 61 62 63 62 62 62 62 63 63 62 63 62 62 62 62 63 63 63 63 60 58 55 55 56 54 54
22 21 22 25 27 30 29 29 29 29 27 25 21 21 43 53 54 54 57 57 58 59 60 62 62 62 61 61 61 61 61 62 61 62 62 61 61 61 62 62 62 61 60 57 53 54 54 53 54
28 28 29 29 27 28 30 27 28 28 25 23 22 21 41 54 54 53 54 56 58 59 60 62 62 61 59 59 60 60 59 60 60 61 61 60 60 61 62 62 61 60 59 55 52 52 53 53 54
27 29 26 27 28 26 23 22 24 24 22 21 20 19 37 52 53 53 54 56 58 58 59 61 61 61 58 59 60 61 60 59 59 59 61 60 60 63 63 62 61 59 57 55 52 51 52 53 53
26 24 25 26 27 25 22 22 23 23 22 21 20 20 21 44 50 51 55 57 58 58 58 59 60 59 57 57 59 59 60 61 61 60 60 61 60 61 62 61 59 57 55 55 52 51 52 53 53
23 25 26 25 25 26 25 24 27 26 26 26 26 25 20 28 42 49 55 57 57 57 58 59 59 58 57 58 58 60 60 61 61 61 60 60 61 61 62 60 57 57 54 53 51 50 51 53 53
25 25 25 26 27 27 26 26 26 25 26 25 26 26 24 25 34 47 56 57 57 57 58 58 59 59 58 57 57 58 58 59 60 61 62 61 60 61 60 58 56 55 53 52 52 50 50 52 53
22 23 25 26 27 27 28 28 29 27 26 26 25 25 25 25 42 51 55 56 57 58 57 57 58 57 58 59 58 58 58 59 60 61 60 59 59 58 57 56 55 53 52 53 52 50 50 51 53
27 27 27 26 28 30 28 26 25 26 26 26 26 26 24 24 41 52 54 55 56 57 57 57 57 57 57 58 58 57 58 58 58 59 60 59 59 58 57 56 55 51 51 52 52 51 50 51 52
28 30 29 28 32 25 29 25 26 27 27 26 26 25 24 28 40 50 53 55 56 56 57 57 57 55 56 57 56 56 55 55 57 58 59 60 59 58 57 56 54 51 51 52 53 52 50 52 51
30 33 34 34 32 32 30 28 26 27 25 26 26 26 25 32 45 50 53 54 56 56 56 56 56 56 56 56 56 54 55 55 57 58 58 59 60 58 57 58 55 54 54 54 54 54 52 52 52
34 35 35 34 32 27 27 28 25 25 25 24 25 25 25 27 46 49 53 55 55 55 56 56 56 56 56 56 55 54 54 55 55 56 57 57 58 59 57 58 58 58 56 56 56 55 53 53 53
35 33 26 26 27 24 27 28 27 26 26 27 30 32 30 27 39 48 52 54 55 55 55 55 55 54 54 55 55 54 53 54 53 56 56 57 57 57 58 57 57 57 57 56 56 55 55 53 53
34 33 25 22 25 26 27 23 24 35 39 37 38 40 40 30 35 46 51 54 55 55 55 55 55 54 55 54 55 54 53 54 54 55 56 57 57 57 57 58 57 56 57 58 57 56 56 56 55
34 34 36 33 31 29 27 28 34 41 42 40 42 45 46 47 37 45 49 54 55 54 54 54 54 54 55 55 54 54 53 54 54 55 55 56 56 56 57 57 58 57 57 57 57 57 57 56 56
36 37 33 34 24 24 25 28 33 39 40 41 43 46 47 47 46 47 51 54 55 55 54 55 54 53 54 54 54 55 54 54 54 53 54 55 55 55 54 55 56 57 57 57 57 56 57 57 56
35 35 35 36 34 26 25 29 40 42 43 41 43 43 45 48 47 49 53 54 54 54 54 54 54 54 54 54 54 55 55 54 53 53 53 53 54 55 55 55 55 56 56 56 56 56 56 55 55
35 35 35 32 30 32 31 29 44 44 41 44 42 44 45 46 49 52 53 53 53 53 54 54 54 53 53 54 54 55 55 55 53 53 53 54 53 54 54 54 54 55 55 55 55 55 55 55 54

GFSSGP_sfc_dewp_081.txt.gz
Dewpoint
59 49 40 38 27 27 19 16 24 22 22 27 30 29 28 30 41 32 56 66 68 69 70 70 69 70 72 72 72 73 73 73 73 73 73 73 73 72 72 72 71 71 72 72 71 72 71 70 71
47 37 37 35 22 10 4 23 22 23 24 26 35 39 38 34 51 54 59 66 67 69 70 70 70 70 71 71 72 73 73 73 73 73 73 73 72 72 72 71 71 71 72 72 70 71 70 70 70
39 35 32 31 25 7 2 19 23 24 24 25 26 35 34 38 56 56 60 66 68 68 69 70 70 70 71 71 71 72 71 73 72 72 73 72 72 72 72 71 71 71 72 72 70 70 71 70 69
37 35 32 25 20 23 12 19 24 23 21 23 27 25 42 50 57 59 62 67 68 68 69 70 70 69 70 71 71 72 71 71 71 72 72 72 72 71 70 70 71 71 71 71 71 70 70 69 68
34 32 23 26 25 24 25 23 24 22 22 23 22 22 38 49 58 61 65 67 68 69 70 70 69 70 70 70 71 71 71 70 70 71 71 70 71 70 70 69 70 70 70 70 70 70 69 68 68
27 30 20 14 20 24 23 24 23 20 20 19 23 24 33 53 59 63 67 67 69 68 69 69 70 70 69 70 70 70 70 70 70 71 71 71 69 69 68 68 68 68 69 69 69 69 68 68 67
23 26 16 19 20 22 17 23 20 17 18 20 26 27 39 52 59 64 67 68 68 70 69 68 69 70 69 68 69 69 69 69 69 69 70 68 67 67 67 66 67 68 68 68 68 68 67 67 66
25 23 19 20 16 16 20 22 22 21 19 26 41 37 33 49 60 64 66 67 67 68 69 69 69 69 71 71 68 68 68 68 68 67 66 66 65 64 65 66 66 66 68 68 68 67 67 66 65
29 22 19 17 17 15 22 21 22 24 22 23 25 34 45 55 61 63 64 64 65 66 67 69 68 69 70 70 70 68 68 67 67 67 65 65 65 64 63 65 65 65 66 67 66 66 65 64 64
30 25 21 22 21 19 20 21 21 22 23 24 25 28 54 58 60 60 60 61 63 64 65 67 66 67 68 67 68 69 69 68 66 66 65 64 65 64 63 63 65 65 66 66 66 65 64 63 61
32 24 26 25 25 24 24 24 24 23 24 25 27 27 38 53 58 59 60 60 61 64 63 66 66 66 66 66 67 67 67 67 65 64 63 64 64 64 62 64 65 65 66 66 64 63 61 62 60
25 32 28 26 25 25 24 23 23 24 27 28 29 30 29 36 50 57 57 58 61 63 65 65 65 65 65 66 65 65 65 65 64 63 63 64 64 64 64 64 65 64 64 64 63 62 61 61 60
27 25 27 27 28 28 29 29 29 29 30 30 29 29 31 32 37 47 55 58 60 62 63 63 64 64 64 64 64 65 65 64 64 63 62 64 62 64 64 64 65 64 62 63 62 60 60 59 59
25 23 23 24 27 27 26 25 28 28 29 29 29 29 30 30 35 45 55 57 59 61 62 62 62 63 64 64 64 64 64 64 64 63 63 63 63 64 64 64 64 64 61 62 60 59 59 58 57
23 22 24 27 28 28 28 25 27 28 29 30 29 28 28 32 36 48 52 56 59 60 61 62 63 64 63 62 63 63 62 62 63 63 63 62 63 63 63 63 63 63 60 59 59 59 58 57 56
21 23 18 27 28 28 27 20 22 25 25 25 25 26 26 25 32 45 53 55 58 59 61 62 63 63 62 62 62 61 61 61 61 62 62 62 62 63 63 63 63 62 60 58 57 56 56 56 55
22 14 25 25 28 27 25 23 25 26 25 25 25 25 25 27 28 45 53 55 57 59 61 61 62 62 61 62 61 61 61 61 60 61 61 61 61 62 62 63 62 62 59 57 56 55 55 55 55
15 21 25 24 25 25 25 26 28 29 28 29 28 29 30 29 28 32 50 55 57 59 61 61 61 61 61 61 60 60 61 61 62 61 61 61 61 61 63 62 61 60 59 57 55 55 55 55 54
19 20 19 23 25 25 23 23 25 28 29 30 29 29 29 30 30 30 45 56 58 60 60 59 60 60 59 59 59 59 59 60 61 61 62 61 61 61 61 61 59 59 58 56 55 55 55 54 55
21 20 19 23 26 26 25 25 27 28 29 29 29 29 29 30 29 32 48 56 58 59 59 59 59 59 59 59 58 58 59 60 60 61 61 62 60 61 61 58 59 58 57 57 55 55 54 54 55
24 24 26 25 27 28 28 24 22 25 27 28 29 29 29 29 29 32 49 55 57 58 59 58 58 59 59 59 59 59 59 60 60 60 59 59 60 61 59 58 58 57 57 55 55 55 55 53 54
28 30 29 29 29 25 30 23 25 26 26 27 29 31 31 30 30 30 47 53 56 58 59 58 58 58 58 60 58 57 56 56 58 60 60 59 59 58 58 57 57 55 56 55 54 53 54 55 53
30 32 32 32 30 30 28 26 25 28 26 27 30 30 31 32 32 34 46 51 55 58 58 57 57 58 58 58 57 57 57 57 59 59 59 59 59 58 57 57 55 55 55 56 55 54 54 55 55
33 32 32 33 31 26 26 26 24 26 27 27 28 30 33 35 34 42 49 53 55 57 57 56 56 56 57 57 57 57 57 56 57 58 58 58 59 58 58 57 56 55 55 55 55 55 55 55 55
34 31 24 23 26 21 26 26 26 31 40 39 40 43 44 46 36 48 52 53 55 56 55 55 56 55 56 57 56 56 57 57 56 57 57 58 58 58 57 57 56 56 55 56 56 56 55 56 56
34 31 25 20 23 25 28 25 28 41 41 43 45 46 47 48 48 44 51 53 54 55 55 56 57 55 55 56 55 55 56 56 56 57 57 57 58 58 58 58 57 56 56 56 56 56 56 57 57
34 31 34 31 30 28 26 27 37 40 40 42 43 44 46 48 47 46 48 54 55 55 55 56 55 54 55 55 55 55 56 56 55 57 57 57 58 58 58 58 58 57 55 55 55 56 56 56 56
36 36 33 34 23 22 24 27 31 39 40 41 43 43 45 47 49 47 49 54 55 54 55 55 55 54 55 55 55 55 56 56 56 56 56 57 57 58 58 58 57 57 57 55 54 53 55 56 56
34 36 35 35 34 25 23 26 41 40 41 43 41 43 44 45 49 52 53 53 55 54 55 55 55 54 54 54 55 55 55 55 55 55 56 56 57 57 57 57 58 57 56 55 56 55 55 55 56
35 34 33 30 28 32 29 28 43 44 43 43 40 40 42 44 45 50 53 53 54 54 54 54 55 54 54 54 54 55 55 55 54 55 55 56 55 56 56 56 56 57 57 57 56 55 56 55 55

GFSSGP_sfc_dewp_084.txt.gz
Dewpoint
52 45 35 36 23 15 6 5 8 20 23 27 30 22 26 28 32 30 53 63 64 66 69 70 70 71 72 72 73 73 73 73 73 73 73 73 73 73 73 72 72 72 72 72 71 71 71 71 71
43 37 31 29 12 5 3 8 9 12 21 25 27 30 31 29 37 46 56 62 64 65 68 69 69 71 72 72 73 73 73 73 73 73 73 73 73 73 72 72 72 72 72 72 71 71 71 71 71
39 31 23 17 14 5 2 5 9 21 21 23 28 35 32 33 47 48 54 63 65 65 66 68 70 70 72 72 72 73 73 73 72 73 73 73 73 72 72 71 71 72 72 72 71 71 71 71 70
33 27 24 16 8 13 7 5 20 22 18 21 24 24 30 43 48 51 56 63 64 65 67 69 69 70 71 71 72 72 71 72 72 72 73 73 71 71 72 71 71 72 71 71 71 71 71 70 69
32 23 14 12 8 8 14 13 16 22 23 20 14 20 27 40 50 56 58 62 64 66 68 70 69 69 70 71 72 71 71 71 72 72 70 70 70 71 70 70 69 71 70 70 69 70 70 69 68
24 22 12 7 8 13 15 10 16 16 14 16 15 20 26 46 50 57 60 62 65 67 70 70 70 69 69 70 71 71 71 70 70 71 70 70 70 69 68 68 68 69 69 68 69 69 69 68 68
23 18 13 11 8 10 14 12 16 11 8 8 18 23 27 39 51 61 62 64 68 69 70 70 70 70 69 68 69 69 69 70 69 70 69 68 68 67 68 68 68 67 68 68 69 69 68 68 67
24 20 17 15 14 13 13 15 14 13 11 22 26 26 30 40 50 62 64 66 68 69 70 70 70 70 70 69 68 69 69 69 68 69 67 67 67 67 67 67 67 66 67 68 68 68 67 66 66
25 19 17 16 16 16 17 16 17 18 17 16 22 25 31 43 53 60 63 64 65 67 69 71 69 70 71 70 70 69 69 68 68 67 67 66 67 68 66 66 66 66 66 67 68 67 66 65 64
24 20 19 19 20 18 18 16 17 17 18 21 21 24 27 40 45 53 58 59 62 64 67 68 69 69 69 68 70 70 70 69 69 68 67 66 67 66 65 64 65 65 66 67 66 66 65 64 63
26 21 22 22 22 20 18 17 18 18 20 19 22 19 23 32 33 47 52 56 57 60 65 68 68 69 69 68 69 70 70 69 69 68 68 67 65 64 62 61 64 67 65 65 66 65 65 63 63
24 24 23 21 21 21 20 20 20 20 24 23 22 22 24 27 31 32 42 49 55 59 64 67 67 68 68 67 68 68 67 68 68 68 68 65 64 64 62 60 60 64 64 64 65 65 65 63 61
20 17 17 21 21 21 21 20 21 21 23 24 24 26 29 30 26 29 33 40 50 58 62 66 67 67 66 66 66 66 66 67 66 66 66 65 63 62 60 60 63 66 65 65 65 65 63 62 60
21 23 22 22 23 23 23 23 22 24 24 24 25 25 27 28 25 27 31 37 44 54 60 65 65 66 66 66 65 65 66 66 66 66 64 64 62 62 61 62 65 64 64 64 64 64 62 60 58
23 19 18 18 19 22 24 24 24 23 21 23 25 26 27 30 26 28 32 37 45 52 59 65 65 66 65 64 65 65 65 66 65 65 65 64 64 64 63 64 65 64 64 64 63 63 62 58 57
18 18 16 14 24 26 27 19 19 22 23 23 24 26 26 25 23 27 30 38 45 53 58 64 63 65 65 64 63 63 64 65 65 64 65 64 62 63 63 64 64 64 63 64 63 63 58 57 56
17 10 10 17 23 23 24 21 23 24 26 25 25 25 25 26 24 28 32 39 47 54 58 63 64 64 65 63 62 63 63 63 63 64 64 63 63 62 63 64 65 63 62 63 61 62 58 56 55
10 14 15 17 17 20 19 20 21 23 26 29 28 27 27 28 26 27 30 42 49 55 59 62 63 64 63 61 62 61 62 63 62 62 62 62 62 62 64 63 63 62 61 60 61 60 59 56 55
14 12 10 14 16 20 21 20 20 22 22 25 28 29 28 28 29 27 32 42 52 56 60 62 63 64 62 61 61 60 61 61 62 62 62 62 62 62 62 62 62 61 59 59 59 59 58 56 56
16 15 15 17 20 24 24 23 24 24 24 26 27 29 30 29 28 28 31 42 53 56 60 62 62 62 62 60 59 59 59 61 60 60 61 62 62 62 62 62 61 60 59 58 59 59 57 56 56
20 18 18 20 26 27 27 23 22 24 24 24 25 27 28 29 29 28 29 39 52 55 59 60 61 62 60 60 60 59 60 60 60 60 61 62 62 61 61 61 60 60 59 57 58 60 58 55 55
18 24 27 27 26 21 27 19 21 24 25 26 27 28 28 28 29 28 29 33 50 54 59 60 61 61 60 60 59 58 55 56 57 60 60 61 60 61 60 61 60 60 59 58 58 59 58 56 55
24 30 29 29 27 27 25 24 18 24 25 28 28 29 30 30 30 30 31 31 46 54 59 60 60 60 60 59 59 57 56 56 57 61 60 59 59 59 59 59 59 59 59 58 58 59 59 57 56
30 30 29 29 28 26 23 23 19 25 34 36 38 38 38 39 41 39 36 36 45 54 59 59 59 58 59 60 58 58 57 57 57 60 59 58 58 58 57 57 57 58 58 58 58 59 58 57 57
30 26 19 23 26 18 24 24 23 34 38 40 42 42 44 46 46 46 42 44 49 55 58 57 58 57 59 59 58 57 57 57 57 59 58 58 58 57 57 57 56 57 57 57 57 57 57 57 57
27 23 19 16 18 18 25 23 28 37 40 41 41 43 44 46 49 47 44 49 51 55 56 56 57 57 58 58 57 57 56 56 56 58 58 58 58 58 58 57 57 56 57 57 58 57 57 57 58
30 30 29 29 27 25 19 24 34 36 38 40 40 42 43 46 48 50 45 51 53 55 55 56 57 57 57 57 56 56 56 56 56 57 57 58 59 59 59 58 57 56 56 56 57 57 56 57 57
32 32 31 32 23 19 17 21 27 36 39 39 39 41 42 44 46 50 48 52 53 55 55 58 57 56 57 56 56 56 56 56 56 56 57 57 58 58 59 59 58 56 56 56 56 55 56 56 56
33 33 34 34 32 24 19 24 38 39 40 38 39 41 42 42 43 47 52 52 54 54 56 56 55 55 55 56 56 55 56 56 56 56 56 56 57 57 58 58 57 56 55 55 54 52 53 55 56
30 31 32 29 28 31 31 26 40 41 39 39 41 40 40 40 41 44 48 53 54 55 55 55 55 55 56 56 55 55 57 56 56 55 56 57 57 57 57 58 57 57 56 55 53 51 51 51 51

GFSSGP_sfc_dewp_087.txt.gz
Dewpoint
53 43 35 26 21 16 7 6 2 5 14 20 25 18 19 21 25 33 48 59 61 62 66 69 71 72 72 72 72 73 73 73 73 73 73 73 73 73 73 73 73 73 73 72 71 71 70 71 72
36 33 31 22 18 8 7 6 4 8 10 24 27 26 24 26 30 43 50 58 60 61 66 68 71 71 72 73 73 73 74 74 73 73 73 73 73 73 72 72 73 73 73 73 71 71 71 72 71
48 33 21 16 14 12 4 3 5 6 17 17 19 29 29 29 36 39 54 58 57 56 62 68 70 71 72 72 73 73 73 73 73 73 73 73 73 73 72 71 72 72 73 73 71 71 71 71 70
34 27 21 16 13 11 11 9 6 10 18 18 19 23 31 36 43 44 55 57 58 58 61 69 69 71 72 72 72 73 73 72 72 73 73 73 71 71 70 70 71 72 72 72 71 71 71 70 69
28 21 16 12 12 10 8 8 7 14 17 20 16 17 24 37 40 47 53 57 59 61 63 70 69 70 71 72 72 72 71 72 72 72 72 71 71 70 71 70 71 71 70 70 70 70 70 69 69
27 24 17 13 12 10 10 9 10 9 13 19 19 19 21 35 41 48 53 58 61 63 66 69 69 70 70 71 71 71 71 71 72 71 71 71 70 70 69 69 68 68 68 68 68 69 69 69 68
27 21 17 14 12 11 8 14 14 8 12 9 7 16 24 31 47 53 53 60 63 65 68 69 70 69 69 69 70 70 70 70 70 69 70 69 68 68 68 68 68 68 67 67 68 69 69 68 67
27 24 19 16 13 12 11 12 13 10 10 12 14 15 22 39 44 55 57 60 64 67 69 69 70 70 70 70 69 69 70 70 70 70 68 68 68 68 68 68 68 67 66 67 67 67 68 67 66
27 22 19 16 14 14 16 14 14 15 14 13 16 18 25 36 40 53 57 61 64 66 68 70 70 69 70 69 68 69 69 69 68 68 67 66 66 68 67 66 67 66 66 66 67 67 67 66 65
24 22 19 18 16 17 17 16 16 16 16 19 17 18 22 29 34 41 53 58 61 62 66 68 69 69 70 66 70 68 68 68 68 66 68 65 67 66 65 66 66 66 66 66 67 66 66 65 65
24 21 20 17 19 20 20 18 18 18 18 19 21 21 20 23 31 33 45 53 57 59 62 66 68 69 69 68 68 66 67 69 68 69 68 67 68 69 65 65 66 66 66 66 66 66 66 64 65
22 23 22 20 20 20 20 20 19 19 22 21 21 22 22 21 28 29 34 42 53 56 60 64 66 68 68 64 64 65 68 69 68 68 68 69 68 68 66 63 63 64 67 66 65 66 66 65 64
16 15 17 18 14 16 19 18 18 18 19 19 21 23 25 25 22 26 28 32 43 53 57 64 65 67 66 66 67 67 67 68 68 68 68 69 68 67 65 63 63 64 66 64 63 63 64 64 63
16 16 16 19 17 17 19 18 18 19 19 19 21 23 26 27 26 25 25 30 38 47 55 64 65 66 66 67 67 66 67 67 67 67 67 67 67 66 64 64 64 65 66 65 63 63 63 64 63
21 19 17 16 14 14 15 15 18 17 18 18 19 22 23 28 26 27 25 30 34 39 49 62 66 66 66 66 66 65 66 66 65 65 66 66 65 64 65 64 66 63 64 66 63 63 63 63 59
16 16 11 10 10 14 15 14 16 17 19 20 20 20 23 25 26 28 25 27 31 35 43 59 63 65 66 64 64 65 65 66 64 65 65 65 64 63 64 64 65 65 64 64 62 62 62 61 58
13 8 8 5 13 17 20 18 17 19 21 22 24 24 23 25 26 28 25 26 30 34 45 56 64 64 65 64 64 63 64 64 63 65 65 64 64 63 64 64 65 64 64 64 63 62 61 60 58
6 6 7 9 8 13 19 19 17 17 19 22 21 24 25 25 25 27 25 26 29 37 48 57 64 64 65 64 63 62 61 62 62 63 64 64 64 63 64 63 64 63 63 63 63 61 61 59 57
13 11 8 7 6 11 14 14 15 16 17 19 19 21 26 28 27 28 29 29 35 44 52 57 63 64 64 63 61 60 60 61 62 62 64 64 64 63 63 63 63 63 62 62 62 61 60 59 56
16 15 12 11 12 15 17 20 21 20 21 21 21 23 23 28 27 28 30 30 41 48 54 58 62 63 64 62 60 60 60 59 61 62 62 62 62 63 62 62 62 62 61 61 61 60 59 59 57
15 15 15 13 14 19 21 19 18 21 22 23 23 24 24 26 28 29 30 30 42 49 55 57 60 62 63 61 59 59 59 59 60 60 60 62 63 63 63 62 62 61 61 60 60 60 58 56 57
16 14 15 17 22 17 20 17 18 18 19 24 26 28 28 26 27 29 30 30 38 50 55 57 60 61 62 61 59 58 57 56 57 57 58 60 61 61 62 62 62 61 60 59 60 60 59 58 56
17 20 25 25 24 24 20 17 16 18 22 29 32 34 34 30 29 29 30 30 29 46 53 58 60 60 61 60 59 58 57 55 56 57 60 60 60 60 61 61 61 60 60 59 59 59 59 59 57
22 25 26 25 23 21 19 18 12 20 32 35 37 39 41 41 40 35 35 35 29 40 54 60 59 59 60 60 59 59 57 55 55 59 60 59 60 59 59 59 60 60 59 59 59 59 59 59 58
23 25 21 19 23 19 17 19 18 32 35 37 38 39 41 44 46 47 43 38 36 43 54 59 59 59 59 60 59 58 57 57 55 58 59 59 58 58 57 57 57 59 59 59 59 59 59 60 58
25 25 21 12 14 19 22 19 22 34 38 37 38 40 42 44 46 48 50 45 42 44 54 59 59 59 59 59 58 58 56 55 55 58 59 59 58 58 57 57 57 57 58 58 59 59 59 60 59
23 23 22 21 21 21 19 14 32 34 37 36 36 39 41 44 46 48 50 46 48 50 58 58 58 58 58 59 57 57 57 56 55 58 60 59 59 58 58 58 56 57 57 57 57 57 57 58 59
24 27 27 29 20 17 13 14 26 37 35 34 35 39 41 43 44 45 48 51 51 57 57 58 58 57 58 58 57 56 56 56 56 57 58 59 60 59 59 57 57 56 57 57 57 57 57 57 58
27 30 31 29 26 22 20 26 38 36 35 35 36 39 41 42 43 42 43 47 55 56 56 57 58 57 57 57 56 57 56 57 57 57 58 57 58 57 58 58 57 56 56 56 56 55 55 54 55
32 28 29 28 23 25 28 28 38 36 36 38 37 39 40 41 41 40 41 43 53 55 56 57 57 56 57 56 56 56 56 57 56 56 56 57 56 57 58 58 58 56 55 55 54 54 53 53 54

GFSSGP_sfc_dewp_090.txt.gz
Dewpoint
54 48 40 33 20 20 12 7 8 8 6 12 20 21 18 20 35 37 53 59 66 65 69 70 72 72 73 73 73 73 73 73 73 74 73 74 74 74 73 73 73 73 73 73 72 71 71 71 72
40 38 33 26 18 12 8 9 8 6 10 26 25 24 21 21 31 46 53 58 62 64 67 69 71 72 73 73 73 73 74 74 73 73 74 73 73 73 73 72 73 73 72 73 72 71 71 72 71
45 33 27 21 14 13 12 12 8 6 15 15 13 17 22 26 30 44 55 59 62 63 65 68 71 71 72 72 73 73 73 73 73 73 73 73 73 72 72 71 72 73 72 72 71 71 72 71 70
37 38 26 16 13 12 10 13 11 7 14 16 14 13 26 38 42 46 56 57 58 62 65 69 70 71 72 72 72 73 73 73 73 73 73 73 73 72 71 71 72 71 71 71 71 71 71 70 69
32 28 21 16 13 12 14 13 10 8 10 16 16 18 23 35 40 51 56 56 60 65 70 68 69 71 72 72 72 73 72 72 72 72 73 73 72 71 71 70 71 70 69 69 69 69 69 69 69
30 26 19 15 14 13 12 12 9 7 8 15 20 18 22 36 39 50 57 60 65 67 71 69 70 71 71 71 71 71 71 70 72 72 72 72 71 70 70 70 69 68 68 68 68 67 69 69 69
32 25 21 19 16 14 13 15 11 8 9 10 11 16 25 31 47 54 57 64 68 69 71 70 69 70 70 69 70 70 70 70 71 71 71 71 70 69 69 68 68 69 68 67 67 68 67 68 67
32 28 22 20 17 15 15 14 11 11 11 15 12 15 20 43 48 58 62 64 68 70 72 71 71 70 70 70 69 70 70 70 70 70 69 68 68 69 68 68 68 68 68 67 68 68 68 67 66
30 26 23 21 18 18 17 14 14 14 12 12 14 16 24 41 44 54 56 62 65 68 70 71 71 70 71 70 69 69 70 70 69 69 68 67 68 68 67 66 67 67 67 67 67 67 67 66 66
23 26 23 21 20 18 17 17 15 15 14 17 17 23 24 32 37 44 52 57 62 66 68 70 70 70 70 67 69 69 69 69 69 69 68 68 68 68 66 66 66 66 66 66 66 67 66 66 65
20 21 22 21 21 19 17 18 19 17 18 19 23 22 22 23 32 37 46 51 59 64 66 68 69 69 69 67 69 68 68 68 68 68 68 67 67 68 66 66 66 65 66 66 66 66 66 65 65
18 19 19 20 21 21 18 19 20 21 23 22 21 23 23 28 31 29 34 41 50 60 63 67 68 68 69 67 67 68 67 68 69 69 68 68 68 67 66 65 65 64 65 65 65 65 65 65 65
19 17 18 19 19 19 18 15 18 19 19 19 19 22 26 28 25 25 30 32 42 55 61 65 68 68 68 68 66 67 68 69 68 68 68 68 67 66 66 65 64 63 65 64 64 64 63 62 64
15 11 10 11 14 11 15 14 14 19 18 17 18 20 23 25 25 26 28 30 36 45 57 65 66 68 67 67 68 68 68 68 68 68 68 67 66 66 65 65 64 64 65 63 64 63 62 63 63
20 18 18 18 18 17 18 16 17 17 17 15 15 18 20 28 27 28 30 32 35 38 49 65 66 68 67 67 67 66 67 66 66 67 67 66 66 66 65 64 64 64 65 64 63 62 62 62 63
17 17 14 12 9 9 9 9 8 10 13 16 19 20 19 22 24 26 31 31 30 32 43 65 65 66 67 66 66 65 65 66 66 66 66 66 65 65 64 64 64 64 64 64 62 62 62 62 63
16 11 11 8 8 10 8 11 15 17 17 19 21 22 23 24 23 26 30 31 30 29 42 64 66 66 66 66 67 66 66 65 65 65 65 64 65 64 64 64 64 64 64 63 62 61 61 61 61
13 9 7 6 6 7 9 12 16 19 18 19 18 23 24 24 25 28 32 31 30 29 43 64 65 66 66 66 66 65 64 64 64 64 64 64 64 64 64 64 64 64 63 62 62 61 61 61 61
14 13 14 13 14 12 12 9 8 11 13 15 16 17 18 22 27 29 35 38 35 35 41 64 65 65 65 64 63 62 61 61 63 63 64 64 64 64 64 63 63 63 62 62 62 61 60 60 61
14 14 13 14 15 14 12 10 12 15 18 20 19 20 22 23 24 30 32 40 42 41 50 63 64 64 64 64 63 62 61 61 61 62 62 63 64 63 63 62 62 62 62 62 61 60 59 59 60
13 12 11 11 12 14 15 13 16 15 16 19 22 23 24 24 27 29 33 37 43 48 57 61 64 63 64 64 62 61 61 61 61 61 61 62 62 63 63 62 62 62 62 61 61 60 58 57 59
15 15 15 14 12 11 16 16 19 16 14 20 25 31 32 29 27 28 32 37 40 51 58 59 63 62 64 63 61 60 59 57 59 59 60 61 62 62 62 62 62 62 61 61 61 61 59 58 57
18 18 16 18 20 22 20 18 15 15 14 17 33 36 42 45 39 31 31 36 37 49 57 58 62 61 63 62 62 60 59 58 58 59 59 61 61 61 61 62 62 61 61 60 60 60 60 59 57
19 19 19 20 22 21 19 16 14 14 33 36 39 40 42 44 45 47 48 40 34 47 55 59 61 60 62 61 62 60 59 57 57 58 60 60 60 59 58 60 61 61 61 60 60 60 60 59 58
24 23 17 17 20 19 20 22 18 32 36 38 38 39 42 44 46 47 48 51 51 45 55 58 59 59 61 61 61 60 60 59 58 58 59 59 58 58 57 57 59 60 60 60 60 60 60 59 58
21 22 18 17 18 17 26 28 22 37 37 37 37 39 41 43 46 47 49 51 52 51 57 59 59 58 60 60 60 60 59 58 57 59 58 59 58 58 57 57 57 58 59 59 59 59 59 58 58
20 29 24 26 26 22 17 32 36 39 35 34 36 39 41 42 45 46 47 49 51 54 58 60 59 59 59 59 60 59 59 57 57 59 59 59 58 57 57 57 57 57 58 58 59 59 57 58 58
22 23 27 28 23 16 13 15 19 39 33 33 36 39 40 41 43 44 45 47 53 58 59 60 59 58 58 60 60 58 58 58 59 59 59 59 59 58 57 57 57 57 57 57 58 58 58 58 59
22 24 29 31 28 22 23 29 41 40 41 34 36 39 40 40 42 41 42 43 46 53 57 58 58 58 58 59 59 58 57 57 58 58 59 59 60 59 58 57 57 56 56 57 57 57 57 56 56
33 23 27 29 25 24 27 27 43 43 35 36 37 39 39 39 40 39 39 39 41 42 48 57 58 58 58 59 57 57 57 57 57 58 58 58 58 59 58 58 57 56 56 56 55 55 55 55 54

GFSSGP_sfc_dewp_093.txt.gz
Dewpoint
56 52 47 37 27 21 17 14 15 11 9 26 25 25 23 22 38 45 62 65 68 69 71 71 72 73 73 73 73 73 73 74 74 74 74 74 74 74 73 73 73 74 74 73 72 72 71 72 72
48 43 40 32 20 15 15 17 15 12 23 28 24 23 22 29 46 54 60 64 67 69 70 71 72 72 72 73 73 73 73 74 74 74 74 74 74 74 73 73 73 73 73 73 72 72 72 72 71
44 40 31 26 21 16 15 14 14 14 19 18 18 22 24 37 47 54 61 64 65 66 68 70 71 71 72 72 72 73 73 73 73 73 74 74 73 73 73 72 73 73 73 72 71 71 72 71 70
38 38 36 22 18 16 14 13 12 12 16 17 15 18 31 43 46 56 61 64 64 65 68 70 70 71 72 72 72 72 72 72 72 73 73 73 73 73 72 72 73 72 71 70 70 72 71 70 70
29 32 27 22 17 16 15 14 13 13 12 20 16 22 29 42 55 56 57 61 64 67 68 69 69 70 71 72 72 72 72 72 72 72 72 73 72 72 71 71 71 70 69 70 70 70 70 69 69
27 30 24 23 21 19 17 15 14 13 13 16 18 18 24 37 52 55 57 65 68 68 68 69 70 70 71 71 71 71 72 72 69 72 72 72 71 70 70 70 70 69 69 69 68 68 69 69 68
32 28 24 21 20 19 20 19 16 14 12 9 22 23 25 47 52 56 58 65 69 69 68 68 69 70 70 69 70 70 70 69 69 71 71 71 70 70 70 69 69 69 68 68 67 67 67 68 68
32 33 30 26 21 20 21 21 18 13 11 23 14 16 18 45 52 55 60 63 67 69 68 68 68 68 68 68 69 69 69 68 68 71 70 70 69 69 69 68 69 68 67 67 67 67 66 67 67
31 31 29 28 25 23 23 20 18 17 13 18 19 17 43 47 50 52 56 64 66 69 68 68 68 68 67 67 68 69 70 69 69 69 68 67 68 68 68 67 68 68 67 67 67 67 67 67 67
23 25 28 27 26 24 22 20 19 19 18 20 21 23 31 41 49 50 51 61 65 66 69 69 68 68 68 68 67 67 69 69 68 68 67 67 67 67 66 66 67 67 66 66 67 67 66 66 66
23 21 22 25 27 24 22 21 20 20 22 23 28 21 22 31 37 49 52 56 63 66 68 68 68 68 68 67 67 68 67 68 67 67 67 66 67 66 65 65 66 65 66 65 65 65 66 65 65
20 21 20 20 20 20 20 21 21 19 24 25 23 24 25 25 29 31 41 42 56 64 67 68 67 67 67 67 68 67 67 67 67 66 67 65 66 66 65 65 64 63 64 64 64 65 64 65 65
20 22 22 20 20 20 21 19 20 18 17 17 18 20 23 27 26 27 31 39 40 61 65 68 67 66 67 67 67 67 67 67 67 67 66 66 65 65 65 64 64 64 64 63 63 63 63 63 64
14 15 16 18 18 16 18 17 17 19 18 15 16 18 20 23 24 24 26 30 32 39 63 67 67 66 67 67 65 65 67 67 66 66 66 65 65 65 65 64 64 64 64 63 63 63 63 62 64
23 20 19 18 17 16 18 16 18 19 19 17 17 17 18 25 23 24 24 27 29 30 57 66 67 67 67 66 66 65 66 66 65 66 65 65 65 64 64 63 63 64 64 63 63 62 62 62 63
23 21 17 17 16 14 13 12 14 15 14 12 14 15 16 16 23 23 26 28 30 31 39 65 67 66 66 66 65 65 65 65 65 65 65 64 65 64 63 63 62 64 63 62 62 61 61 61 61
22 18 16 15 15 14 9 7 10 13 14 16 19 18 20 22 20 24 25 28 28 29 33 63 67 66 65 66 65 64 64 64 64 64 63 64 64 64 63 62 63 63 63 62 61 61 61 60 61
18 16 13 11 11 14 14 13 14 14 13 17 17 15 15 17 24 26 26 27 28 27 33 63 65 65 65 65 65 64 64 63 63 63 63 63 64 63 63 62 62 63 63 62 61 60 61 60 61
14 12 11 13 15 13 13 15 13 13 11 10 11 12 13 17 18 20 27 31 28 29 34 62 64 65 65 64 64 63 63 63 62 63 63 62 63 62 62 62 61 63 62 61 61 61 60 60 61
14 12 13 15 15 13 11 11 15 14 14 14 14 14 15 16 18 20 22 30 34 30 41 62 64 65 64 64 64 63 62 60 61 62 63 63 62 62 62 62 62 62 61 61 61 61 59 59 61
16 15 14 13 13 13 12 12 13 14 15 17 18 17 18 18 19 21 23 27 34 35 51 63 63 64 63 63 61 61 60 60 59 59 60 62 63 62 62 62 62 62 62 61 61 61 59 58 59
16 19 18 16 15 14 14 12 17 20 21 20 18 30 25 43 44 33 27 30 33 38 60 63 63 63 63 62 61 60 59 59 59 59 60 61 62 63 62 62 62 62 61 61 61 61 59 58 57
19 23 20 20 16 22 21 20 20 22 19 15 40 41 43 44 46 46 48 50 42 48 62 63 63 63 63 61 60 60 58 58 59 59 59 60 61 61 62 62 60 61 61 61 61 60 59 58 57
22 21 21 20 18 17 19 20 18 18 18 40 42 44 44 45 45 47 48 50 50 51 59 62 62 62 62 61 60 59 58 57 57 57 58 59 61 61 61 62 62 61 61 61 61 61 59 59 58
24 21 19 18 18 17 24 28 24 35 39 43 43 42 45 45 46 47 47 48 49 51 52 61 61 62 62 61 60 59 58 57 56 57 58 58 58 57 57 58 59 60 61 61 61 61 60 59 58
21 21 24 16 16 17 25 28 27 41 40 43 41 41 43 44 45 44 45 47 48 53 55 57 60 62 61 61 60 59 58 57 57 58 58 56 56 57 57 56 57 58 58 60 60 60 60 59 59
21 23 28 28 25 22 21 22 32 39 39 42 39 40 41 42 42 42 42 44 45 48 58 58 59 60 61 60 59 59 59 57 58 58 58 57 58 57 56 56 57 57 58 59 59 59 59 59 58
29 23 26 30 25 21 19 18 33 38 39 42 38 39 40 40 40 40 40 41 42 46 52 59 60 59 60 60 60 59 58 58 58 58 57 58 58 57 57 56 56 57 57 58 58 58 59 59 58
28 28 28 30 29 23 24 30 40 38 40 42 38 38 38 38 37 37 37 39 39 42 45 49 58 59 59 59 59 58 57 59 58 58 58 58 58 57 56 56 56 56 57 57 57 57 58 57 57
32 34 35 28 25 29 28 28 39 40 41 44 38 37 36 35 35 35 35 36 37 38 41 43 47 57 57 59 58 58 57 57 58 59 59 59 58 58 57 56 56 56 56 57 56 56 56 57 57

GFSSGP_sfc_dewp_096.txt.gz
Dewpoint
55 50 45 36 26 21 17 17 17 14 14 19 24 25 21 22 37 40 64 66 68 69 71 72 72 72 73 73 73 73 73 73 73 73 73 73 73 73 73 73 74 74 74 72 72 72 71 71 72
46 44 38 31 23 16 15 19 17 16 16 21 25 23 23 38 53 62 62 67 68 69 70 71 72 72 72 72 72 73 73 73 73 73 73 73 73 73 73 73 73 73 74 72 71 71 71 71 71
42 39 31 27 22 17 14 16 15 16 14 16 15 21 26 42 58 60 64 67 69 69 70 71 71 72 72 72 72 72 73 73 73 73 73 73 73 73 73 73 73 73 73 72 71 71 71 71 70
37 38 35 27 21 19 17 15 15 15 15 15 14 14 35 45 55 61 65 66 66 68 69 70 70 71 72 72 72 72 72 72 72 73 73 73 73 73 72 72 71 73 72 71 71 71 71 70 69
29 34 29 25 24 21 19 19 17 15 16 18 16 16 31 54 58 63 64 63 64 67 69 69 69 70 71 72 72 72 72 71 72 72 73 73 73 73 72 71 72 71 71 71 71 71 70 69 69
25 30 26 25 23 23 22 20 19 18 17 16 16 19 25 53 60 62 64 63 65 67 68 69 70 70 71 71 71 71 71 71 71 72 72 72 72 72 71 71 70 70 70 70 70 70 69 69 69
24 28 26 24 22 22 22 24 20 19 16 13 24 20 32 49 56 59 63 66 67 67 68 68 69 70 69 69 69 70 70 71 70 71 71 71 70 70 70 70 70 69 69 69 69 69 69 69 68
33 32 31 27 25 23 24 25 23 19 18 20 15 20 21 46 55 61 66 67 67 67 67 67 68 68 68 68 69 69 70 69 68 69 69 70 69 69 69 69 69 68 68 68 68 68 67 68 67
31 30 30 30 30 29 30 25 22 23 19 22 16 22 39 48 55 60 64 66 67 67 66 67 67 67 66 67 69 69 69 68 67 68 69 68 69 68 68 68 68 67 66 67 67 67 66 67 66
24 24 29 31 31 29 28 25 23 20 21 24 21 27 45 47 49 54 61 64 66 66 66 67 67 67 66 68 67 67 69 68 68 68 68 68 67 67 67 67 67 66 66 66 66 66 66 66 66
24 23 23 23 26 27 27 26 24 21 21 22 25 24 28 41 46 48 57 63 64 67 67 67 67 67 67 67 67 68 68 68 67 67 66 66 66 66 66 66 66 65 66 65 66 66 66 65 65
20 21 21 21 22 21 21 22 21 21 23 24 24 24 24 26 37 44 49 60 63 66 67 68 67 67 67 67 66 67 67 67 67 67 66 65 66 64 64 65 64 64 65 63 64 63 64 64 65
22 23 24 23 23 21 21 20 20 20 21 20 17 20 23 24 24 28 32 46 61 64 67 68 68 68 67 67 66 66 66 66 66 66 66 65 65 64 64 64 63 63 64 63 62 62 62 63 64
17 16 15 17 19 19 19 18 18 21 20 19 20 20 21 22 21 21 26 29 40 62 66 67 67 68 67 66 67 66 67 66 66 66 66 65 66 65 64 64 63 63 63 64 63 62 62 62 64
26 24 23 19 18 17 17 14 17 19 19 19 18 19 19 24 24 22 22 26 30 39 64 67 66 67 67 66 66 66 67 66 66 66 65 64 65 65 64 64 64 63 63 63 62 61 62 61 63
23 23 20 20 17 17 14 12 13 13 13 13 14 16 16 17 18 18 20 23 26 28 58 67 67 66 67 66 66 66 67 66 66 65 65 64 64 64 64 63 63 64 64 63 62 62 61 60 61
23 20 19 19 18 17 13 14 14 12 14 13 13 13 15 19 20 22 20 21 22 27 50 66 66 66 66 66 66 66 66 66 65 64 64 64 64 64 63 62 62 64 64 63 62 62 61 60 60
19 18 17 16 14 14 13 13 15 17 15 16 14 17 16 15 17 19 25 25 26 26 36 63 66 66 66 66 65 65 64 64 64 64 64 63 64 63 63 62 62 63 62 61 61 61 60 60 60
16 15 14 13 13 15 15 14 12 13 15 14 14 14 13 13 14 19 22 25 27 28 33 62 65 66 66 65 64 63 63 63 63 63 63 62 63 63 62 61 61 62 62 61 60 60 59 60 60
14 13 12 13 14 15 13 12 11 12 14 15 15 16 16 16 16 16 20 21 28 29 31 57 64 65 65 65 64 63 63 62 63 63 63 62 62 62 63 61 61 62 62 61 61 60 59 59 60
16 14 14 15 15 14 12 12 13 15 15 16 17 18 21 23 20 19 18 22 24 32 33 56 63 64 65 65 64 63 60 60 59 61 62 62 62 62 62 61 61 61 61 60 60 60 59 58 60
17 18 17 17 18 15 14 13 17 17 19 21 22 27 43 45 46 46 46 48 50 47 38 52 62 64 64 64 63 62 61 60 60 60 59 61 63 62 61 60 61 62 61 60 60 61 59 59 58
17 22 21 21 19 17 18 18 15 19 18 20 26 44 45 46 47 47 48 48 50 51 53 60 63 64 64 63 63 62 60 59 59 59 59 59 62 62 62 61 61 61 61 60 61 60 59 59 59
20 22 21 21 19 16 17 18 16 18 27 40 43 46 46 47 46 46 46 48 49 50 54 61 63 63 63 62 61 61 59 58 59 58 58 59 59 60 61 60 61 61 61 59 61 60 59 58 58
19 21 19 18 17 14 16 18 18 26 40 41 42 43 44 43 44 44 43 44 45 46 50 56 62 62 62 62 61 60 58 59 58 58 58 58 59 60 60 60 61 61 60 59 61 61 60 59 58
18 19 19 18 18 18 22 22 27 41 41 43 42 44 41 41 41 40 41 42 42 44 48 55 61 62 62 61 60 60 59 58 58 58 58 59 59 59 58 58 59 59 60 60 60 60 60 59 59
25 21 24 24 24 24 23 23 34 39 40 41 41 42 40 38 38 37 39 39 40 43 46 52 60 61 61 61 60 59 59 57 57 58 58 57 56 55 55 56 56 57 57 58 59 60 59 60 59
28 29 24 27 20 17 21 21 29 36 37 40 41 39 36 35 35 35 36 38 39 42 44 48 55 60 60 60 60 59 58 58 58 58 57 57 56 56 55 55 55 56 57 58 59 59 59 59 59
17 27 32 32 27 20 19 25 38 37 39 39 40 35 34 33 33 33 34 36 37 39 42 43 45 55 57 57 60 59 58 58 58 58 57 57 57 57 56 56 55 55 56 57 57 58 58 58 58
19 23 34 29 27 28 26 27 39 39 41 40 35 33 33 32 32 32 33 34 35 36 37 40 42 46 53 56 59 58 59 58 58 58 57 57 57 57 56 56 56 55 56 57 56 56 57 57 57

GFSSGP_sfc_dewp_099.txt.gz
Dewpoint
54 47 43 34 23 21 18 16 16 13 10 14 19 25 21 23 35 32 62 66 68 69 71 71 72 73 73 72 72 72 73 73 73 73 73 73 73 73 73 73 73 74 74 72 71 71 71 71 71
44 43 35 29 19 15 12 19 16 16 16 20 18 24 20 32 54 61 62 67 68 69 71 71 72 72 72 72 72 72 73 73 73 73 73 73 73 73 73 73 73 73 73 72 71 71 71 71 70
41 37 30 27 22 14 8 14 17 17 16 16 15 18 22 37 57 61 64 67 68 69 70 71 71 71 72 72 72 72 73 72 72 73 73 73 73 73 73 73 73 73 73 72 71 71 71 71 70
37 37 33 26 21 21 17 16 17 17 17 16 15 15 24 51 60 60 66 68 68 69 70 70 70 71 72 72 72 72 72 72 72 72 73 73 73 73 73 72 73 73 73 73 72 71 71 70 69
31 34 26 26 25 24 20 20 21 18 18 21 19 17 24 52 60 64 66 67 67 68 69 70 70 71 71 72 72 72 71 71 71 72 72 73 73 73 72 71 72 72 72 72 72 71 70 69 69
25 31 27 22 22 24 24 23 22 21 21 19 16 19 23 54 62 63 65 65 67 67 69 69 70 71 71 71 71 71 71 71 71 71 72 72 72 72 71 71 71 71 70 71 71 70 70 69 69
21 28 26 26 23 23 23 25 23 21 20 19 21 20 29 55 61 64 62 62 66 67 68 68 69 70 70 69 69 69 70 70 71 71 71 71 71 70 71 71 71 70 70 70 70 69 69 69 69
32 30 28 26 25 25 26 26 25 22 21 25 19 15 25 51 58 65 66 65 65 65 66 67 68 69 69 69 68 69 69 70 70 70 70 70 70 70 70 70 70 69 69 69 70 69 69 69 68
33 30 29 27 28 27 30 28 25 24 21 24 23 23 39 54 63 65 65 64 64 65 64 66 67 68 67 67 69 69 70 69 68 69 68 68 69 69 69 68 68 68 68 68 68 68 68 67 67
25 27 27 31 30 29 30 30 29 25 25 25 23 26 26 46 57 62 63 64 64 64 64 65 66 66 66 68 68 69 69 67 67 67 68 69 68 67 68 67 67 67 66 67 67 66 66 66 65
23 24 24 24 26 26 25 24 25 24 24 25 25 24 24 27 44 52 62 64 64 65 65 65 66 66 66 67 67 68 68 68 66 67 68 67 67 66 66 66 67 65 66 65 65 65 64 64 64
23 23 22 21 22 22 21 22 21 22 24 25 25 26 24 24 27 41 50 59 64 65 65 65 65 66 66 66 66 66 67 67 68 67 66 67 66 65 65 66 65 64 64 63 63 63 64 64 64
19 21 23 25 25 24 24 23 22 22 22 23 23 21 23 26 23 23 34 49 61 64 66 66 65 65 66 66 66 66 65 66 66 67 66 66 66 65 64 64 65 64 64 62 62 62 63 64 64
19 18 17 17 16 18 19 19 19 20 19 19 20 21 23 24 22 22 23 28 49 62 65 67 66 65 66 66 65 65 66 66 66 66 66 65 65 64 64 63 63 62 63 63 62 62 62 62 63
25 23 24 23 21 19 18 15 17 18 18 17 17 18 19 26 25 23 22 23 27 51 63 66 67 67 66 66 65 65 65 65 65 66 65 64 65 64 64 64 63 62 63 62 61 61 62 62 63
23 23 21 21 20 18 15 14 16 16 12 13 14 15 15 16 18 20 22 22 25 30 55 66 67 67 67 66 66 66 65 65 65 65 65 64 64 64 63 64 64 62 63 63 62 62 61 61 62
22 19 20 20 20 19 15 15 16 15 16 16 16 15 15 16 18 20 21 20 21 25 32 63 66 66 67 66 66 66 66 66 65 65 65 64 64 64 64 64 63 63 63 63 62 62 61 61 61
18 18 20 18 17 14 13 12 15 17 16 17 15 16 16 16 16 17 17 19 23 23 28 54 65 66 66 66 65 65 65 66 66 65 65 64 64 64 63 63 63 63 63 62 62 61 61 61 60
18 16 15 14 14 14 13 12 13 15 13 14 15 16 16 16 17 17 17 19 23 26 29 53 63 66 66 65 64 64 64 65 65 65 64 64 64 63 63 61 62 63 62 61 62 61 60 60 60
14 13 12 13 14 14 13 13 14 14 12 13 14 16 16 17 17 20 22 20 21 23 30 45 61 65 65 65 64 64 64 65 65 64 64 64 63 63 62 61 62 62 61 61 61 60 59 60 60
17 15 15 15 16 16 14 15 16 17 18 19 19 19 24 40 46 48 48 46 46 38 32 43 59 64 65 65 64 61 61 61 61 62 62 63 63 63 63 62 62 62 61 60 60 60 59 58 60
19 21 20 19 17 15 16 15 17 18 18 19 23 30 45 46 46 45 45 46 48 49 51 45 57 64 65 65 64 62 61 61 61 62 62 61 62 62 62 62 62 62 61 60 60 60 60 59 57
17 21 20 20 19 17 17 17 17 18 17 25 42 46 46 45 45 44 44 45 46 46 48 53 52 62 63 64 64 62 61 61 61 61 59 61 61 61 61 62 61 61 61 60 60 60 59 59 58
19 17 20 20 19 16 16 16 14 15 27 40 43 42 42 42 43 43 43 44 45 44 47 50 57 61 63 64 64 62 61 59 59 60 59 59 60 61 62 61 61 61 61 60 60 60 60 59 58
22 19 15 16 17 14 20 20 17 38 41 41 41 42 41 39 40 41 40 40 41 43 44 48 53 62 63 64 63 62 61 59 59 59 59 58 58 57 61 61 61 60 60 60 59 60 59 59 59
24 19 16 15 18 17 23 20 22 39 41 40 40 41 39 38 37 37 38 38 39 41 44 44 49 62 63 63 62 61 59 59 59 59 59 58 58 58 58 59 59 59 60 59 59 60 60 60 59
22 23 26 24 22 21 19 23 37 39 39 41 40 39 37 36 34 35 36 36 37 39 42 44 48 61 62 62 60 59 59 59 59 58 58 58 58 59 59 59 59 59 59 59 59 60 60 60 59
24 27 24 27 20 16 18 21 22 35 37 39 39 37 36 34 33 33 33 34 36 38 41 44 46 51 60 61 61 60 59 59 58 58 58 58 57 57 57 56 54 55 55 55 57 57 58 59 59
16 16 25 30 28 24 18 21 37 37 39 40 36 35 34 33 31 31 31 33 34 37 39 42 43 46 51 58 60 59 59 58 58 58 57 57 56 56 55 54 53 54 53 56 56 57 57 58 58
19 27 30 17 19 25 25 25 38 37 37 37 35 35 32 30 30 30 31 32 32 34 36 39 40 43 47 51 58 57 59 59 58 57 57 57 56 56 56 55 55 55 55 55 55 56 57 57 57

GFSSGP_sfc_dewp_102.txt.gz
Dewpoint
52 45 41 32 17 19 16 11 17 12 11 14 19 19 18 23 36 34 61 66 67 69 70 71 71 73 72 72 72 72 73 73 73 74 74 74 73 73 73 73 73 74 73 72 72 72 72 72 71
42 42 34 28 7 8 1 18 16 15 14 19 19 19 21 24 51 59 62 66 67 69 70 71 72 72 72 72 72 72 73 73 73 73 73 73 73 73 73 73 73 73 73 72 72 72 72 72 71
40 37 26 26 17 5 -1 12 16 17 18 18 16 16 19 27 52 60 63 67 68 69 70 71 71 72 72 72 72 72 72 72 72 73 73 73 73 73 73 73 73 73 73 73 72 72 72 70 70
37 35 30 21 19 20 11 15 18 19 20 18 16 19 21 37 57 61 66 68 68 69 70 70 70 71 72 72 72 72 72 71 72 72 73 73 73 73 73 72 73 73 73 73 72 72 71 70 70
34 32 23 24 24 23 22 20 21 21 21 22 22 19 22 35 61 66 66 67 67 69 69 70 70 71 71 72 72 72 71 71 71 72 72 72 73 73 72 72 72 72 73 72 72 72 70 70 70
26 31 24 19 18 21 23 23 23 22 23 21 20 21 20 52 61 65 66 66 67 68 69 70 70 71 71 71 71 71 70 71 71 71 72 72 72 72 72 72 72 72 72 72 71 70 69 69 69
19 27 24 25 24 23 23 24 24 22 20 22 23 19 23 51 62 64 64 65 66 67 68 69 70 70 70 69 69 69 70 70 70 70 71 71 71 70 71 71 71 71 70 70 70 69 69 69 69
25 26 27 25 23 23 26 29 26 23 22 26 22 19 21 32 60 65 65 64 64 65 67 68 69 68 68 69 68 69 69 69 70 70 70 69 70 70 70 70 70 70 70 70 70 69 69 69 68
35 28 26 24 26 24 30 29 29 28 27 27 26 22 26 52 64 64 63 62 63 64 64 67 67 67 68 66 68 69 70 69 69 70 69 68 69 69 69 69 69 69 68 69 69 68 68 67 67
28 29 25 28 28 27 30 30 30 27 27 27 27 30 28 52 59 62 61 61 61 62 63 65 65 66 66 67 68 69 69 70 69 69 68 68 67 67 68 68 68 68 67 68 68 67 66 66 65
23 24 26 26 30 27 25 25 25 25 25 26 27 26 26 25 40 57 60 63 61 61 63 64 65 65 66 66 67 67 67 67 66 66 66 67 67 66 66 66 67 66 66 66 66 65 65 65 65
21 23 24 24 25 22 21 22 22 23 25 25 25 26 26 25 26 38 54 58 61 64 64 63 64 65 65 66 66 66 66 68 66 66 67 67 68 66 64 66 65 64 64 63 63 63 63 64 64
21 23 22 23 24 24 25 23 23 23 24 24 23 24 25 25 23 23 34 43 56 63 65 64 64 64 65 65 65 65 65 66 66 66 66 68 68 67 65 65 66 63 62 62 62 62 63 63 64
23 19 19 20 18 18 18 18 20 20 20 19 20 21 23 24 23 22 22 25 36 55 62 66 65 65 65 65 65 64 65 64 65 65 66 67 67 66 65 65 65 63 63 61 62 62 61 63 64
25 24 23 23 23 22 21 17 18 19 18 16 14 15 17 23 22 23 22 22 24 35 55 64 66 65 64 65 64 65 65 64 64 65 66 66 67 66 65 65 64 64 63 61 60 61 61 62 63
22 23 20 21 21 21 16 16 16 17 14 15 16 16 16 17 17 17 22 23 23 25 38 59 65 66 64 64 65 64 64 64 64 65 65 65 66 64 64 64 64 63 63 63 62 62 62 61 61
20 18 19 20 21 20 16 16 15 15 15 15 16 16 15 16 17 18 19 20 21 22 26 40 63 66 65 65 65 64 64 64 64 65 65 65 65 64 64 65 64 63 63 63 62 62 62 60 61
16 19 19 18 18 16 13 12 14 16 16 18 17 16 15 15 17 18 19 19 19 21 24 28 47 65 66 66 66 65 64 65 65 65 65 64 64 64 64 64 63 63 63 62 62 61 61 61 60
19 18 16 15 15 15 13 12 13 14 15 14 14 15 15 17 18 26 43 46 36 23 24 28 37 61 66 66 65 64 63 64 65 64 64 64 64 64 64 63 63 63 62 62 62 62 61 60 61
13 12 12 14 14 14 13 14 16 16 16 15 14 16 18 33 46 46 46 46 48 49 47 37 40 55 65 65 64 65 64 65 65 65 64 64 64 64 64 63 63 63 63 62 62 61 60 60 61
16 14 15 16 18 17 15 15 16 18 18 19 26 32 46 46 45 45 45 45 46 47 47 49 50 53 64 64 65 63 64 63 63 64 64 64 64 64 63 63 63 63 62 61 61 61 60 59 60
18 20 19 19 19 16 17 14 16 18 18 21 43 44 43 42 43 43 43 43 44 45 46 47 49 53 61 64 64 62 62 61 62 62 63 64 64 64 63 62 63 62 62 61 61 61 60 59 58
18 21 20 19 19 18 16 16 17 17 16 39 41 41 40 39 39 40 40 41 41 43 44 46 47 50 56 64 64 62 62 61 61 63 63 63 63 63 63 62 61 62 62 61 61 60 60 60 59
21 20 19 21 19 16 16 16 14 15 32 39 42 42 40 39 37 37 38 38 39 40 42 45 46 48 53 63 64 62 61 61 61 62 61 62 62 62 61 61 61 61 61 60 60 60 60 59 59
21 18 16 14 17 14 21 17 16 34 40 41 41 40 38 37 35 35 35 35 36 37 39 43 45 46 50 62 63 63 61 61 60 61 61 61 61 61 60 60 60 61 61 61 60 60 59 59 58
18 20 17 13 16 16 20 16 19 39 40 39 40 38 36 35 34 34 34 33 34 36 39 41 43 45 49 61 63 63 63 60 60 61 61 60 60 60 60 60 61 61 60 60 60 59 59 59 59
17 23 26 24 23 20 19 21 35 39 39 41 39 37 35 34 32 32 33 33 33 35 37 40 42 44 49 63 62 62 60 59 59 59 60 59 59 58 59 59 59 59 59 59 59 59 59 59 59
16 18 18 23 17 16 16 20 22 34 36 36 36 35 34 32 32 31 31 32 34 35 36 39 42 44 48 54 61 60 60 60 59 59 58 58 58 58 58 57 57 57 58 59 59 58 59 59 59
15 14 19 27 25 18 18 22 36 36 37 36 35 35 34 31 30 30 29 31 32 34 35 36 40 43 46 49 56 59 59 59 59 58 58 58 58 58 57 57 57 57 56 56 55 55 55 56 57
19 26 27 14 14 22 20 21 37 37 35 36 34 34 30 28 28 29 29 30 31 32 34 35 37 40 42 45 52 58 58 58 58 58 58 58 57 57 56 56 55 55 55 55 55 54 56 56 56

GFSSGP_sfc_dewp_105.txt.gz
Dewpoint
49 42 39 32 13 18 8 5 16 13 14 16 18 17 16 18 19 33 59 64 66 68 70 71 72 72 72 72 72 72 73 74 74 74 73 73 73 73 73 73 73 74 74 73 72 72 72 72 72
40 39 34 28 8 4 1 14 12 11 13 19 20 18 19 20 33 49 61 66 66 68 70 71 72 72 72 72 72 72 73 74 74 74 74 73 73 73 73 73 73 74 74 73 72 72 73 72 71
40 35 26 23 11 3 2 7 15 16 19 19 19 18 19 24 39 57 63 67 67 68 69 70 72 72 72 72 72 72 72 73 73 73 74 73 73 73 73 73 73 73 73 73 72 72 73 71 70
38 35 30 15 13 16 8 16 18 18 20 19 19 21 23 31 53 61 66 67 68 68 69 71 71 71 72 72 72 72 72 72 72 73 73 73 73 73 73 73 73 74 73 73 73 73 72 70 70
35 28 20 17 16 19 22 21 21 20 22 22 21 22 25 31 57 65 66 67 67 69 70 71 70 71 72 72 72 72 71 71 71 72 72 73 73 73 73 73 73 73 73 73 73 72 70 70 70
26 30 16 12 14 19 21 24 22 22 22 22 22 25 25 34 52 64 67 67 69 69 70 71 71 71 71 71 71 70 70 70 71 71 72 72 73 72 72 72 72 72 72 72 72 70 70 70 70
21 24 18 18 19 22 22 24 22 21 23 22 24 27 26 30 59 64 66 68 69 70 70 71 72 71 70 69 70 69 70 70 70 70 71 71 71 71 71 72 72 71 71 70 71 70 69 70 69
25 24 23 24 18 18 23 26 26 24 25 28 26 26 28 31 62 65 65 66 67 69 70 70 70 70 72 72 68 69 69 69 69 70 70 70 70 70 71 70 71 71 71 70 70 69 69 69 68
32 21 19 20 23 20 29 28 30 30 29 28 29 26 29 31 61 64 63 64 66 67 67 68 69 69 70 71 71 70 70 69 69 70 69 69 70 71 70 69 69 70 69 69 69 68 68 68 67
31 25 19 25 25 23 28 28 27 26 26 27 27 30 31 28 36 55 61 61 63 65 66 67 67 68 69 68 71 71 70 70 71 70 70 70 71 70 69 69 68 68 67 68 68 68 67 67 67
24 19 27 28 29 30 27 27 26 25 24 25 27 26 28 28 30 37 54 62 61 62 64 66 66 67 67 67 68 68 69 69 69 71 71 70 70 71 69 69 70 70 68 68 68 68 68 68 68
17 23 24 25 26 27 25 24 22 23 25 26 25 28 27 28 31 29 31 51 63 63 63 65 65 65 66 66 67 67 66 68 68 70 71 71 70 70 69 68 70 70 69 69 69 69 69 68 68
22 22 24 24 24 24 24 23 23 24 24 24 25 25 26 26 25 26 27 29 39 60 65 65 65 65 65 66 66 66 66 67 68 69 70 70 68 69 69 69 69 69 69 68 68 68 67 67 67
23 19 19 21 21 21 21 22 23 23 22 22 21 22 23 25 23 24 27 28 33 35 55 66 66 66 66 66 66 65 66 66 67 68 68 69 69 68 68 67 68 68 68 67 67 67 67 66 66
22 21 23 24 24 23 23 20 22 23 22 19 17 18 20 26 23 23 27 29 30 30 33 58 65 65 66 66 67 67 65 66 65 66 67 66 67 67 67 67 67 67 67 67 67 66 66 66 65
20 22 17 22 21 21 21 18 19 17 15 15 17 18 21 21 20 21 25 26 27 28 32 39 57 66 67 66 67 67 66 66 65 65 66 66 66 67 67 66 66 66 66 66 66 65 64 65 64
19 12 19 19 22 21 19 17 18 16 14 16 18 19 20 21 21 23 25 30 34 31 31 34 44 60 66 67 67 67 66 65 66 65 65 66 66 66 66 66 66 65 64 65 65 64 64 64 63
13 17 19 19 18 18 15 13 14 15 16 19 19 20 21 20 21 41 48 49 49 50 48 38 38 46 64 67 67 67 65 66 65 64 65 65 65 65 66 66 66 65 64 64 64 63 63 63 63
16 16 13 14 15 15 18 16 15 16 17 18 19 20 20 28 45 47 47 48 48 50 51 52 51 44 51 62 65 64 63 64 64 64 66 65 65 64 65 66 65 64 64 63 63 63 62 61 62
13 13 14 16 17 17 17 17 18 18 18 19 19 28 44 45 44 45 45 46 46 47 49 49 51 52 50 56 62 63 63 64 64 65 65 65 65 65 65 65 64 64 63 63 63 62 61 61 61
18 18 18 18 19 19 18 15 16 18 19 34 45 45 43 41 41 42 42 43 44 44 46 46 48 50 53 55 62 65 64 64 64 64 64 64 66 65 65 65 64 63 63 63 63 63 62 59 61
19 19 18 17 18 13 18 11 15 17 18 38 43 42 41 39 39 39 40 40 41 42 43 44 46 49 51 55 59 62 60 60 62 63 63 64 64 64 65 64 64 64 63 64 63 63 62 61 59
17 21 21 20 19 18 16 14 14 18 16 34 42 42 40 39 37 37 37 38 39 40 40 42 43 46 50 52 56 61 61 61 63 63 64 65 64 64 64 64 64 64 64 63 63 63 62 61 60
21 20 20 21 20 16 15 14 9 14 21 37 42 41 38 37 36 36 36 37 37 38 39 40 41 43 46 50 54 60 62 62 61 63 63 64 63 63 64 64 64 64 63 63 64 62 62 61 61
22 20 13 13 16 11 17 16 13 26 40 40 40 38 37 36 35 35 34 35 36 36 36 38 39 41 44 48 53 57 62 61 62 62 63 63 62 63 62 63 64 64 63 63 63 62 61 61 60
17 21 15 10 12 15 21 17 17 40 39 40 38 37 36 35 33 32 32 32 34 35 36 36 38 40 44 47 51 59 62 63 63 63 63 62 61 61 63 63 63 63 63 62 63 63 62 61 60
18 22 23 20 23 17 14 19 36 37 36 38 37 36 34 33 31 31 32 32 33 34 35 37 37 39 43 47 50 62 63 62 62 63 64 63 62 62 62 63 62 62 61 62 62 61 61 62 60
17 13 15 27 12 5 4 15 19 32 34 36 35 34 32 30 30 30 31 31 33 34 35 36 37 39 42 45 49 59 63 62 61 62 62 62 62 62 61 61 61 61 61 61 61 60 61 59 59
10 10 18 23 25 12 3 11 34 35 34 33 33 32 31 30 29 29 29 30 31 33 34 34 36 37 40 43 47 52 60 61 60 60 61 61 61 60 60 60 60 60 60 60 60 60 59 59 59
18 21 23 15 11 21 19 13 37 34 35 34 32 31 30 30 28 28 28 29 29 30 32 33 34 36 39 41 45 55 59 59 59 59 59 59 59 60 59 59 58 59 58 59 58 57 57 57 57

GFSSGP_sfc_dewp_108.txt.gz
Dewpoint
49 34 33 29 17 10 7 3 9 10 11 16 15 15 16 18 18 24 46 61 64 64 70 71 72 72 73 73 73 74 74 74 74 73 73 73 73 73 74 74 74 74 74 74 72 72 73 73 73
33 31 30 22 10 8 7 7 6 6 10 17 19 18 19 21 28 35 49 64 64 65 68 69 72 72 72 72 73 73 74 75 74 74 73 73 73 73 73 73 73 74 74 74 72 72 72 73 71
34 32 23 18 13 9 9 6 10 13 15 17 18 21 21 26 37 46 57 64 64 64 66 69 71 71 72 72 72 73 73 74 74 74 74 73 73 74 73 73 73 74 74 74 72 73 73 71 70
27 23 21 16 16 15 11 11 16 13 12 17 18 19 23 32 42 46 60 64 65 64 66 70 70 71 71 72 72 72 72 73 73 73 73 73 73 74 73 73 73 74 74 74 73 73 72 70 70
27 22 18 18 18 17 17 15 15 14 16 17 17 17 26 28 40 53 64 65 64 66 68 72 70 70 71 72 72 72 71 72 72 73 73 73 73 73 73 73 73 73 73 73 73 73 71 70 70
22 24 18 16 17 18 19 20 18 17 17 17 19 22 26 30 42 53 64 66 66 67 69 71 71 71 71 71 71 71 70 71 71 72 72 73 73 73 72 72 72 72 72 72 72 71 70 70 70
22 22 19 18 18 18 20 23 20 19 19 21 26 24 28 29 38 54 63 68 69 70 70 71 72 71 70 70 70 69 70 70 70 71 71 72 71 71 72 72 72 72 71 71 71 70 70 70 70
22 21 18 19 18 18 20 23 23 23 22 29 27 24 26 31 33 50 59 67 69 70 71 71 72 71 72 72 69 69 69 69 70 70 70 70 70 71 71 71 71 71 71 71 70 70 69 69 69
23 19 17 18 19 20 23 22 26 28 26 27 28 27 29 29 30 36 46 62 66 68 70 70 70 71 71 71 70 70 70 69 69 70 70 69 68 70 70 69 70 70 70 70 69 69 68 68 68
19 16 16 17 19 19 18 21 20 23 21 23 24 26 27 27 29 31 34 45 62 65 68 69 69 69 70 69 71 71 70 69 69 69 69 68 68 68 66 68 69 69 68 68 68 68 68 68 65
19 17 19 18 19 17 17 17 19 21 21 22 23 23 24 27 28 30 33 33 55 62 64 68 69 69 69 68 68 69 70 69 69 70 70 69 68 69 68 67 69 70 68 67 67 67 67 66 65
15 16 16 16 16 17 19 18 16 16 19 20 20 22 24 27 28 26 27 27 41 61 63 66 67 68 69 67 68 67 67 69 68 69 71 69 68 68 67 65 66 68 67 67 67 65 66 65 66
17 11 12 15 15 15 15 15 16 16 17 21 23 23 25 25 23 24 24 25 28 38 53 63 65 67 67 68 66 66 66 66 68 69 69 70 69 69 67 66 65 66 66 66 66 65 65 66 66
14 17 17 19 20 20 20 18 19 21 21 20 21 23 23 23 21 22 24 26 29 29 34 52 63 66 66 66 67 65 66 65 67 67 66 70 67 69 68 67 67 66 66 66 66 65 65 64 65
21 18 17 17 19 17 19 18 19 19 19 20 20 19 19 24 22 22 25 28 29 29 30 37 54 66 66 66 65 64 63 65 64 65 67 68 68 68 69 68 68 67 65 67 67 66 66 65 64
17 18 17 18 21 21 22 17 18 20 19 18 17 18 19 20 21 23 27 28 31 34 36 38 37 47 59 65 65 64 63 64 63 64 65 68 67 66 68 66 67 68 68 67 66 66 65 65 65
18 14 16 16 19 17 19 17 18 19 18 16 16 17 19 21 22 27 40 43 46 46 50 50 47 44 51 60 63 65 66 65 63 64 64 66 66 66 67 66 67 68 67 67 66 66 66 64 64
15 14 15 16 16 19 16 15 15 14 12 16 16 19 21 22 25 42 45 47 48 49 52 52 53 53 47 51 61 61 63 64 65 64 63 65 65 66 67 67 67 67 66 66 66 66 65 65 64
13 13 12 13 14 13 15 15 16 17 18 19 19 20 21 32 41 44 47 48 49 49 50 51 53 55 54 43 51 57 63 64 62 64 65 65 65 66 67 66 67 66 65 65 66 66 64 64 64
15 15 15 15 17 19 18 16 17 17 18 19 19 22 36 39 41 43 44 46 47 47 48 49 49 52 53 52 46 53 58 60 61 63 65 66 65 66 66 66 66 66 65 65 65 64 63 63 64
19 17 16 16 16 17 17 14 11 14 17 21 32 39 40 40 40 41 41 43 44 45 46 46 47 48 51 54 54 52 57 59 59 61 63 65 66 66 66 66 66 66 65 64 64 64 63 61 62
16 16 17 15 14 9 17 5 10 12 17 27 36 39 41 40 39 39 39 41 42 43 45 45 46 47 48 51 53 54 53 55 57 59 60 63 65 66 66 66 66 66 65 65 65 64 64 63 60
16 14 16 17 16 16 14 11 4 13 16 26 37 41 39 39 39 38 38 38 39 41 43 44 44 45 46 48 50 52 54 57 57 58 61 63 64 65 66 66 66 66 65 64 65 64 64 63 62
18 19 18 19 17 14 11 8 -2 10 13 30 40 39 39 39 38 38 38 37 37 39 41 42 43 43 45 46 48 50 53 56 58 58 60 62 64 64 65 65 66 66 65 64 64 65 65 64 63
19 19 14 13 14 8 12 8 7 23 33 36 39 38 38 38 37 36 34 35 36 38 39 39 39 40 42 43 45 48 50 56 58 60 60 62 63 63 64 64 65 64 65 65 65 65 65 64 63
18 18 12 5 4 6 17 12 18 36 38 39 37 36 36 36 36 34 33 34 35 36 37 37 37 38 39 40 43 46 48 51 57 61 60 61 62 62 63 64 64 64 65 65 65 64 64 64 64
17 19 20 20 18 15 8 13 34 36 38 37 36 35 34 33 33 33 33 33 34 34 36 35 36 36 38 40 42 45 48 52 59 62 62 62 63 63 63 64 63 64 64 64 64 64 63 63 63
17 15 19 22 11 2 -3 3 11 31 33 34 34 33 34 33 32 32 32 32 33 33 34 35 36 36 37 39 42 45 47 52 61 62 62 62 64 63 63 64 63 63 63 62 63 63 62 62 62
10 10 12 18 16 9 2 2 33 35 34 33 31 32 32 32 31 30 30 31 31 32 33 33 34 34 36 39 41 44 50 61 61 62 63 63 63 63 63 62 62 62 62 62 62 62 61 61 61
13 12 10 16 8 13 14 11 35 35 33 33 31 32 31 32 31 30 30 30 30 30 31 31 32 33 34 37 40 43 48 54 60 61 62 63 62 62 61 61 61 61 61 61 61 61 60 60 60

GFSSGP_sfc_dewp_111.txt.gz
Dewpoint
51 37 30 26 20 15 10 7 4 6 9 14 13 13 13 16 17 23 44 61 62 59 70 71 72 73 73 73 74 74 73 73 74 74 74 74 74 74 74 74 74 74 74 74 73 73 73 73 74
38 28 28 24 16 11 8 8 7 6 10 12 14 15 16 19 24 34 45 57 62 60 68 69 72 72 73 73 73 74 74 74 74 73 74 74 74 74 74 74 74 74 74 74 72 72 73 74 73
38 30 26 21 18 14 10 9 9 10 11 11 12 16 16 24 33 39 45 57 63 62 66 68 71 71 72 72 73 74 74 74 73 73 74 74 74 74 74 73 73 74 74 73 72 72 74 72 71
28 25 23 20 18 17 16 13 12 11 12 13 12 13 21 32 35 44 56 60 63 63 64 70 70 71 72 72 73 73 73 73 73 73 73 74 74 74 73 73 73 74 74 74 73 73 73 71 70
29 25 20 19 18 18 17 17 16 15 15 15 13 15 20 29 35 47 58 62 63 63 66 71 70 70 71 72 72 73 73 73 73 73 73 73 73 73 73 73 73 74 74 74 73 73 72 70 70
24 24 20 18 17 17 18 20 20 19 18 17 17 19 20 30 33 48 56 65 65 64 67 71 71 71 71 71 71 71 71 72 72 73 73 73 73 73 72 72 73 73 73 73 73 72 71 70 70
24 22 21 21 19 19 19 22 21 20 20 19 21 24 25 26 34 41 53 66 68 67 69 70 71 71 71 70 70 70 70 71 71 72 72 72 72 71 72 72 73 73 72 72 72 71 70 70 69
21 21 20 20 19 19 20 21 22 22 21 28 26 24 26 31 33 35 42 62 68 69 70 71 72 71 71 71 70 69 69 70 70 71 71 71 71 71 71 71 71 72 72 72 71 71 70 69 69
23 18 19 20 19 20 21 21 22 24 25 24 27 27 28 30 29 31 34 52 66 68 69 71 72 72 72 71 70 70 70 70 70 70 70 70 70 71 70 69 70 71 70 70 70 70 69 69 69
22 20 20 20 18 18 20 19 19 20 22 24 24 27 27 27 27 30 31 34 53 65 68 70 71 71 71 69 71 70 69 68 68 68 69 69 68 68 66 67 70 70 69 69 69 69 68 68 65
21 21 22 19 19 19 18 16 17 17 19 22 23 23 24 24 27 29 32 32 35 57 66 68 70 71 70 69 68 68 68 68 68 69 68 68 67 68 66 67 68 70 69 68 68 68 67 66 64
19 19 17 18 17 17 16 18 19 19 21 20 19 21 21 23 27 26 27 28 31 52 62 67 67 70 70 68 67 66 66 69 67 67 71 70 67 68 67 63 66 69 69 67 67 65 67 66 65
16 16 18 14 12 14 14 13 14 14 15 16 16 20 23 24 23 24 25 27 29 33 53 64 66 67 68 69 66 66 66 67 68 68 68 68 64 68 65 65 63 66 68 67 66 66 66 67 66
18 16 16 17 15 18 17 16 16 18 18 19 20 20 23 25 23 23 24 27 29 31 32 42 60 66 66 67 67 65 66 65 66 67 67 70 66 66 64 64 63 61 65 68 65 65 65 66 67
21 20 22 21 19 18 19 17 19 19 18 17 18 19 22 24 22 24 25 27 30 30 30 35 47 58 65 66 66 65 63 64 63 64 68 69 67 68 69 66 64 62 62 69 69 68 65 65 65
19 20 19 21 20 19 19 18 19 19 19 20 20 19 19 21 21 22 26 28 32 38 42 44 41 44 57 64 63 64 63 62 62 63 65 68 66 67 69 67 66 65 64 63 66 65 65 65 64
22 18 20 20 19 19 19 20 19 19 20 19 19 19 19 21 22 25 34 39 43 44 49 49 53 52 48 53 59 63 66 64 62 64 63 67 67 66 67 67 67 68 67 64 65 66 66 64 63
19 18 18 17 17 18 18 18 19 18 17 19 18 18 18 20 22 35 41 44 46 47 50 50 52 54 56 53 52 56 58 61 64 64 64 67 65 66 67 66 67 67 67 67 64 66 66 64 62
20 18 17 16 16 17 18 15 14 15 16 17 16 18 20 22 30 40 44 46 48 49 49 50 51 53 53 52 49 45 55 58 61 62 66 67 66 66 67 66 67 67 66 66 66 67 66 65 64
18 17 17 15 14 15 14 14 15 16 17 18 18 19 21 27 36 40 42 44 46 46 48 48 48 50 51 51 52 52 51 53 56 61 63 65 67 68 67 67 66 67 66 65 65 65 65 65 65
15 16 16 14 15 16 17 14 12 12 13 14 17 22 33 36 37 39 40 42 44 44 45 45 46 47 49 51 50 52 53 53 56 57 58 62 66 68 67 66 67 67 65 64 65 65 64 62 64
17 17 17 16 15 12 10 6 10 12 13 16 25 34 37 37 38 38 39 40 41 42 45 45 45 46 46 48 49 51 51 52 49 56 56 60 64 66 67 67 66 67 66 65 65 65 64 63 61
19 19 16 15 15 14 11 8 11 12 11 21 31 37 38 39 39 39 39 38 38 41 42 44 44 44 45 46 48 48 50 51 53 55 59 61 62 65 65 66 66 67 66 66 66 64 65 64 62
18 16 16 15 13 12 12 10 9 7 10 21 37 37 38 38 38 38 37 37 37 39 41 43 43 42 43 44 46 46 47 49 51 54 56 60 60 64 64 65 65 66 66 65 66 66 65 64 63
17 18 15 12 13 12 11 8 11 20 32 33 37 36 37 37 37 37 36 35 37 38 39 40 40 40 41 42 43 43 44 47 49 52 56 58 61 64 65 64 65 65 65 65 66 65 64 65 63
18 16 16 18 16 15 12 10 18 35 37 36 35 35 33 34 35 34 34 35 35 36 37 38 38 38 39 40 40 40 41 44 46 50 53 57 60 62 65 64 65 65 65 65 66 65 64 64 64
16 19 18 20 22 17 17 18 33 36 35 36 34 32 32 32 33 34 34 34 35 35 37 38 37 37 37 38 39 39 41 43 45 48 53 56 61 62 65 65 64 64 64 64 65 65 65 64 64
15 18 22 20 13 9 7 9 11 35 35 34 32 31 31 31 31 33 33 34 34 35 35 37 37 36 36 37 37 38 40 43 45 47 50 57 61 62 64 65 64 64 64 64 64 64 64 65 64
16 15 15 16 18 16 13 13 34 37 35 33 30 29 30 30 30 32 32 32 33 33 34 34 34 34 35 35 35 37 40 43 47 53 55 60 62 62 63 64 63 63 64 63 63 63 63 62 62
16 16 16 20 14 12 10 5 34 34 31 30 29 28 28 30 31 31 31 32 31 31 31 31 32 33 33 34 35 37 40 42 46 50 59 60 61 62 62 63 62 62 62 62 62 62 62 61 61

GFSSGP_sfc_dewp_114.txt.gz
Dewpoint
51 37 33 30 22 21 16 10 7 5 7 14 12 11 12 14 16 31 54 59 63 69 70 70 72 73 73 74 74 74 73 74 74 74 74 74 74 74 74 74 73 74 75 75 73 73 73 73 73
41 38 28 25 22 16 12 10 7 9 12 14 12 11 13 15 24 36 41 54 62 68 68 70 72 72 73 73 74 74 74 74 74 74 74 74 74 74 74 73 73 73 75 74 73 73 74 74 73
43 38 26 25 21 17 14 11 10 10 10 8 10 14 15 26 36 38 50 59 63 64 69 70 71 72 73 73 73 73 73 73 73 73 74 74 74 74 74 73 73 74 74 74 72 73 74 73 71
32 27 25 23 19 18 17 17 12 11 12 12 12 11 18 34 33 44 52 60 64 65 68 70 71 71 72 73 73 73 73 73 73 73 74 74 74 74 74 73 73 74 74 74 73 73 73 71 70
30 27 22 20 19 19 18 17 17 15 16 17 14 15 19 32 34 47 53 62 64 68 71 70 70 71 72 73 73 73 73 72 72 73 73 73 73 74 73 73 73 74 74 74 73 73 71 70 70
26 25 22 19 18 18 18 20 19 19 19 19 17 19 22 34 34 46 53 64 68 70 72 71 71 71 71 72 72 72 72 72 72 72 73 73 73 73 73 72 73 73 73 73 73 72 71 70 70
24 24 22 21 21 21 21 23 21 21 20 19 22 20 29 28 39 42 51 67 71 71 73 72 71 70 71 70 70 70 71 71 72 72 72 72 72 72 72 72 72 72 72 72 72 71 70 70 69
22 21 20 21 20 19 21 21 22 21 21 27 25 23 26 35 39 44 42 64 70 71 73 73 72 71 71 71 70 70 70 70 71 71 71 71 71 71 71 71 72 72 72 71 71 71 70 69 69
21 20 19 20 20 21 21 20 22 23 22 25 25 26 30 32 33 37 44 51 68 70 72 73 72 71 71 71 70 70 70 70 70 71 71 70 71 71 71 70 70 71 70 70 71 70 69 68 68
22 23 23 22 22 21 19 18 19 18 19 24 24 28 31 28 31 35 33 38 59 67 70 72 73 72 72 68 70 70 69 69 70 70 71 71 71 71 69 69 69 70 70 70 70 69 68 68 67
22 23 24 23 23 22 19 18 20 19 19 20 24 24 25 28 30 34 35 35 37 49 68 71 71 71 71 71 71 69 69 68 69 69 70 70 69 70 68 69 68 70 69 69 69 69 68 67 66
20 22 22 22 21 19 17 17 17 18 23 23 22 23 23 25 28 29 30 30 36 41 65 69 70 70 71 70 70 70 68 69 68 68 70 69 68 68 69 66 68 69 68 68 68 67 67 67 66
23 21 20 19 19 19 18 14 16 17 17 16 17 20 23 25 24 25 28 30 36 48 60 68 69 70 70 70 69 71 68 69 69 69 70 69 68 68 68 67 67 68 68 68 67 67 67 66 66
24 23 22 19 18 19 19 16 19 21 20 18 17 19 21 24 24 26 30 32 41 41 44 61 65 68 70 70 70 69 70 69 69 69 70 70 68 67 67 66 67 67 67 67 67 65 64 66 66
23 21 21 21 21 23 23 21 21 20 21 21 21 21 22 29 26 27 30 37 37 37 43 51 50 56 64 68 68 68 68 67 69 68 69 69 69 68 67 67 66 65 67 67 67 67 66 66 66
22 23 22 22 21 21 21 19 19 20 20 19 20 21 22 22 24 25 31 34 37 44 51 54 53 56 57 57 67 67 66 67 65 67 68 68 68 67 69 67 67 67 65 67 67 66 65 65 66
24 23 24 23 22 21 20 19 19 21 20 20 21 21 21 22 23 28 34 42 44 46 51 53 56 58 59 58 57 59 65 67 65 65 66 67 66 67 67 67 67 67 67 66 66 66 65 64 64
21 19 18 19 19 19 18 18 20 20 19 22 20 22 22 21 22 38 42 46 46 50 52 53 54 57 58 58 59 56 53 63 65 65 64 66 66 66 67 66 67 66 66 66 66 64 65 64 64
21 20 19 20 19 20 20 16 17 19 18 19 21 20 20 22 34 42 46 48 48 50 50 50 53 55 54 54 54 55 54 54 62 63 66 66 66 66 66 66 68 66 65 65 65 65 65 64 65
21 20 19 19 18 19 17 15 15 16 17 17 19 20 20 22 36 41 43 45 47 47 48 48 48 49 50 50 51 53 54 55 55 56 59 64 66 66 66 66 66 67 65 64 65 66 64 64 65
17 17 19 16 14 17 17 14 15 17 19 18 19 20 26 30 39 39 40 43 46 46 47 45 46 47 48 50 48 50 52 54 55 53 53 61 64 67 66 66 66 66 65 64 63 65 64 62 63
17 20 20 17 17 18 17 14 16 15 12 15 17 32 37 37 37 38 39 40 42 44 46 45 46 45 45 47 47 48 48 49 51 52 54 56 60 60 66 65 66 66 66 64 63 65 64 62 61
23 23 25 23 23 24 17 15 15 15 11 14 28 38 38 38 38 38 37 37 38 42 43 45 44 43 43 45 46 46 46 47 48 49 51 53 57 59 63 65 66 66 66 65 63 63 64 63 61
20 18 23 25 21 19 18 15 13 12 17 17 37 37 37 38 37 37 37 37 37 40 42 43 42 41 42 43 43 44 44 44 45 47 48 51 53 57 62 63 65 65 65 65 64 64 64 62 62
20 20 17 23 19 17 15 13 14 36 35 38 37 36 36 35 35 34 34 34 37 38 39 39 40 39 40 40 40 41 41 42 42 43 46 48 50 54 59 62 64 64 65 65 65 65 64 63 62
20 21 24 17 17 18 28 23 28 36 39 38 35 33 32 32 33 33 33 35 35 37 37 38 37 37 37 37 38 38 39 39 41 42 44 46 49 51 55 61 62 64 63 64 64 64 64 64 63
22 22 25 25 26 21 20 28 37 35 34 33 32 31 30 29 30 31 31 34 35 35 36 37 36 35 36 37 37 37 38 38 39 40 42 44 47 49 53 57 62 63 64 63 64 64 64 64 63
17 16 21 30 23 15 14 14 28 34 33 33 31 30 29 28 28 30 31 34 34 34 33 35 35 34 34 35 35 35 37 38 39 41 43 44 45 48 52 54 60 64 64 64 64 64 63 63 63
17 15 17 19 18 21 14 17 36 36 37 35 30 29 27 28 29 30 31 32 32 32 32 33 33 33 32 33 33 35 36 37 40 41 43 45 48 49 51 54 59 62 63 63 64 63 62 62 62
17 19 19 20 16 18 17 15 35 37 34 30 28 28 28 28 28 29 30 31 31 30 30 31 32 32 32 32 33 34 35 36 38 39 41 44 48 55 53 56 59 61 62 62 63 62 62 62 61

GFSSGP_sfc_dewp_117.txt.gz
Dewpoint
51 40 39 33 23 22 19 17 16 11 13 15 14 14 13 15 25 46 56 62 69 69 71 71 72 73 73 74 73 73 73 74 74 74 74 74 74 74 73 73 73 74 74 74 73 73 72 73 73
49 42 38 28 22 20 19 18 10 11 13 16 14 14 15 31 37 42 52 61 68 68 70 71 72 72 73 73 73 73 73 74 74 74 74 73 73 73 74 73 73 74 75 74 72 72 73 73 73
46 42 31 25 22 20 18 15 10 11 11 12 14 16 23 37 38 44 57 61 66 68 69 70 71 72 72 73 73 73 73 73 73 73 74 73 73 74 73 73 72 73 75 74 73 73 73 72 72
35 31 26 22 22 22 20 19 11 11 14 13 14 16 30 41 39 48 60 62 63 68 68 70 70 71 72 73 73 73 73 72 72 73 73 74 74 74 73 72 72 74 74 74 73 73 73 71 70
38 29 24 24 21 21 21 20 15 16 19 21 15 21 27 37 47 49 60 65 66 69 69 70 70 71 72 73 73 72 72 72 72 72 73 73 73 73 72 72 72 73 73 73 73 73 71 70 69
27 27 22 21 21 22 22 22 22 22 23 22 21 21 27 38 37 43 63 65 69 70 70 70 71 71 71 72 72 72 72 71 71 72 72 73 72 72 72 72 72 72 73 72 72 72 71 69 69
24 23 23 22 22 21 22 24 23 22 22 25 26 24 32 34 35 36 62 66 67 71 70 70 70 71 70 70 70 70 71 71 71 71 72 72 72 71 72 72 72 72 72 72 72 71 71 70 69
24 22 19 20 20 20 22 23 24 22 23 31 27 25 26 33 35 36 45 66 67 70 71 70 70 70 69 69 69 70 70 70 70 71 71 70 71 71 71 71 71 72 71 71 71 71 70 69 69
19 19 18 18 19 20 24 18 21 22 23 26 29 28 30 33 31 31 33 60 67 68 72 71 69 69 69 69 69 70 70 70 70 71 70 70 71 71 71 70 70 71 70 70 70 70 69 68 68
18 20 19 22 24 23 23 20 20 20 20 25 27 29 31 29 29 30 31 33 66 67 69 71 70 70 69 69 69 68 69 69 70 71 70 71 70 70 70 70 69 69 69 69 69 69 69 68 68
22 20 22 23 25 25 21 20 20 20 22 22 24 26 26 28 25 28 31 30 30 63 68 71 70 70 70 68 69 69 68 68 69 69 70 70 70 70 69 69 69 69 69 69 69 69 68 67 67
22 22 22 22 23 22 22 20 18 18 22 23 20 23 25 24 27 29 29 28 30 40 69 70 70 70 70 70 69 68 68 67 68 68 69 69 68 69 69 68 68 69 69 68 68 68 68 67 67
25 24 24 24 23 21 20 20 20 19 18 19 18 19 22 23 24 25 25 26 28 33 68 69 69 69 69 68 70 70 69 67 67 67 68 69 67 67 67 67 68 68 68 68 67 67 67 67 66
25 24 23 23 23 23 21 20 20 22 19 20 19 19 20 21 20 23 24 26 30 38 52 51 65 69 69 67 68 68 69 69 68 68 68 68 68 66 67 67 67 68 68 68 67 67 66 66 66
25 23 23 23 22 22 22 20 22 23 22 21 21 22 20 26 24 22 25 29 37 49 51 51 52 54 57 65 67 68 68 69 69 68 68 69 68 67 65 66 66 67 68 67 67 66 65 65 65
23 24 22 23 24 24 22 20 22 23 22 21 21 21 22 25 25 25 26 41 46 48 50 52 54 55 56 56 59 65 67 67 68 68 68 68 68 67 67 65 65 65 67 67 67 66 65 64 65
24 22 22 23 25 25 23 21 22 22 21 20 20 22 21 21 24 28 43 45 48 49 50 51 52 53 54 55 58 58 58 60 66 67 68 67 66 67 67 66 66 66 66 67 66 65 64 63 64
23 22 22 20 21 21 20 19 20 22 20 22 21 20 21 22 34 45 46 47 48 48 47 48 50 51 51 52 53 54 55 54 58 64 66 67 67 66 68 66 66 66 66 66 66 65 64 63 63
24 23 22 22 22 21 20 18 18 18 20 19 22 21 21 37 43 45 45 45 45 45 45 46 47 48 48 48 48 49 51 52 54 57 59 60 67 65 65 67 66 66 65 64 65 64 64 62 63
25 22 20 19 19 18 18 16 16 17 16 17 17 18 20 40 42 43 43 43 44 44 45 45 45 45 46 46 46 48 49 52 52 55 56 58 59 63 66 66 66 66 65 64 64 63 61 63 64
23 21 19 17 20 23 21 20 16 18 17 17 18 18 23 40 39 40 41 41 42 43 43 43 44 43 45 45 45 46 47 48 49 49 51 52 54 57 62 65 65 66 66 65 64 64 63 62 62
19 24 24 23 27 23 25 21 23 22 20 20 19 35 36 38 38 37 37 38 40 40 42 42 42 42 42 42 43 43 44 44 45 46 47 48 49 52 55 59 64 65 65 65 64 65 64 63 61
23 30 21 19 24 27 23 22 20 20 18 24 36 38 38 38 37 36 36 37 38 38 40 40 40 40 40 40 40 41 41 42 43 44 44 45 47 49 50 55 58 63 64 64 64 63 64 63 62
31 27 23 21 24 23 23 22 20 19 24 38 40 37 36 35 34 34 35 35 36 37 38 38 38 38 38 38 38 38 38 38 39 40 41 43 45 47 49 52 56 60 63 64 64 63 63 64 63
31 24 21 20 20 17 20 20 19 38 39 40 37 34 34 33 33 33 34 34 35 35 36 35 36 35 35 35 36 36 36 37 37 38 40 40 42 44 47 50 52 56 61 63 64 63 63 63 63
28 22 24 19 19 20 24 22 33 41 40 41 35 31 30 30 31 31 33 33 33 33 33 34 33 33 34 34 34 34 34 36 36 37 38 39 41 42 44 47 49 52 54 61 63 63 63 63 63
25 21 25 25 26 23 21 31 37 39 38 39 38 37 36 34 34 32 32 32 32 31 33 33 32 32 32 32 32 33 34 34 35 37 38 39 40 41 43 45 47 50 52 58 61 61 61 64 64
22 20 25 29 21 18 18 20 32 37 37 37 35 32 28 29 29 31 32 32 31 31 31 32 32 31 31 31 32 32 34 35 35 36 37 39 40 42 43 44 45 48 52 56 61 59 61 61 63
19 19 20 28 25 21 20 22 36 37 38 34 32 29 28 28 29 30 31 31 30 30 30 31 32 32 31 31 32 33 34 35 36 36 38 39 41 42 44 46 48 48 50 53 61 60 59 59 61
22 23 22 20 16 20 21 19 38 38 37 34 29 29 28 28 29 29 29 30 29 29 29 30 31 31 31 30 32 33 34 34 34 35 36 38 39 40 43 47 50 50 50 53 60 61 60 60 61

GFSSGP_sfc_dewp_120.txt.gz
Dewpoint
54 42 38 33 22 21 21 18 18 12 14 15 14 13 13 24 34 48 57 67 69 70 71 72 72 73 73 73 73 73 73 73 73 73 73 73 73 73 73 73 74 74 75 74 73 73 72 72 72
50 41 35 29 21 19 19 20 15 11 14 16 17 16 18 36 45 50 55 67 68 70 71 71 72 73 73 72 72 73 73 73 73 73 73 73 73 73 73 73 73 74 74 74 73 72 73 73 72
46 42 30 24 22 19 19 15 10 10 11 13 16 17 28 36 42 50 57 67 68 69 70 71 71 72 73 73 72 72 73 73 73 73 73 73 73 73 73 72 73 74 75 73 72 73 73 72 71
37 30 26 22 22 23 22 22 21 11 13 13 14 17 33 41 46 54 64 67 68 68 69 70 70 71 72 73 72 72 72 72 72 73 73 73 73 73 73 72 73 74 75 75 74 73 72 71 70
37 28 24 23 21 22 23 23 18 13 19 19 16 21 37 45 51 60 65 67 68 68 69 70 69 71 72 73 73 72 72 71 72 72 72 73 73 73 72 72 72 73 74 74 73 73 71 70 69
26 27 22 21 21 23 23 23 23 22 22 23 21 23 35 38 41 60 63 68 69 69 69 70 70 71 71 72 72 71 71 71 71 72 72 72 72 72 71 71 71 72 72 72 72 71 70 69 69
24 22 22 22 22 21 23 24 22 22 24 25 26 28 35 33 34 60 63 69 70 70 69 70 70 71 70 70 70 70 70 70 71 71 71 71 71 71 71 71 71 72 72 71 71 71 70 69 68
24 22 20 19 21 21 24 22 21 21 22 29 27 26 29 32 35 49 65 67 70 69 69 69 69 70 70 70 69 70 70 70 70 70 70 70 70 70 70 70 71 71 71 71 71 70 70 69 68
20 17 18 18 19 20 25 22 21 22 20 23 26 27 32 35 36 32 57 65 68 70 69 68 68 69 69 69 70 70 70 70 69 70 70 69 71 70 70 70 70 70 70 70 70 70 69 68 68
16 19 18 21 21 22 24 23 21 20 20 23 23 27 28 31 30 29 29 40 66 67 70 69 68 68 68 69 69 69 70 70 70 71 70 71 70 70 70 70 69 69 69 69 69 69 68 68 67
21 17 20 21 23 23 24 24 23 21 20 22 24 25 25 27 28 28 28 28 49 66 68 70 69 68 68 68 68 68 68 68 69 70 70 70 70 69 70 70 69 69 69 69 69 69 68 68 67
22 23 22 22 23 23 22 22 21 19 22 22 23 21 22 22 23 25 25 26 27 30 54 70 70 69 68 68 67 68 68 67 68 69 70 69 69 69 69 69 68 68 69 68 68 68 68 67 67
25 25 25 25 24 24 24 22 21 21 21 21 19 20 21 22 21 23 24 25 28 48 60 67 68 68 69 69 68 68 67 67 67 67 69 70 69 69 69 68 68 68 68 68 68 68 68 67 67
26 25 24 24 24 24 22 22 22 23 23 22 22 21 22 22 20 21 23 29 45 46 51 59 59 61 67 67 68 68 68 67 68 67 67 69 68 68 68 68 68 68 68 68 68 67 67 67 67
26 24 24 24 23 23 24 22 23 23 23 23 23 23 23 26 23 21 22 46 49 51 53 55 55 56 57 62 63 65 67 68 68 68 68 68 68 67 67 67 67 68 68 68 67 67 67 66 66
25 25 23 24 25 24 23 22 24 24 23 23 23 23 22 23 24 23 45 47 48 50 52 53 53 53 53 55 58 59 61 64 64 66 68 69 68 68 66 66 66 66 67 67 67 66 66 65 65
26 22 22 23 25 25 24 21 23 22 21 22 21 21 21 22 35 44 46 48 49 49 49 49 49 50 51 51 54 55 56 57 58 61 65 67 65 67 67 66 66 65 66 67 66 66 65 64 64
24 23 25 22 23 23 21 21 21 21 20 21 21 21 21 30 43 46 47 46 45 45 46 46 46 47 48 48 48 49 51 51 55 57 61 62 65 64 67 67 67 65 65 66 66 66 65 64 63
26 24 23 24 24 21 20 19 19 19 18 19 19 21 31 43 45 44 44 44 44 44 44 44 44 45 45 45 45 46 46 48 50 53 55 56 59 61 62 66 66 66 65 65 65 65 63 62 63
24 25 24 25 24 21 19 19 20 20 21 21 18 18 38 43 42 42 42 42 42 42 43 42 42 42 43 43 43 45 44 48 48 50 48 52 50 52 56 58 62 65 65 65 64 64 62 64 63
25 23 23 22 23 25 24 23 23 25 25 24 25 24 39 41 39 39 39 40 40 40 40 40 40 40 40 41 41 41 42 43 44 43 44 45 47 49 52 55 58 61 64 64 64 64 62 62 62
23 23 24 25 21 19 25 21 23 23 23 27 37 38 38 37 37 37 37 37 38 39 39 39 39 38 37 39 38 39 39 39 41 41 42 42 44 44 48 51 53 55 58 63 63 64 63 63 61
28 30 30 26 24 22 22 21 21 22 20 34 37 37 37 37 36 38 38 37 36 36 37 36 37 36 36 36 37 37 36 37 38 39 39 40 41 43 45 48 50 53 55 58 63 62 63 62 60
29 26 23 22 21 21 19 22 20 33 37 36 36 34 35 34 35 36 36 35 34 34 35 34 34 34 34 35 35 35 35 35 35 36 37 39 40 41 43 45 48 50 52 56 60 63 62 61 60
30 29 26 20 18 17 23 22 30 37 37 37 35 35 33 33 34 35 34 32 32 32 32 31 32 32 32 32 32 32 33 34 34 35 36 37 38 39 41 42 44 45 48 52 54 59 62 61 61
30 30 26 19 18 18 22 18 31 38 38 39 39 38 38 35 35 36 34 33 31 31 31 31 31 31 30 31 31 32 32 33 34 35 35 37 37 38 39 41 42 44 45 48 50 53 61 62 61
26 24 27 26 26 23 21 30 37 39 37 37 38 37 38 39 37 34 32 31 30 30 31 31 31 31 31 31 31 31 32 32 33 34 35 36 37 38 40 42 42 43 43 45 48 51 53 61 61
26 26 23 28 21 19 19 20 28 35 34 37 36 36 36 36 35 34 33 32 31 30 30 30 31 31 31 30 30 31 31 32 33 33 34 36 37 38 40 41 42 43 45 44 46 49 53 59 61
19 19 21 28 27 21 19 17 34 36 37 36 34 31 29 29 29 29 29 29 29 28 28 29 30 30 29 30 30 30 31 33 34 34 35 36 36 37 38 39 40 42 44 46 48 48 51 54 59
23 21 23 24 21 22 20 16 38 38 38 34 28 28 28 28 28 28 28 28 27 27 28 29 28 29 31 31 31 30 31 32 32 32 33 34 35 36 36 38 39 42 44 47 48 49 50 52 58